<?xml version="1.0" encoding="UTF-8"?>
<gpx version="1.0" creator="http://thydzik.com" xmlns:xsi="http://www.w3.org/2001/XMLSchema-instance" xmlns="http://www.topografix.com/GPX/1/0" xsi:schemaLocation="http://www.topografix.com/GPX/1/0 http://www.topografix.com/GPX/1/0/gpx.xsd">
  <url></url>
  <time>2024-03-12T04:14:34Z</time>
  <trk>
    <name></name>
    <trkseg>
      <trkpt lat="40.7887174276338" lon="-4.00282990190676">
        <time>2024-03-12T04:14:34Z</time>
      </trkpt>
      <trkpt lat="40.7885402137331" lon="-4.00268210329266">
        <time>2024-03-12T04:14:34Z</time>
      </trkpt>
      <trkpt lat="40.7881249375288" lon="-4.00246475601522">
        <time>2024-03-12T04:14:34Z</time>
      </trkpt>
      <trkpt lat="40.7880333567223" lon="-4.0023868549184">
        <time>2024-03-12T04:14:34Z</time>
      </trkpt>
      <trkpt lat="40.7879408247373" lon="-4.00218755737459">
        <time>2024-03-12T04:14:34Z</time>
      </trkpt>
      <trkpt lat="40.7878378074623" lon="-4.00204087762609">
        <time>2024-03-12T04:14:34Z</time>
      </trkpt>
      <trkpt lat="40.7877608897929" lon="-4.00192165288103">
        <time>2024-03-12T04:14:34Z</time>
      </trkpt>
      <trkpt lat="40.7877592941593" lon="-4.00189792453222">
        <time>2024-03-12T04:14:34Z</time>
      </trkpt>
      <trkpt lat="40.7877345576447" lon="-4.00184184748604">
        <time>2024-03-12T04:14:34Z</time>
      </trkpt>
      <trkpt lat="40.7876580149771" lon="-4.00170912411994">
        <time>2024-03-12T04:14:34Z</time>
      </trkpt>
      <trkpt lat="40.7875498006142" lon="-4.00154039654807">
        <time>2024-03-12T04:14:34Z</time>
      </trkpt>
      <trkpt lat="40.7874285782057" lon="-4.00139160881033">
        <time>2024-03-12T04:14:34Z</time>
      </trkpt>
      <trkpt lat="40.7873056541325" lon="-4.00120012849004">
        <time>2024-03-12T04:14:34Z</time>
      </trkpt>
      <trkpt lat="40.7872988111382" lon="-4.00118935881678">
        <time>2024-03-12T04:14:34Z</time>
      </trkpt>
      <trkpt lat="40.7871719617532" lon="-4.00096226406415">
        <time>2024-03-12T04:14:34Z</time>
      </trkpt>
      <trkpt lat="40.7870959081706" lon="-4.00079874872113">
        <time>2024-03-12T04:14:34Z</time>
      </trkpt>
      <trkpt lat="40.7870638251778" lon="-4.0006548571115">
        <time>2024-03-12T04:14:34Z</time>
      </trkpt>
      <trkpt lat="40.787044522301" lon="-4.00050191286108">
        <time>2024-03-12T04:14:34Z</time>
      </trkpt>
      <trkpt lat="40.7870377011928" lon="-4.00044705398693">
        <time>2024-03-12T04:14:34Z</time>
      </trkpt>
      <trkpt lat="40.7870430062092" lon="-4.00035468757388">
        <time>2024-03-12T04:14:34Z</time>
      </trkpt>
      <trkpt lat="40.7870672603544" lon="-4.00015475174784">
        <time>2024-03-12T04:14:34Z</time>
      </trkpt>
      <trkpt lat="40.7870883498322" lon="-4.00000810258835">
        <time>2024-03-12T04:14:34Z</time>
      </trkpt>
      <trkpt lat="40.7871128571588" lon="-3.99988283832581">
        <time>2024-03-12T04:14:34Z</time>
      </trkpt>
      <trkpt lat="40.7871229081017" lon="-3.99980437484339">
        <time>2024-03-12T04:14:34Z</time>
      </trkpt>
      <trkpt lat="40.7871391686073" lon="-3.9996533027857">
        <time>2024-03-12T04:14:34Z</time>
      </trkpt>
      <trkpt lat="40.7871351886057" lon="-3.9995927975286">
        <time>2024-03-12T04:14:34Z</time>
      </trkpt>
      <trkpt lat="40.7871213417161" lon="-3.99952740349659">
        <time>2024-03-12T04:14:34Z</time>
      </trkpt>
      <trkpt lat="40.787039258161" lon="-3.99933179895185">
        <time>2024-03-12T04:14:34Z</time>
      </trkpt>
      <trkpt lat="40.7869885203593" lon="-3.99927177806171">
        <time>2024-03-12T04:14:34Z</time>
      </trkpt>
      <trkpt lat="40.7869726476445" lon="-3.9992530509254">
        <time>2024-03-12T04:14:34Z</time>
      </trkpt>
      <trkpt lat="40.786942955389" lon="-3.99921776082406">
        <time>2024-03-12T04:14:34Z</time>
      </trkpt>
      <trkpt lat="40.7868940930804" lon="-3.99913880497309">
        <time>2024-03-12T04:14:34Z</time>
      </trkpt>
      <trkpt lat="40.7868763937047" lon="-3.99910215395573">
        <time>2024-03-12T04:14:34Z</time>
      </trkpt>
      <trkpt lat="40.7867861341928" lon="-3.99891436898314">
        <time>2024-03-12T04:14:34Z</time>
      </trkpt>
      <trkpt lat="40.7864506888041" lon="-3.99844296791141">
        <time>2024-03-12T04:14:34Z</time>
      </trkpt>
      <trkpt lat="40.78640432012" lon="-3.99837768029824">
        <time>2024-03-12T04:14:34Z</time>
      </trkpt>
      <trkpt lat="40.7863338706873" lon="-3.99829484683692">
        <time>2024-03-12T04:14:34Z</time>
      </trkpt>
      <trkpt lat="40.7862579246019" lon="-3.99822259796658">
        <time>2024-03-12T04:14:34Z</time>
      </trkpt>
      <trkpt lat="40.7860326228948" lon="-3.99812914985208">
        <time>2024-03-12T04:14:34Z</time>
      </trkpt>
      <trkpt lat="40.785947474733" lon="-3.99807928226595">
        <time>2024-03-12T04:14:34Z</time>
      </trkpt>
      <trkpt lat="40.7858623539648" lon="-3.99804707447148">
        <time>2024-03-12T04:14:34Z</time>
      </trkpt>
      <trkpt lat="40.7857652024797" lon="-3.99801018294819">
        <time>2024-03-12T04:14:34Z</time>
      </trkpt>
      <trkpt lat="40.7854928581169" lon="-3.99793973561464">
        <time>2024-03-12T04:14:34Z</time>
      </trkpt>
      <trkpt lat="40.7854793503829" lon="-3.9979391778474">
        <time>2024-03-12T04:14:34Z</time>
      </trkpt>
      <trkpt lat="40.7852146174395" lon="-3.99792608893011">
        <time>2024-03-12T04:14:34Z</time>
      </trkpt>
      <trkpt lat="40.7850311983804" lon="-3.99788541774348">
        <time>2024-03-12T04:14:34Z</time>
      </trkpt>
      <trkpt lat="40.7848935213424" lon="-3.99786794966173">
        <time>2024-03-12T04:14:34Z</time>
      </trkpt>
      <trkpt lat="40.7848036234876" lon="-3.99784645617822">
        <time>2024-03-12T04:14:34Z</time>
      </trkpt>
      <trkpt lat="40.7846844503657" lon="-3.99780390271085">
        <time>2024-03-12T04:14:34Z</time>
      </trkpt>
      <trkpt lat="40.7846240122115" lon="-3.9977821392246">
        <time>2024-03-12T04:14:34Z</time>
      </trkpt>
      <trkpt lat="40.7844835407587" lon="-3.9977752960975">
        <time>2024-03-12T04:14:34Z</time>
      </trkpt>
      <trkpt lat="40.7842120559012" lon="-3.9977096046692">
        <time>2024-03-12T04:14:34Z</time>
      </trkpt>
      <trkpt lat="40.7841218915979" lon="-3.99771892164791">
        <time>2024-03-12T04:14:34Z</time>
      </trkpt>
      <trkpt lat="40.7839377654146" lon="-3.99776001656043">
        <time>2024-03-12T04:14:34Z</time>
      </trkpt>
      <trkpt lat="40.7839344225005" lon="-3.99776115167841">
        <time>2024-03-12T04:14:34Z</time>
      </trkpt>
      <trkpt lat="40.7836639862127" lon="-3.99785547124553">
        <time>2024-03-12T04:14:34Z</time>
      </trkpt>
      <trkpt lat="40.7835710377466" lon="-3.99787422744336">
        <time>2024-03-12T04:14:34Z</time>
      </trkpt>
      <trkpt lat="40.7833867885189" lon="-3.99792954146423">
        <time>2024-03-12T04:14:34Z</time>
      </trkpt>
      <trkpt lat="40.7833703656775" lon="-3.99793273253851">
        <time>2024-03-12T04:14:34Z</time>
      </trkpt>
      <trkpt lat="40.7832902371547" lon="-3.99794824355609">
        <time>2024-03-12T04:14:34Z</time>
      </trkpt>
      <trkpt lat="40.7831388033014" lon="-3.99795901322084">
        <time>2024-03-12T04:14:34Z</time>
      </trkpt>
      <trkpt lat="40.783047073244" lon="-3.99794104820648">
        <time>2024-03-12T04:14:34Z</time>
      </trkpt>
      <trkpt lat="40.7829093551697" lon="-3.99792832052781">
        <time>2024-03-12T04:14:34Z</time>
      </trkpt>
      <trkpt lat="40.7828018942541" lon="-3.99790644625475">
        <time>2024-03-12T04:14:34Z</time>
      </trkpt>
      <trkpt lat="40.7827717703154" lon="-3.99790018821491">
        <time>2024-03-12T04:14:34Z</time>
      </trkpt>
      <trkpt lat="40.7826828346341" lon="-3.99787159906305">
        <time>2024-03-12T04:14:34Z</time>
      </trkpt>
      <trkpt lat="40.7822543483628" lon="-3.99763752400972">
        <time>2024-03-12T04:14:34Z</time>
      </trkpt>
      <trkpt lat="40.7822058437141" lon="-3.99761084406637">
        <time>2024-03-12T04:14:34Z</time>
      </trkpt>
      <trkpt lat="40.7819046662726" lon="-3.99743686606222">
        <time>2024-03-12T04:14:34Z</time>
      </trkpt>
      <trkpt lat="40.7817718819002" lon="-3.99737443879816">
        <time>2024-03-12T04:14:34Z</time>
      </trkpt>
      <trkpt lat="40.7816539758322" lon="-3.99729990920627">
        <time>2024-03-12T04:14:34Z</time>
      </trkpt>
      <trkpt lat="40.781649138565" lon="-3.997296755562">
        <time>2024-03-12T04:14:34Z</time>
      </trkpt>
      <trkpt lat="40.7813432624229" lon="-3.99714522718952">
        <time>2024-03-12T04:14:34Z</time>
      </trkpt>
      <trkpt lat="40.7811618184276" lon="-3.99708444354738">
        <time>2024-03-12T04:14:34Z</time>
      </trkpt>
      <trkpt lat="40.7810395998302" lon="-3.99705026255811">
        <time>2024-03-12T04:14:34Z</time>
      </trkpt>
      <trkpt lat="40.7806477831268" lon="-3.99694047060979">
        <time>2024-03-12T04:14:34Z</time>
      </trkpt>
      <trkpt lat="40.7804121626052" lon="-3.9968942843108">
        <time>2024-03-12T04:14:34Z</time>
      </trkpt>
      <trkpt lat="40.7804043447536" lon="-3.99689203426155">
        <time>2024-03-12T04:14:34Z</time>
      </trkpt>
      <trkpt lat="40.7801866240129" lon="-3.99682810266528">
        <time>2024-03-12T04:14:34Z</time>
      </trkpt>
      <trkpt lat="40.7800436549282" lon="-3.99679752322723">
        <time>2024-03-12T04:14:34Z</time>
      </trkpt>
      <trkpt lat="40.7799113614253" lon="-3.99678250954941">
        <time>2024-03-12T04:14:34Z</time>
      </trkpt>
      <trkpt lat="40.7797737690087" lon="-3.99677606777829">
        <time>2024-03-12T04:14:34Z</time>
      </trkpt>
      <trkpt lat="40.7795808886451" lon="-3.99676690339228">
        <time>2024-03-12T04:14:34Z</time>
      </trkpt>
      <trkpt lat="40.7793961383086" lon="-3.99677599217642">
        <time>2024-03-12T04:14:34Z</time>
      </trkpt>
      <trkpt lat="40.7791664644652" lon="-3.99677137361078">
        <time>2024-03-12T04:14:34Z</time>
      </trkpt>
      <trkpt lat="40.7791265839799" lon="-3.99676828878736">
        <time>2024-03-12T04:14:34Z</time>
      </trkpt>
      <trkpt lat="40.778979216663" lon="-3.99675672376622">
        <time>2024-03-12T04:14:34Z</time>
      </trkpt>
      <trkpt lat="40.7789441806266" lon="-3.99674553445589">
        <time>2024-03-12T04:14:34Z</time>
      </trkpt>
      <trkpt lat="40.7789091333277" lon="-3.99672522001857">
        <time>2024-03-12T04:14:34Z</time>
      </trkpt>
      <trkpt lat="40.7788877114946" lon="-3.9967126936681">
        <time>2024-03-12T04:14:34Z</time>
      </trkpt>
      <trkpt lat="40.7788681514835" lon="-3.99668277476857">
        <time>2024-03-12T04:14:34Z</time>
      </trkpt>
      <trkpt lat="40.779010025227" lon="-3.99652728211581">
        <time>2024-03-12T04:14:34Z</time>
      </trkpt>
      <trkpt lat="40.779036444991" lon="-3.99650350168202">
        <time>2024-03-12T04:14:34Z</time>
      </trkpt>
      <trkpt lat="40.7791316838399" lon="-3.99641770426378">
        <time>2024-03-12T04:14:34Z</time>
      </trkpt>
      <trkpt lat="40.7791618271706" lon="-3.99636956703555">
        <time>2024-03-12T04:14:34Z</time>
      </trkpt>
      <trkpt lat="40.779234601113" lon="-3.99628769983626">
        <time>2024-03-12T04:14:34Z</time>
      </trkpt>
      <trkpt lat="40.7793180302126" lon="-3.99622376768422">
        <time>2024-03-12T04:14:34Z</time>
      </trkpt>
      <trkpt lat="40.7794491463971" lon="-3.99616647318841">
        <time>2024-03-12T04:14:34Z</time>
      </trkpt>
      <trkpt lat="40.7795560697779" lon="-3.99607326486059">
        <time>2024-03-12T04:14:34Z</time>
      </trkpt>
      <trkpt lat="40.7795707739888" lon="-3.99606044872591">
        <time>2024-03-12T04:14:34Z</time>
      </trkpt>
      <trkpt lat="40.779576688007" lon="-3.99605366365126">
        <time>2024-03-12T04:14:34Z</time>
      </trkpt>
      <trkpt lat="40.7796426572222" lon="-3.99597738231546">
        <time>2024-03-12T04:14:34Z</time>
      </trkpt>
      <trkpt lat="40.7797268633704" lon="-3.9958233952451">
        <time>2024-03-12T04:14:34Z</time>
      </trkpt>
      <trkpt lat="40.7797380618962" lon="-3.99580969711166">
        <time>2024-03-12T04:14:34Z</time>
      </trkpt>
      <trkpt lat="40.7797605479927" lon="-3.99578242066863">
        <time>2024-03-12T04:14:34Z</time>
      </trkpt>
      <trkpt lat="40.7797978252638" lon="-3.99574268478151">
        <time>2024-03-12T04:14:34Z</time>
      </trkpt>
      <trkpt lat="40.7798902306145" lon="-3.99568244070125">
        <time>2024-03-12T04:14:34Z</time>
      </trkpt>
      <trkpt lat="40.7800165940783" lon="-3.99561215631814">
        <time>2024-03-12T04:14:34Z</time>
      </trkpt>
      <trkpt lat="40.7800975183811" lon="-3.9955670279971">
        <time>2024-03-12T04:14:34Z</time>
      </trkpt>
      <trkpt lat="40.7801835981408" lon="-3.99550905913123">
        <time>2024-03-12T04:14:34Z</time>
      </trkpt>
      <trkpt lat="40.7802607524296" lon="-3.99544147617743">
        <time>2024-03-12T04:14:34Z</time>
      </trkpt>
      <trkpt lat="40.7802734197834" lon="-3.99543502882231">
        <time>2024-03-12T04:14:34Z</time>
      </trkpt>
      <trkpt lat="40.7804833317914" lon="-3.99532866056152">
        <time>2024-03-12T04:14:34Z</time>
      </trkpt>
      <trkpt lat="40.7804899673672" lon="-3.99532176759315">
        <time>2024-03-12T04:14:34Z</time>
      </trkpt>
      <trkpt lat="40.7805551429665" lon="-3.99525388679965">
        <time>2024-03-12T04:14:34Z</time>
      </trkpt>
      <trkpt lat="40.7806127367116" lon="-3.99515638392668">
        <time>2024-03-12T04:14:34Z</time>
      </trkpt>
      <trkpt lat="40.7806188216248" lon="-3.99515066780054">
        <time>2024-03-12T04:14:34Z</time>
      </trkpt>
      <trkpt lat="40.7807811991576" lon="-3.99499902914103">
        <time>2024-03-12T04:14:34Z</time>
      </trkpt>
      <trkpt lat="40.7808361434417" lon="-3.99494758639886">
        <time>2024-03-12T04:14:34Z</time>
      </trkpt>
      <trkpt lat="40.7809843403819" lon="-3.99478980968482">
        <time>2024-03-12T04:14:34Z</time>
      </trkpt>
      <trkpt lat="40.7809878664788" lon="-3.99478832166862">
        <time>2024-03-12T04:14:34Z</time>
      </trkpt>
      <trkpt lat="40.7810666329955" lon="-3.99475311435466">
        <time>2024-03-12T04:14:34Z</time>
      </trkpt>
      <trkpt lat="40.7811029989824" lon="-3.99471454863062">
        <time>2024-03-12T04:14:34Z</time>
      </trkpt>
      <trkpt lat="40.7811428861282" lon="-3.99468551620454">
        <time>2024-03-12T04:14:34Z</time>
      </trkpt>
      <trkpt lat="40.7811646640133" lon="-3.99467766391212">
        <time>2024-03-12T04:14:34Z</time>
      </trkpt>
      <trkpt lat="40.7812792504514" lon="-3.99463588013837">
        <time>2024-03-12T04:14:34Z</time>
      </trkpt>
      <trkpt lat="40.7813272360951" lon="-3.99461834540479">
        <time>2024-03-12T04:14:34Z</time>
      </trkpt>
      <trkpt lat="40.7814123023158" lon="-3.99457339531802">
        <time>2024-03-12T04:14:34Z</time>
      </trkpt>
      <trkpt lat="40.7814235907687" lon="-3.99455969797468">
        <time>2024-03-12T04:14:34Z</time>
      </trkpt>
      <trkpt lat="40.7814459865039" lon="-3.99453241908231">
        <time>2024-03-12T04:14:34Z</time>
      </trkpt>
      <trkpt lat="40.7815249314637" lon="-3.99446604556218">
        <time>2024-03-12T04:14:34Z</time>
      </trkpt>
      <trkpt lat="40.7815740443085" lon="-3.99441178909048">
        <time>2024-03-12T04:14:34Z</time>
      </trkpt>
      <trkpt lat="40.7815958720045" lon="-3.99438770140984">
        <time>2024-03-12T04:14:34Z</time>
      </trkpt>
      <trkpt lat="40.7816375094565" lon="-3.99436462023278">
        <time>2024-03-12T04:14:34Z</time>
      </trkpt>
      <trkpt lat="40.7816961993573" lon="-3.99434890401658">
        <time>2024-03-12T04:14:34Z</time>
      </trkpt>
      <trkpt lat="40.7817121317155" lon="-3.99433989777092">
        <time>2024-03-12T04:14:34Z</time>
      </trkpt>
      <trkpt lat="40.7817840084845" lon="-3.9942992538036">
        <time>2024-03-12T04:14:34Z</time>
      </trkpt>
      <trkpt lat="40.7818273758886" lon="-3.99428449409981">
        <time>2024-03-12T04:14:34Z</time>
      </trkpt>
      <trkpt lat="40.7819210714141" lon="-3.9942835211975">
        <time>2024-03-12T04:14:34Z</time>
      </trkpt>
      <trkpt lat="40.7819990053783" lon="-3.99433445834757">
        <time>2024-03-12T04:14:34Z</time>
      </trkpt>
      <trkpt lat="40.7820574736886" lon="-3.99434445576526">
        <time>2024-03-12T04:14:34Z</time>
      </trkpt>
      <trkpt lat="40.7820907564975" lon="-3.99435004816799">
        <time>2024-03-12T04:14:34Z</time>
      </trkpt>
      <trkpt lat="40.7821556595458" lon="-3.99434509057621">
        <time>2024-03-12T04:14:34Z</time>
      </trkpt>
      <trkpt lat="40.7822425577355" lon="-3.99429661156316">
        <time>2024-03-12T04:14:34Z</time>
      </trkpt>
      <trkpt lat="40.7822460981211" lon="-3.99429346453839">
        <time>2024-03-12T04:14:34Z</time>
      </trkpt>
      <trkpt lat="40.7823923714796" lon="-3.99416018645811">
        <time>2024-03-12T04:14:34Z</time>
      </trkpt>
      <trkpt lat="40.7824320066475" lon="-3.99412901617321">
        <time>2024-03-12T04:14:34Z</time>
      </trkpt>
      <trkpt lat="40.782472186324" lon="-3.99409737992097">
        <time>2024-03-12T04:14:34Z</time>
      </trkpt>
      <trkpt lat="40.7825203737772" lon="-3.99404595292318">
        <time>2024-03-12T04:14:34Z</time>
      </trkpt>
      <trkpt lat="40.7825030534777" lon="-3.99396510616134">
        <time>2024-03-12T04:14:34Z</time>
      </trkpt>
      <trkpt lat="40.7824990806441" lon="-3.99390342042452">
        <time>2024-03-12T04:14:34Z</time>
      </trkpt>
      <trkpt lat="40.7824995442741" lon="-3.9939018866737">
        <time>2024-03-12T04:14:34Z</time>
      </trkpt>
      <trkpt lat="40.7825129385054" lon="-3.99386333275664">
        <time>2024-03-12T04:14:34Z</time>
      </trkpt>
      <trkpt lat="40.7826698935853" lon="-3.99362983207008">
        <time>2024-03-12T04:14:34Z</time>
      </trkpt>
      <trkpt lat="40.782703545711" lon="-3.99355069297142">
        <time>2024-03-12T04:14:34Z</time>
      </trkpt>
      <trkpt lat="40.7827149473" lon="-3.99352384194778">
        <time>2024-03-12T04:14:34Z</time>
      </trkpt>
      <trkpt lat="40.7827423872834" lon="-3.99347566056489">
        <time>2024-03-12T04:14:34Z</time>
      </trkpt>
      <trkpt lat="40.7827923759094" lon="-3.99342425975102">
        <time>2024-03-12T04:14:34Z</time>
      </trkpt>
      <trkpt lat="40.7827810847949" lon="-3.99337550116521">
        <time>2024-03-12T04:14:34Z</time>
      </trkpt>
      <trkpt lat="40.7827786682674" lon="-3.993342281515">
        <time>2024-03-12T04:14:34Z</time>
      </trkpt>
      <trkpt lat="40.7827818090758" lon="-3.99329136771513">
        <time>2024-03-12T04:14:34Z</time>
      </trkpt>
      <trkpt lat="40.7827857179808" lon="-3.99325587204686">
        <time>2024-03-12T04:14:34Z</time>
      </trkpt>
      <trkpt lat="40.7827987666966" lon="-3.99320510584306">
        <time>2024-03-12T04:14:34Z</time>
      </trkpt>
      <trkpt lat="40.7828180796492" lon="-3.99315917346114">
        <time>2024-03-12T04:14:34Z</time>
      </trkpt>
      <trkpt lat="40.7828354381544" lon="-3.99313098890533">
        <time>2024-03-12T04:14:34Z</time>
      </trkpt>
      <trkpt lat="40.7828449147959" lon="-3.99311844917093">
        <time>2024-03-12T04:14:34Z</time>
      </trkpt>
      <trkpt lat="40.7828645978316" lon="-3.99309231394352">
        <time>2024-03-12T04:14:34Z</time>
      </trkpt>
      <trkpt lat="40.7828864089403" lon="-3.99307012133567">
        <time>2024-03-12T04:14:34Z</time>
      </trkpt>
      <trkpt lat="40.7829100010929" lon="-3.99305032550789">
        <time>2024-03-12T04:14:34Z</time>
      </trkpt>
      <trkpt lat="40.7829480353937" lon="-3.99302718938593">
        <time>2024-03-12T04:14:34Z</time>
      </trkpt>
      <trkpt lat="40.7830519753856" lon="-3.99298725787059">
        <time>2024-03-12T04:14:34Z</time>
      </trkpt>
      <trkpt lat="40.7831287101413" lon="-3.99296825349127">
        <time>2024-03-12T04:14:34Z</time>
      </trkpt>
      <trkpt lat="40.7831425843242" lon="-3.9929681045979">
        <time>2024-03-12T04:14:34Z</time>
      </trkpt>
      <trkpt lat="40.7832368274108" lon="-3.99296630842211">
        <time>2024-03-12T04:14:34Z</time>
      </trkpt>
      <trkpt lat="40.7832512797574" lon="-3.99296178312743">
        <time>2024-03-12T04:14:34Z</time>
      </trkpt>
      <trkpt lat="40.7832639612513" lon="-3.99295367603889">
        <time>2024-03-12T04:14:34Z</time>
      </trkpt>
      <trkpt lat="40.7832748718917" lon="-3.99294198715515">
        <time>2024-03-12T04:14:34Z</time>
      </trkpt>
      <trkpt lat="40.7832840116776" lon="-3.99292671647531">
        <time>2024-03-12T04:14:34Z</time>
      </trkpt>
      <trkpt lat="40.7832895587692" lon="-3.99291020714377">
        <time>2024-03-12T04:14:34Z</time>
      </trkpt>
      <trkpt lat="40.7832925566411" lon="-3.99287588275394">
        <time>2024-03-12T04:14:34Z</time>
      </trkpt>
      <trkpt lat="40.7832884812737" lon="-3.99282604621249">
        <time>2024-03-12T04:14:34Z</time>
      </trkpt>
      <trkpt lat="40.7832788690077" lon="-3.99279153403126">
        <time>2024-03-12T04:14:34Z</time>
      </trkpt>
      <trkpt lat="40.7832700656953" lon="-3.99276770015629">
        <time>2024-03-12T04:14:34Z</time>
      </trkpt>
      <trkpt lat="40.7832410147289" lon="-3.99268904841303">
        <time>2024-03-12T04:14:34Z</time>
      </trkpt>
      <trkpt lat="40.783211246472" lon="-3.99258905357726">
        <time>2024-03-12T04:14:34Z</time>
      </trkpt>
      <trkpt lat="40.7832062294849" lon="-3.99254394364581">
        <time>2024-03-12T04:14:34Z</time>
      </trkpt>
      <trkpt lat="40.7832048255624" lon="-3.99249770237244">
        <time>2024-03-12T04:14:34Z</time>
      </trkpt>
      <trkpt lat="40.7832131277562" lon="-3.99239128207433">
        <time>2024-03-12T04:14:34Z</time>
      </trkpt>
      <trkpt lat="40.7832189848187" lon="-3.99231777219174">
        <time>2024-03-12T04:14:34Z</time>
      </trkpt>
      <trkpt lat="40.7832286707493" lon="-3.99213421994668">
        <time>2024-03-12T04:14:34Z</time>
      </trkpt>
      <trkpt lat="40.7832327927876" lon="-3.99201102691192">
        <time>2024-03-12T04:14:34Z</time>
      </trkpt>
      <trkpt lat="40.7832346923758" lon="-3.99195772395469">
        <time>2024-03-12T04:14:34Z</time>
      </trkpt>
      <trkpt lat="40.783235757538" lon="-3.99172900810751">
        <time>2024-03-12T04:14:34Z</time>
      </trkpt>
      <trkpt lat="40.7832420173507" lon="-3.99162954959854">
        <time>2024-03-12T04:14:34Z</time>
      </trkpt>
      <trkpt lat="40.7832523789072" lon="-3.99147208028209">
        <time>2024-03-12T04:14:34Z</time>
      </trkpt>
      <trkpt lat="40.7832581396104" lon="-3.99143068609945">
        <time>2024-03-12T04:14:34Z</time>
      </trkpt>
      <trkpt lat="40.7832683835498" lon="-3.99139172885664">
        <time>2024-03-12T04:14:34Z</time>
      </trkpt>
      <trkpt lat="40.7832910946381" lon="-3.99133814274971">
        <time>2024-03-12T04:14:34Z</time>
      </trkpt>
      <trkpt lat="40.7833090760844" lon="-3.99131079638045">
        <time>2024-03-12T04:14:34Z</time>
      </trkpt>
      <trkpt lat="40.7833123614442" lon="-3.99130586764575">
        <time>2024-03-12T04:14:34Z</time>
      </trkpt>
      <trkpt lat="40.7833602524547" lon="-3.99128880265594">
        <time>2024-03-12T04:14:34Z</time>
      </trkpt>
      <trkpt lat="40.7833943984761" lon="-3.99129879151389">
        <time>2024-03-12T04:14:34Z</time>
      </trkpt>
      <trkpt lat="40.7834015431755" lon="-3.99130600859974">
        <time>2024-03-12T04:14:34Z</time>
      </trkpt>
      <trkpt lat="40.7835038332687" lon="-3.99145804279173">
        <time>2024-03-12T04:14:34Z</time>
      </trkpt>
      <trkpt lat="40.7835121112232" lon="-3.99146966179054">
        <time>2024-03-12T04:14:34Z</time>
      </trkpt>
      <trkpt lat="40.7836320302514" lon="-3.99163535085186">
        <time>2024-03-12T04:14:34Z</time>
      </trkpt>
      <trkpt lat="40.7836507926663" lon="-3.99165340712226">
        <time>2024-03-12T04:14:34Z</time>
      </trkpt>
      <trkpt lat="40.7836722979831" lon="-3.99166676361983">
        <time>2024-03-12T04:14:34Z</time>
      </trkpt>
      <trkpt lat="40.7836911622361" lon="-3.99167296996081">
        <time>2024-03-12T04:14:34Z</time>
      </trkpt>
      <trkpt lat="40.783705594166" lon="-3.99167081434619">
        <time>2024-03-12T04:14:34Z</time>
      </trkpt>
      <trkpt lat="40.7837164435739" lon="-3.99166623514619">
        <time>2024-03-12T04:14:34Z</time>
      </trkpt>
      <trkpt lat="40.7837255220889" lon="-3.9916580741614">
        <time>2024-03-12T04:14:34Z</time>
      </trkpt>
      <trkpt lat="40.7837328195263" lon="-3.99164751638667">
        <time>2024-03-12T04:14:34Z</time>
      </trkpt>
      <trkpt lat="40.7837401882498" lon="-3.99162866363888">
        <time>2024-03-12T04:14:34Z</time>
      </trkpt>
      <trkpt lat="40.783749272345" lon="-3.99151502460454">
        <time>2024-03-12T04:14:34Z</time>
      </trkpt>
      <trkpt lat="40.7837487363796" lon="-3.99140965702369">
        <time>2024-03-12T04:14:34Z</time>
      </trkpt>
      <trkpt lat="40.7837486112819" lon="-3.99138227825688">
        <time>2024-03-12T04:14:34Z</time>
      </trkpt>
      <trkpt lat="40.7837518835837" lon="-3.99131595865763">
        <time>2024-03-12T04:14:34Z</time>
      </trkpt>
      <trkpt lat="40.7837596594609" lon="-3.99124970601507">
        <time>2024-03-12T04:14:34Z</time>
      </trkpt>
      <trkpt lat="40.7837746919781" lon="-3.99117763550859">
        <time>2024-03-12T04:14:34Z</time>
      </trkpt>
      <trkpt lat="40.7837922128682" lon="-3.99113049007695">
        <time>2024-03-12T04:14:34Z</time>
      </trkpt>
      <trkpt lat="40.7837949761085" lon="-3.99112342026868">
        <time>2024-03-12T04:14:34Z</time>
      </trkpt>
      <trkpt lat="40.7838160184418" lon="-3.99108580834895">
        <time>2024-03-12T04:14:34Z</time>
      </trkpt>
      <trkpt lat="40.7838315139351" lon="-3.99106470603179">
        <time>2024-03-12T04:14:34Z</time>
      </trkpt>
      <trkpt lat="40.7838342262814" lon="-3.99106356120508">
        <time>2024-03-12T04:14:34Z</time>
      </trkpt>
      <trkpt lat="40.7838802750982" lon="-3.9910512091283">
        <time>2024-03-12T04:14:34Z</time>
      </trkpt>
      <trkpt lat="40.7839080855445" lon="-3.991064659213">
        <time>2024-03-12T04:14:34Z</time>
      </trkpt>
      <trkpt lat="40.7839107571784" lon="-3.99106825438125">
        <time>2024-03-12T04:14:34Z</time>
      </trkpt>
      <trkpt lat="40.7839276266316" lon="-3.99109694878369">
        <time>2024-03-12T04:14:34Z</time>
      </trkpt>
      <trkpt lat="40.7839639964308" lon="-3.99116267280653">
        <time>2024-03-12T04:14:34Z</time>
      </trkpt>
      <trkpt lat="40.7840046865668" lon="-3.99124979387581">
        <time>2024-03-12T04:14:34Z</time>
      </trkpt>
      <trkpt lat="40.7840517020556" lon="-3.99133463880648">
        <time>2024-03-12T04:14:34Z</time>
      </trkpt>
      <trkpt lat="40.7841093632416" lon="-3.99143860463855">
        <time>2024-03-12T04:14:34Z</time>
      </trkpt>
      <trkpt lat="40.7841156173897" lon="-3.99144462341995">
        <time>2024-03-12T04:14:34Z</time>
      </trkpt>
      <trkpt lat="40.7841218715375" lon="-3.99145064220251">
        <time>2024-03-12T04:14:34Z</time>
      </trkpt>
      <trkpt lat="40.784129056954" lon="-3.99145311937358">
        <time>2024-03-12T04:14:34Z</time>
      </trkpt>
      <trkpt lat="40.784137153275" lon="-3.99145442493801">
        <time>2024-03-12T04:14:34Z</time>
      </trkpt>
      <trkpt lat="40.7841452801424" lon="-3.9914521754935">
        <time>2024-03-12T04:14:34Z</time>
      </trkpt>
      <trkpt lat="40.7841525164692" lon="-3.99144872764958">
        <time>2024-03-12T04:14:34Z</time>
      </trkpt>
      <trkpt lat="40.7841579717149" lon="-3.99144288300704">
        <time>2024-03-12T04:14:34Z</time>
      </trkpt>
      <trkpt lat="40.7841634473241" lon="-3.99143466835673">
        <time>2024-03-12T04:14:34Z</time>
      </trkpt>
      <trkpt lat="40.7841671214876" lon="-3.99142642691431">
        <time>2024-03-12T04:14:34Z</time>
      </trkpt>
      <trkpt lat="40.7841716406943" lon="-3.99131983017416">
        <time>2024-03-12T04:14:34Z</time>
      </trkpt>
      <trkpt lat="40.7841707717176" lon="-3.99123223429944">
        <time>2024-03-12T04:14:34Z</time>
      </trkpt>
      <trkpt lat="40.7841702313831" lon="-3.99116929453623">
        <time>2024-03-12T04:14:34Z</time>
      </trkpt>
      <trkpt lat="40.7841787715193" lon="-3.99093013868946">
        <time>2024-03-12T04:14:34Z</time>
      </trkpt>
      <trkpt lat="40.7841844494057" lon="-3.99077247892475">
        <time>2024-03-12T04:14:34Z</time>
      </trkpt>
      <trkpt lat="40.7841922758481" lon="-3.99070030076269">
        <time>2024-03-12T04:14:34Z</time>
      </trkpt>
      <trkpt lat="40.7842072978542" lon="-3.99062941466413">
        <time>2024-03-12T04:14:34Z</time>
      </trkpt>
      <trkpt lat="40.7842387159386" lon="-3.99053743934788">
        <time>2024-03-12T04:14:34Z</time>
      </trkpt>
      <trkpt lat="40.7842809934831" lon="-3.99043969950053">
        <time>2024-03-12T04:14:34Z</time>
      </trkpt>
      <trkpt lat="40.784316731956" lon="-3.99036912101267">
        <time>2024-03-12T04:14:34Z</time>
      </trkpt>
      <trkpt lat="40.7843679453982" lon="-3.99027980979323">
        <time>2024-03-12T04:14:34Z</time>
      </trkpt>
      <trkpt lat="40.7843749979196" lon="-3.99026628523178">
        <time>2024-03-12T04:14:34Z</time>
      </trkpt>
      <trkpt lat="40.7844403024943" lon="-3.99014103577942">
        <time>2024-03-12T04:14:34Z</time>
      </trkpt>
      <trkpt lat="40.7845100385954" lon="-3.98999274125294">
        <time>2024-03-12T04:14:34Z</time>
      </trkpt>
      <trkpt lat="40.7845146337142" lon="-3.98998214304223">
        <time>2024-03-12T04:14:34Z</time>
      </trkpt>
      <trkpt lat="40.7846055538454" lon="-3.98977964523993">
        <time>2024-03-12T04:14:34Z</time>
      </trkpt>
      <trkpt lat="40.7846437510772" lon="-3.98968492522447">
        <time>2024-03-12T04:14:34Z</time>
      </trkpt>
      <trkpt lat="40.7846626183855" lon="-3.9896382728405">
        <time>2024-03-12T04:14:34Z</time>
      </trkpt>
      <trkpt lat="40.7847169907477" lon="-3.98949567507389">
        <time>2024-03-12T04:14:34Z</time>
      </trkpt>
      <trkpt lat="40.7847382154686" lon="-3.98943673185714">
        <time>2024-03-12T04:14:34Z</time>
      </trkpt>
      <trkpt lat="40.7847569476017" lon="-3.98937431462942">
        <time>2024-03-12T04:14:34Z</time>
      </trkpt>
      <trkpt lat="40.7847697443799" lon="-3.98933172006781">
        <time>2024-03-12T04:14:34Z</time>
      </trkpt>
      <trkpt lat="40.784861636503" lon="-3.98901569599128">
        <time>2024-03-12T04:14:34Z</time>
      </trkpt>
      <trkpt lat="40.7848978331789" lon="-3.98889155332909">
        <time>2024-03-12T04:14:34Z</time>
      </trkpt>
      <trkpt lat="40.7849306786625" lon="-3.9887379686439">
        <time>2024-03-12T04:14:34Z</time>
      </trkpt>
      <trkpt lat="40.7849614889788" lon="-3.98861161251708">
        <time>2024-03-12T04:14:34Z</time>
      </trkpt>
      <trkpt lat="40.7850163067469" lon="-3.98841687238899">
        <time>2024-03-12T04:14:34Z</time>
      </trkpt>
      <trkpt lat="40.7850423187484" lon="-3.98832481476266">
        <time>2024-03-12T04:14:34Z</time>
      </trkpt>
      <trkpt lat="40.7851063969713" lon="-3.98810058213303">
        <time>2024-03-12T04:14:34Z</time>
      </trkpt>
      <trkpt lat="40.7851243935346" lon="-3.98799773891214">
        <time>2024-03-12T04:14:34Z</time>
      </trkpt>
      <trkpt lat="40.7851273407014" lon="-3.98794812387808">
        <time>2024-03-12T04:14:34Z</time>
      </trkpt>
      <trkpt lat="40.7851349023657" lon="-3.98782248916161">
        <time>2024-03-12T04:14:34Z</time>
      </trkpt>
      <trkpt lat="40.7851379028496" lon="-3.98757720294379">
        <time>2024-03-12T04:14:34Z</time>
      </trkpt>
      <trkpt lat="40.7851355455174" lon="-3.98753687216167">
        <time>2024-03-12T04:14:34Z</time>
      </trkpt>
      <trkpt lat="40.7851359271052" lon="-3.98753438895258">
        <time>2024-03-12T04:14:34Z</time>
      </trkpt>
      <trkpt lat="40.7851402823999" lon="-3.98750968336807">
        <time>2024-03-12T04:14:34Z</time>
      </trkpt>
      <trkpt lat="40.7851504033339" lon="-3.98748494467055">
        <time>2024-03-12T04:14:34Z</time>
      </trkpt>
      <trkpt lat="40.7851722742332" lon="-3.98745563932378">
        <time>2024-03-12T04:14:34Z</time>
      </trkpt>
      <trkpt lat="40.7851813423156" lon="-3.98744866260822">
        <time>2024-03-12T04:14:34Z</time>
      </trkpt>
      <trkpt lat="40.7851921814212" lon="-3.98744526764425">
        <time>2024-03-12T04:14:34Z</time>
      </trkpt>
      <trkpt lat="40.7852129183439" lon="-3.98744320446508">
        <time>2024-03-12T04:14:34Z</time>
      </trkpt>
      <trkpt lat="40.7852434719543" lon="-3.98745195326352">
        <time>2024-03-12T04:14:34Z</time>
      </trkpt>
      <trkpt lat="40.7852613647281" lon="-3.98746644039961">
        <time>2024-03-12T04:14:34Z</time>
      </trkpt>
      <trkpt lat="40.7852765147633" lon="-3.98748562761419">
        <time>2024-03-12T04:14:34Z</time>
      </trkpt>
      <trkpt lat="40.7853004184809" lon="-3.98753457389244">
        <time>2024-03-12T04:14:34Z</time>
      </trkpt>
      <trkpt lat="40.7853118743293" lon="-3.98756437298628">
        <time>2024-03-12T04:14:34Z</time>
      </trkpt>
      <trkpt lat="40.7853223178757" lon="-3.98760719402532">
        <time>2024-03-12T04:14:34Z</time>
      </trkpt>
      <trkpt lat="40.7853273976386" lon="-3.98764519490628">
        <time>2024-03-12T04:14:34Z</time>
      </trkpt>
      <trkpt lat="40.7853482926475" lon="-3.98783513265716">
        <time>2024-03-12T04:14:34Z</time>
      </trkpt>
      <trkpt lat="40.7853719098065" lon="-3.98802274051876">
        <time>2024-03-12T04:14:34Z</time>
      </trkpt>
      <trkpt lat="40.7853961026058" lon="-3.98824828270705">
        <time>2024-03-12T04:14:34Z</time>
      </trkpt>
      <trkpt lat="40.785410752463" lon="-3.98843101717427">
        <time>2024-03-12T04:14:34Z</time>
      </trkpt>
      <trkpt lat="40.7854301420062" lon="-3.98848108212923">
        <time>2024-03-12T04:14:34Z</time>
      </trkpt>
      <trkpt lat="40.7854534694417" lon="-3.98849209463667">
        <time>2024-03-12T04:14:34Z</time>
      </trkpt>
      <trkpt lat="40.7854676503881" lon="-3.9884876827234">
        <time>2024-03-12T04:14:34Z</time>
      </trkpt>
      <trkpt lat="40.7854823737986" lon="-3.98848304181649">
        <time>2024-03-12T04:14:34Z</time>
      </trkpt>
      <trkpt lat="40.7854952174132" lon="-3.98845597315641">
        <time>2024-03-12T04:14:34Z</time>
      </trkpt>
      <trkpt lat="40.7855010278069" lon="-3.9884086521612">
        <time>2024-03-12T04:14:34Z</time>
      </trkpt>
      <trkpt lat="40.7854943869362" lon="-3.98832156158111">
        <time>2024-03-12T04:14:34Z</time>
      </trkpt>
      <trkpt lat="40.785493743499" lon="-3.98831254468372">
        <time>2024-03-12T04:14:34Z</time>
      </trkpt>
      <trkpt lat="40.7854341510388" lon="-3.9880129964223">
        <time>2024-03-12T04:14:34Z</time>
      </trkpt>
      <trkpt lat="40.7854213605984" lon="-3.98792865925705">
        <time>2024-03-12T04:14:34Z</time>
      </trkpt>
      <trkpt lat="40.7854132867617" lon="-3.98781950329556">
        <time>2024-03-12T04:14:34Z</time>
      </trkpt>
      <trkpt lat="40.7854122793715" lon="-3.98778985893669">
        <time>2024-03-12T04:14:34Z</time>
      </trkpt>
      <trkpt lat="40.7854082801652" lon="-3.98766772642809">
        <time>2024-03-12T04:14:34Z</time>
      </trkpt>
      <trkpt lat="40.7854068356948" lon="-3.98752074305965">
        <time>2024-03-12T04:14:34Z</time>
      </trkpt>
      <trkpt lat="40.7854041192488" lon="-3.98729077845815">
        <time>2024-03-12T04:14:34Z</time>
      </trkpt>
      <trkpt lat="40.7854026618163" lon="-3.98716631327756">
        <time>2024-03-12T04:14:34Z</time>
      </trkpt>
      <trkpt lat="40.785395820035" lon="-3.98697622808998">
        <time>2024-03-12T04:14:34Z</time>
      </trkpt>
      <trkpt lat="40.7853946596506" lon="-3.9869433815076">
        <time>2024-03-12T04:14:34Z</time>
      </trkpt>
      <trkpt lat="40.7853894706952" lon="-3.98670745448383">
        <time>2024-03-12T04:14:34Z</time>
      </trkpt>
      <trkpt lat="40.7853878989343" lon="-3.98661735777732">
        <time>2024-03-12T04:14:34Z</time>
      </trkpt>
      <trkpt lat="40.7853865072478" lon="-3.98652726373962">
        <time>2024-03-12T04:14:34Z</time>
      </trkpt>
      <trkpt lat="40.7853808514776" lon="-3.98634584799696">
        <time>2024-03-12T04:14:34Z</time>
      </trkpt>
      <trkpt lat="40.785379005947" lon="-3.98628774703049">
        <time>2024-03-12T04:14:34Z</time>
      </trkpt>
      <trkpt lat="40.7853744770008" lon="-3.98614308847168">
        <time>2024-03-12T04:14:34Z</time>
      </trkpt>
      <trkpt lat="40.7853704898852" lon="-3.98608258548369">
        <time>2024-03-12T04:14:34Z</time>
      </trkpt>
      <trkpt lat="40.7853378319486" lon="-3.98589840011742">
        <time>2024-03-12T04:14:34Z</time>
      </trkpt>
      <trkpt lat="40.7853300393123" lon="-3.98586154441612">
        <time>2024-03-12T04:14:34Z</time>
      </trkpt>
      <trkpt lat="40.7853271206613" lon="-3.98583412369078">
        <time>2024-03-12T04:14:34Z</time>
      </trkpt>
      <trkpt lat="40.7853242101032" lon="-3.98580575494685">
        <time>2024-03-12T04:14:34Z</time>
      </trkpt>
      <trkpt lat="40.7853236434764" lon="-3.9857666357671">
        <time>2024-03-12T04:14:34Z</time>
      </trkpt>
      <trkpt lat="40.7853296957284" lon="-3.98569087400841">
        <time>2024-03-12T04:14:34Z</time>
      </trkpt>
      <trkpt lat="40.7853455243021" lon="-3.98563066407111">
        <time>2024-03-12T04:14:34Z</time>
      </trkpt>
      <trkpt lat="40.7853778695296" lon="-3.98553514299456">
        <time>2024-03-12T04:14:34Z</time>
      </trkpt>
      <trkpt lat="40.7854170510728" lon="-3.98544078954367">
        <time>2024-03-12T04:14:34Z</time>
      </trkpt>
      <trkpt lat="40.7854597241045" lon="-3.98533842837867">
        <time>2024-03-12T04:14:34Z</time>
      </trkpt>
      <trkpt lat="40.7854709274476" lon="-3.9852923720188">
        <time>2024-03-12T04:14:34Z</time>
      </trkpt>
      <trkpt lat="40.7854767466654" lon="-3.98524386571021">
        <time>2024-03-12T04:14:34Z</time>
      </trkpt>
      <trkpt lat="40.7854770299819" lon="-3.98521068489878">
        <time>2024-03-12T04:14:34Z</time>
      </trkpt>
      <trkpt lat="40.785472931083" lon="-3.98516321718192">
        <time>2024-03-12T04:14:34Z</time>
      </trkpt>
      <trkpt lat="40.7854669700122" lon="-3.98512283302208">
        <time>2024-03-12T04:14:34Z</time>
      </trkpt>
      <trkpt lat="40.7854610291611" lon="-3.98508007881173">
        <time>2024-03-12T04:14:34Z</time>
      </trkpt>
      <trkpt lat="40.785435261843" lon="-3.9849327359946">
        <time>2024-03-12T04:14:34Z</time>
      </trkpt>
      <trkpt lat="40.7854219021936" lon="-3.98480928013836">
        <time>2024-03-12T04:14:34Z</time>
      </trkpt>
      <trkpt lat="40.7854197360536" lon="-3.98474643372836">
        <time>2024-03-12T04:14:34Z</time>
      </trkpt>
      <trkpt lat="40.7854214357062" lon="-3.98465282980828">
        <time>2024-03-12T04:14:34Z</time>
      </trkpt>
      <trkpt lat="40.7854245921255" lon="-3.98449406262888">
        <time>2024-03-12T04:14:34Z</time>
      </trkpt>
      <trkpt lat="40.7854274890792" lon="-3.98442903915738">
        <time>2024-03-12T04:14:34Z</time>
      </trkpt>
      <trkpt lat="40.7854290341861" lon="-3.98439575848088">
        <time>2024-03-12T04:14:34Z</time>
      </trkpt>
      <trkpt lat="40.7854370689515" lon="-3.98429869254539">
        <time>2024-03-12T04:14:34Z</time>
      </trkpt>
      <trkpt lat="40.7854552845124" lon="-3.9841697770849">
        <time>2024-03-12T04:14:34Z</time>
      </trkpt>
      <trkpt lat="40.7854730539752" lon="-3.98398752193471">
        <time>2024-03-12T04:14:34Z</time>
      </trkpt>
      <trkpt lat="40.7854876763967" lon="-3.98385736810822">
        <time>2024-03-12T04:14:34Z</time>
      </trkpt>
      <trkpt lat="40.7855031993965" lon="-3.98372722751376">
        <time>2024-03-12T04:14:34Z</time>
      </trkpt>
      <trkpt lat="40.7855042213567" lon="-3.98371302044573">
        <time>2024-03-12T04:14:34Z</time>
      </trkpt>
      <trkpt lat="40.7855121545301" lon="-3.98362780460898">
        <time>2024-03-12T04:14:34Z</time>
      </trkpt>
      <trkpt lat="40.7855141984243" lon="-3.9835993904651">
        <time>2024-03-12T04:14:34Z</time>
      </trkpt>
      <trkpt lat="40.7855254296175" lon="-3.98344429767065">
        <time>2024-03-12T04:14:34Z</time>
      </trkpt>
      <trkpt lat="40.785529161943" lon="-3.98332346441846">
        <time>2024-03-12T04:14:34Z</time>
      </trkpt>
      <trkpt lat="40.7855269646995" lon="-3.98326417303115">
        <time>2024-03-12T04:14:34Z</time>
      </trkpt>
      <trkpt lat="40.7855203950713" lon="-3.98318940982629">
        <time>2024-03-12T04:14:34Z</time>
      </trkpt>
      <trkpt lat="40.7854951928818" lon="-3.98308118683566">
        <time>2024-03-12T04:14:34Z</time>
      </trkpt>
      <trkpt lat="40.7854707095971" lon="-3.98299430774088">
        <time>2024-03-12T04:14:34Z</time>
      </trkpt>
      <trkpt lat="40.7854455274114" lon="-3.9828837148429">
        <time>2024-03-12T04:14:34Z</time>
      </trkpt>
      <trkpt lat="40.7854420658327" lon="-3.98286707131191">
        <time>2024-03-12T04:14:34Z</time>
      </trkpt>
      <trkpt lat="40.7854085393642" lon="-3.98267848933661">
        <time>2024-03-12T04:14:34Z</time>
      </trkpt>
      <trkpt lat="40.7853813752337" lon="-3.98252555662934">
        <time>2024-03-12T04:14:34Z</time>
      </trkpt>
      <trkpt lat="40.7853732979117" lon="-3.98247968975301">
        <time>2024-03-12T04:14:34Z</time>
      </trkpt>
      <trkpt lat="40.7853466265339" lon="-3.98233233479661">
        <time>2024-03-12T04:14:34Z</time>
      </trkpt>
      <trkpt lat="40.7853178845989" lon="-3.98211256724898">
        <time>2024-03-12T04:14:34Z</time>
      </trkpt>
      <trkpt lat="40.7853276116131" lon="-3.98202627917714">
        <time>2024-03-12T04:14:34Z</time>
      </trkpt>
      <trkpt lat="40.785442537253" lon="-3.98148621753926">
        <time>2024-03-12T04:14:34Z</time>
      </trkpt>
      <trkpt lat="40.7855824733037" lon="-3.98072627928339">
        <time>2024-03-12T04:14:34Z</time>
      </trkpt>
      <trkpt lat="40.7856919154226" lon="-3.98018853147407">
        <time>2024-03-12T04:14:34Z</time>
      </trkpt>
      <trkpt lat="40.7858426409751" lon="-3.97956045012649">
        <time>2024-03-12T04:14:34Z</time>
      </trkpt>
      <trkpt lat="40.7859253639231" lon="-3.97926494805499">
        <time>2024-03-12T04:14:34Z</time>
      </trkpt>
      <trkpt lat="40.7859707520953" lon="-3.97912860713034">
        <time>2024-03-12T04:14:34Z</time>
      </trkpt>
      <trkpt lat="40.7859822137153" lon="-3.97909428651544">
        <time>2024-03-12T04:14:34Z</time>
      </trkpt>
      <trkpt lat="40.7859978478232" lon="-3.97905659012545">
        <time>2024-03-12T04:14:34Z</time>
      </trkpt>
      <trkpt lat="40.7860307063085" lon="-3.97900610960998">
        <time>2024-03-12T04:14:34Z</time>
      </trkpt>
      <trkpt lat="40.786068008075" lon="-3.97896280543378">
        <time>2024-03-12T04:14:34Z</time>
      </trkpt>
      <trkpt lat="40.786272484959" lon="-3.9788050961844">
        <time>2024-03-12T04:14:34Z</time>
      </trkpt>
      <trkpt lat="40.7863500136948" lon="-3.97874531559128">
        <time>2024-03-12T04:14:34Z</time>
      </trkpt>
      <trkpt lat="40.7864723554812" lon="-3.97865940735645">
        <time>2024-03-12T04:14:34Z</time>
      </trkpt>
      <trkpt lat="40.786583168675" lon="-3.97855199599404">
        <time>2024-03-12T04:14:34Z</time>
      </trkpt>
      <trkpt lat="40.786652018268" lon="-3.97846399819801">
        <time>2024-03-12T04:14:34Z</time>
      </trkpt>
      <trkpt lat="40.7867124886734" lon="-3.97838678108507">
        <time>2024-03-12T04:14:34Z</time>
      </trkpt>
      <trkpt lat="40.7868565616351" lon="-3.9781814851231">
        <time>2024-03-12T04:14:34Z</time>
      </trkpt>
      <trkpt lat="40.7869451174221" lon="-3.9780429304456">
        <time>2024-03-12T04:14:34Z</time>
      </trkpt>
      <trkpt lat="40.7870484863912" lon="-3.97785718444264">
        <time>2024-03-12T04:14:34Z</time>
      </trkpt>
      <trkpt lat="40.7870986288739" lon="-3.9777868075545">
        <time>2024-03-12T04:14:34Z</time>
      </trkpt>
      <trkpt lat="40.7872622657442" lon="-3.97761142630234">
        <time>2024-03-12T04:14:34Z</time>
      </trkpt>
      <trkpt lat="40.7873811744749" lon="-3.97750531587597">
        <time>2024-03-12T04:14:34Z</time>
      </trkpt>
      <trkpt lat="40.7874308985083" lon="-3.97743113955585">
        <time>2024-03-12T04:14:34Z</time>
      </trkpt>
      <trkpt lat="40.7874441276831" lon="-3.97741142194843">
        <time>2024-03-12T04:14:34Z</time>
      </trkpt>
      <trkpt lat="40.7875229150967" lon="-3.97725612880613">
        <time>2024-03-12T04:14:34Z</time>
      </trkpt>
      <trkpt lat="40.7875389645953" lon="-3.977233133881">
        <time>2024-03-12T04:14:34Z</time>
      </trkpt>
      <trkpt lat="40.7875630388348" lon="-3.97719864147254">
        <time>2024-03-12T04:14:34Z</time>
      </trkpt>
      <trkpt lat="40.7875948896338" lon="-3.97706494188787">
        <time>2024-03-12T04:14:34Z</time>
      </trkpt>
      <trkpt lat="40.7876050667937" lon="-3.97702266030435">
        <time>2024-03-12T04:14:34Z</time>
      </trkpt>
      <trkpt lat="40.787650115466" lon="-3.97691546580309">
        <time>2024-03-12T04:14:34Z</time>
      </trkpt>
      <trkpt lat="40.7877133712978" lon="-3.97667934912737">
        <time>2024-03-12T04:14:34Z</time>
      </trkpt>
      <trkpt lat="40.7877348737975" lon="-3.97661874392721">
        <time>2024-03-12T04:14:34Z</time>
      </trkpt>
      <trkpt lat="40.7877355203546" lon="-3.97661685704959">
        <time>2024-03-12T04:14:34Z</time>
      </trkpt>
      <trkpt lat="40.7877603314365" lon="-3.97655914480871">
        <time>2024-03-12T04:14:34Z</time>
      </trkpt>
      <trkpt lat="40.7878287083011" lon="-3.97646295846717">
        <time>2024-03-12T04:14:34Z</time>
      </trkpt>
      <trkpt lat="40.7878389873495" lon="-3.97641925587025">
        <time>2024-03-12T04:14:34Z</time>
      </trkpt>
      <trkpt lat="40.7878245875465" lon="-3.97631118984635">
        <time>2024-03-12T04:14:34Z</time>
      </trkpt>
      <trkpt lat="40.7878097565019" lon="-3.97625408203395">
        <time>2024-03-12T04:14:34Z</time>
      </trkpt>
      <trkpt lat="40.7878002051291" lon="-3.97623308226643">
        <time>2024-03-12T04:14:34Z</time>
      </trkpt>
      <trkpt lat="40.7877602382491" lon="-3.97614431658352">
        <time>2024-03-12T04:14:34Z</time>
      </trkpt>
      <trkpt lat="40.7877400528888" lon="-3.97608120436097">
        <time>2024-03-12T04:14:34Z</time>
      </trkpt>
      <trkpt lat="40.7877288446822" lon="-3.97602177928154">
        <time>2024-03-12T04:14:34Z</time>
      </trkpt>
      <trkpt lat="40.7877347001236" lon="-3.97596853015768">
        <time>2024-03-12T04:14:34Z</time>
      </trkpt>
      <trkpt lat="40.7877549671599" lon="-3.97591549202374">
        <time>2024-03-12T04:14:34Z</time>
      </trkpt>
      <trkpt lat="40.7878497952858" lon="-3.97578057996105">
        <time>2024-03-12T04:14:34Z</time>
      </trkpt>
      <trkpt lat="40.7879179521804" lon="-3.97560379434416">
        <time>2024-03-12T04:14:34Z</time>
      </trkpt>
      <trkpt lat="40.7879635906499" lon="-3.97542667883699">
        <time>2024-03-12T04:14:34Z</time>
      </trkpt>
      <trkpt lat="40.7879730505516" lon="-3.97539457919322">
        <time>2024-03-12T04:14:34Z</time>
      </trkpt>
      <trkpt lat="40.7880322077547" lon="-3.97519537896237">
        <time>2024-03-12T04:14:34Z</time>
      </trkpt>
      <trkpt lat="40.7881376039779" lon="-3.97498239496962">
        <time>2024-03-12T04:14:34Z</time>
      </trkpt>
      <trkpt lat="40.7881505345823" lon="-3.97494465685594">
        <time>2024-03-12T04:14:34Z</time>
      </trkpt>
      <trkpt lat="40.788177316506" lon="-3.97486682359627">
        <time>2024-03-12T04:14:34Z</time>
      </trkpt>
      <trkpt lat="40.7882035280342" lon="-3.97474986942267">
        <time>2024-03-12T04:14:34Z</time>
      </trkpt>
      <trkpt lat="40.7882892075549" lon="-3.97452474361893">
        <time>2024-03-12T04:14:34Z</time>
      </trkpt>
      <trkpt lat="40.7883003895918" lon="-3.97450203217887">
        <time>2024-03-12T04:14:34Z</time>
      </trkpt>
      <trkpt lat="40.7883652789459" lon="-3.97437059062202">
        <time>2024-03-12T04:14:34Z</time>
      </trkpt>
      <trkpt lat="40.7883837838315" lon="-3.9743127848192">
        <time>2024-03-12T04:14:34Z</time>
      </trkpt>
      <trkpt lat="40.7883871475303" lon="-3.97429849269381">
        <time>2024-03-12T04:14:34Z</time>
      </trkpt>
      <trkpt lat="40.7884295704153" lon="-3.97411789087636">
        <time>2024-03-12T04:14:34Z</time>
      </trkpt>
      <trkpt lat="40.7884599342866" lon="-3.97393580887079">
        <time>2024-03-12T04:14:34Z</time>
      </trkpt>
      <trkpt lat="40.7884870256024" lon="-3.97382123715127">
        <time>2024-03-12T04:14:34Z</time>
      </trkpt>
      <trkpt lat="40.7885049878393" lon="-3.97377432730543">
        <time>2024-03-12T04:14:34Z</time>
      </trkpt>
      <trkpt lat="40.7885091331221" lon="-3.97376348372067">
        <time>2024-03-12T04:14:34Z</time>
      </trkpt>
      <trkpt lat="40.7886576797838" lon="-3.97345405538793">
        <time>2024-03-12T04:14:34Z</time>
      </trkpt>
      <trkpt lat="40.7886622644024" lon="-3.97344452193401">
        <time>2024-03-12T04:14:34Z</time>
      </trkpt>
      <trkpt lat="40.7886897161112" lon="-3.97339395768828">
        <time>2024-03-12T04:14:34Z</time>
      </trkpt>
      <trkpt lat="40.7887225321703" lon="-3.97334821268334">
        <time>2024-03-12T04:14:34Z</time>
      </trkpt>
      <trkpt lat="40.788758633499" lon="-3.97326541767164">
        <time>2024-03-12T04:14:34Z</time>
      </trkpt>
      <trkpt lat="40.7887702996411" lon="-3.97323868312089">
        <time>2024-03-12T04:14:34Z</time>
      </trkpt>
      <trkpt lat="40.7888022049174" lon="-3.97319410992492">
        <time>2024-03-12T04:14:34Z</time>
      </trkpt>
      <trkpt lat="40.7888793564103" lon="-3.97312530724921">
        <time>2024-03-12T04:14:34Z</time>
      </trkpt>
      <trkpt lat="40.7889547963563" lon="-3.9730458122603">
        <time>2024-03-12T04:14:34Z</time>
      </trkpt>
      <trkpt lat="40.7889669520438" lon="-3.97303579664068">
        <time>2024-03-12T04:14:34Z</time>
      </trkpt>
      <trkpt lat="40.7890727203058" lon="-3.97294915860093">
        <time>2024-03-12T04:14:34Z</time>
      </trkpt>
      <trkpt lat="40.7891046454577" lon="-3.97290221486908">
        <time>2024-03-12T04:14:34Z</time>
      </trkpt>
      <trkpt lat="40.789122109001" lon="-3.97286098623459">
        <time>2024-03-12T04:14:34Z</time>
      </trkpt>
      <trkpt lat="40.7892248103631" lon="-3.97275344263303">
        <time>2024-03-12T04:14:34Z</time>
      </trkpt>
      <trkpt lat="40.7892364575607" lon="-3.97273962671202">
        <time>2024-03-12T04:14:34Z</time>
      </trkpt>
      <trkpt lat="40.7893631194811" lon="-3.97258952639793">
        <time>2024-03-12T04:14:34Z</time>
      </trkpt>
      <trkpt lat="40.7894548482372" lon="-3.97251192724987">
        <time>2024-03-12T04:14:34Z</time>
      </trkpt>
      <trkpt lat="40.7894828844635" lon="-3.97248815721105">
        <time>2024-03-12T04:14:34Z</time>
      </trkpt>
      <trkpt lat="40.7894958126241" lon="-3.97247198937911">
        <time>2024-03-12T04:14:34Z</time>
      </trkpt>
      <trkpt lat="40.789497359841" lon="-3.97247011555218">
        <time>2024-03-12T04:14:34Z</time>
      </trkpt>
      <trkpt lat="40.7895520788166" lon="-3.9724014581635">
        <time>2024-03-12T04:14:34Z</time>
      </trkpt>
      <trkpt lat="40.7895831429712" lon="-3.97234976026545">
        <time>2024-03-12T04:14:34Z</time>
      </trkpt>
      <trkpt lat="40.7896070412337" lon="-3.97229321677532">
        <time>2024-03-12T04:14:34Z</time>
      </trkpt>
      <trkpt lat="40.7896210514448" lon="-3.97223415850465">
        <time>2024-03-12T04:14:34Z</time>
      </trkpt>
      <trkpt lat="40.7896315018213" lon="-3.97212716406073">
        <time>2024-03-12T04:14:34Z</time>
      </trkpt>
      <trkpt lat="40.7896328786613" lon="-3.97211343520576">
        <time>2024-03-12T04:14:34Z</time>
      </trkpt>
      <trkpt lat="40.7896865984153" lon="-3.97193880109751">
        <time>2024-03-12T04:14:34Z</time>
      </trkpt>
      <trkpt lat="40.7897325730974" lon="-3.97182805755212">
        <time>2024-03-12T04:14:34Z</time>
      </trkpt>
      <trkpt lat="40.7897504467281" lon="-3.97174878753488">
        <time>2024-03-12T04:14:34Z</time>
      </trkpt>
      <trkpt lat="40.7898345674672" lon="-3.97137642104674">
        <time>2024-03-12T04:14:34Z</time>
      </trkpt>
      <trkpt lat="40.7898579605887" lon="-3.97127281492229">
        <time>2024-03-12T04:14:34Z</time>
      </trkpt>
      <trkpt lat="40.789930192323" lon="-3.97103918633574">
        <time>2024-03-12T04:14:34Z</time>
      </trkpt>
      <trkpt lat="40.789957215934" lon="-3.9709644346227">
        <time>2024-03-12T04:14:34Z</time>
      </trkpt>
      <trkpt lat="40.7900344077071" lon="-3.97075150112242">
        <time>2024-03-12T04:14:34Z</time>
      </trkpt>
      <trkpt lat="40.7900899268748" lon="-3.97057689106304">
        <time>2024-03-12T04:14:34Z</time>
      </trkpt>
      <trkpt lat="40.7901985650278" lon="-3.9702987509282">
        <time>2024-03-12T04:14:34Z</time>
      </trkpt>
      <trkpt lat="40.7902513614072" lon="-3.97012647095805">
        <time>2024-03-12T04:14:34Z</time>
      </trkpt>
      <trkpt lat="40.7903582069939" lon="-3.96984711806449">
        <time>2024-03-12T04:14:34Z</time>
      </trkpt>
      <trkpt lat="40.7903829948109" lon="-3.9697917712284">
        <time>2024-03-12T04:14:34Z</time>
      </trkpt>
      <trkpt lat="40.7904424186095" lon="-3.9696883323176">
        <time>2024-03-12T04:14:34Z</time>
      </trkpt>
      <trkpt lat="40.7904901527773" lon="-3.96958235263245">
        <time>2024-03-12T04:14:34Z</time>
      </trkpt>
      <trkpt lat="40.7905228035055" lon="-3.96944889220637">
        <time>2024-03-12T04:14:34Z</time>
      </trkpt>
      <trkpt lat="40.7905248567992" lon="-3.96944038813448">
        <time>2024-03-12T04:14:34Z</time>
      </trkpt>
      <trkpt lat="40.7905358617626" lon="-3.96939574502346">
        <time>2024-03-12T04:14:34Z</time>
      </trkpt>
      <trkpt lat="40.7906241535148" lon="-3.96918012461454">
        <time>2024-03-12T04:14:34Z</time>
      </trkpt>
      <trkpt lat="40.7906549127467" lon="-3.96905730366393">
        <time>2024-03-12T04:14:34Z</time>
      </trkpt>
      <trkpt lat="40.7906974728858" lon="-3.96896665650799">
        <time>2024-03-12T04:14:34Z</time>
      </trkpt>
      <trkpt lat="40.790727374024" lon="-3.96890308648789">
        <time>2024-03-12T04:14:34Z</time>
      </trkpt>
      <trkpt lat="40.7908111612286" lon="-3.96868739933745">
        <time>2024-03-12T04:14:34Z</time>
      </trkpt>
      <trkpt lat="40.790824576975" lon="-3.96864528002305">
        <time>2024-03-12T04:14:34Z</time>
      </trkpt>
      <trkpt lat="40.790867597931" lon="-3.96851042830243">
        <time>2024-03-12T04:14:34Z</time>
      </trkpt>
      <trkpt lat="40.7909251665699" lon="-3.96826294947226">
        <time>2024-03-12T04:14:34Z</time>
      </trkpt>
      <trkpt lat="40.79093301612" lon="-3.96822928312966">
        <time>2024-03-12T04:14:34Z</time>
      </trkpt>
      <trkpt lat="40.7910001034074" lon="-3.96802828641304">
        <time>2024-03-12T04:14:34Z</time>
      </trkpt>
      <trkpt lat="40.7910123923066" lon="-3.96799160275838">
        <time>2024-03-12T04:14:34Z</time>
      </trkpt>
      <trkpt lat="40.7911257705956" lon="-3.96765236293763">
        <time>2024-03-12T04:14:34Z</time>
      </trkpt>
      <trkpt lat="40.7911880488896" lon="-3.96746611126443">
        <time>2024-03-12T04:14:34Z</time>
      </trkpt>
      <trkpt lat="40.7912178360348" lon="-3.96735157134114">
        <time>2024-03-12T04:14:34Z</time>
      </trkpt>
      <trkpt lat="40.7912262439836" lon="-3.96730499327633">
        <time>2024-03-12T04:14:34Z</time>
      </trkpt>
      <trkpt lat="40.7912395562548" lon="-3.96723217311584">
        <time>2024-03-12T04:14:34Z</time>
      </trkpt>
      <trkpt lat="40.7912817709265" lon="-3.96692461224765">
        <time>2024-03-12T04:14:34Z</time>
      </trkpt>
      <trkpt lat="40.7912837402258" lon="-3.96690460953927">
        <time>2024-03-12T04:14:34Z</time>
      </trkpt>
      <trkpt lat="40.7912994736431" lon="-3.96674707661914">
        <time>2024-03-12T04:14:34Z</time>
      </trkpt>
      <trkpt lat="40.7913230145545" lon="-3.96662533388719">
        <time>2024-03-12T04:14:34Z</time>
      </trkpt>
      <trkpt lat="40.7913251847973" lon="-3.96660284497625">
        <time>2024-03-12T04:14:34Z</time>
      </trkpt>
      <trkpt lat="40.7913274570223" lon="-3.96657893520257">
        <time>2024-03-12T04:14:34Z</time>
      </trkpt>
      <trkpt lat="40.7913407565195" lon="-3.96644305750109">
        <time>2024-03-12T04:14:34Z</time>
      </trkpt>
      <trkpt lat="40.7913614487706" lon="-3.96634948304607">
        <time>2024-03-12T04:14:34Z</time>
      </trkpt>
      <trkpt lat="40.7913810164032" lon="-3.96626110748002">
        <time>2024-03-12T04:14:34Z</time>
      </trkpt>
      <trkpt lat="40.791381877646" lon="-3.96621204918615">
        <time>2024-03-12T04:14:34Z</time>
      </trkpt>
      <trkpt lat="40.7913830884767" lon="-3.96615351368214">
        <time>2024-03-12T04:14:34Z</time>
      </trkpt>
      <trkpt lat="40.791387122193" lon="-3.96595148112396">
        <time>2024-03-12T04:14:34Z</time>
      </trkpt>
      <trkpt lat="40.7913919650017" lon="-3.96570655295557">
        <time>2024-03-12T04:14:34Z</time>
      </trkpt>
      <trkpt lat="40.7913919679774" lon="-3.96570619741328">
        <time>2024-03-12T04:14:34Z</time>
      </trkpt>
      <trkpt lat="40.7914160586867" lon="-3.96555091853429">
        <time>2024-03-12T04:14:34Z</time>
      </trkpt>
      <trkpt lat="40.7914405303031" lon="-3.96539315595974">
        <time>2024-03-12T04:14:34Z</time>
      </trkpt>
      <trkpt lat="40.7914476740951" lon="-3.96530377036235">
        <time>2024-03-12T04:14:34Z</time>
      </trkpt>
      <trkpt lat="40.7914622544907" lon="-3.96512227719136">
        <time>2024-03-12T04:14:34Z</time>
      </trkpt>
      <trkpt lat="40.7914656659039" lon="-3.96508060452121">
        <time>2024-03-12T04:14:34Z</time>
      </trkpt>
      <trkpt lat="40.7914819893263" lon="-3.96495994167743">
        <time>2024-03-12T04:14:34Z</time>
      </trkpt>
      <trkpt lat="40.7914963007219" lon="-3.96489673604903">
        <time>2024-03-12T04:14:34Z</time>
      </trkpt>
      <trkpt lat="40.7915362334629" lon="-3.96472129900371">
        <time>2024-03-12T04:14:34Z</time>
      </trkpt>
      <trkpt lat="40.7915442149509" lon="-3.96465017875566">
        <time>2024-03-12T04:14:34Z</time>
      </trkpt>
      <trkpt lat="40.7915644451376" lon="-3.9644716116238">
        <time>2024-03-12T04:14:34Z</time>
      </trkpt>
      <trkpt lat="40.7915683930738" lon="-3.96438727625272">
        <time>2024-03-12T04:14:34Z</time>
      </trkpt>
      <trkpt lat="40.7915812105678" lon="-3.96411472690783">
        <time>2024-03-12T04:14:34Z</time>
      </trkpt>
      <trkpt lat="40.7915819767458" lon="-3.96409849954271">
        <time>2024-03-12T04:14:34Z</time>
      </trkpt>
      <trkpt lat="40.791621332225" lon="-3.96391653435029">
        <time>2024-03-12T04:14:34Z</time>
      </trkpt>
      <trkpt lat="40.7916301931387" lon="-3.96385870186858">
        <time>2024-03-12T04:14:34Z</time>
      </trkpt>
      <trkpt lat="40.7916460975745" lon="-3.96375569317489">
        <time>2024-03-12T04:14:34Z</time>
      </trkpt>
      <trkpt lat="40.7916663689586" lon="-3.96370146298131">
        <time>2024-03-12T04:14:34Z</time>
      </trkpt>
      <trkpt lat="40.7916710056147" lon="-3.96365445579294">
        <time>2024-03-12T04:14:34Z</time>
      </trkpt>
      <trkpt lat="40.7916750910567" lon="-3.96359336119145">
        <time>2024-03-12T04:14:34Z</time>
      </trkpt>
      <trkpt lat="40.7917848871623" lon="-3.96328917976459">
        <time>2024-03-12T04:14:34Z</time>
      </trkpt>
      <trkpt lat="40.7918834085431" lon="-3.96305069243498">
        <time>2024-03-12T04:14:34Z</time>
      </trkpt>
      <trkpt lat="40.7920003527859" lon="-3.96274661242103">
        <time>2024-03-12T04:14:34Z</time>
      </trkpt>
      <trkpt lat="40.7921103698915" lon="-3.96253558162193">
        <time>2024-03-12T04:14:34Z</time>
      </trkpt>
      <trkpt lat="40.792127625658" lon="-3.96251098173286">
        <time>2024-03-12T04:14:34Z</time>
      </trkpt>
      <trkpt lat="40.7922769961106" lon="-3.96231519374589">
        <time>2024-03-12T04:14:34Z</time>
      </trkpt>
      <trkpt lat="40.7924875565238" lon="-3.96212740007229">
        <time>2024-03-12T04:14:34Z</time>
      </trkpt>
      <trkpt lat="40.7926401834247" lon="-3.96197314293288">
        <time>2024-03-12T04:14:34Z</time>
      </trkpt>
      <trkpt lat="40.7926769859011" lon="-3.96192412828304">
        <time>2024-03-12T04:14:34Z</time>
      </trkpt>
      <trkpt lat="40.7928815836251" lon="-3.96165185204567">
        <time>2024-03-12T04:14:34Z</time>
      </trkpt>
      <trkpt lat="40.7929685258019" lon="-3.96148834807599">
        <time>2024-03-12T04:14:34Z</time>
      </trkpt>
      <trkpt lat="40.7930186131866" lon="-3.9613801403462">
        <time>2024-03-12T04:14:34Z</time>
      </trkpt>
      <trkpt lat="40.7930923658301" lon="-3.96122106818245">
        <time>2024-03-12T04:14:34Z</time>
      </trkpt>
      <trkpt lat="40.7931515730792" lon="-3.96106700130205">
        <time>2024-03-12T04:14:34Z</time>
      </trkpt>
      <trkpt lat="40.7931816814062" lon="-3.96098884898588">
        <time>2024-03-12T04:14:34Z</time>
      </trkpt>
      <trkpt lat="40.7932704742954" lon="-3.96073279673116">
        <time>2024-03-12T04:14:34Z</time>
      </trkpt>
      <trkpt lat="40.7932822888248" lon="-3.9606987113403">
        <time>2024-03-12T04:14:34Z</time>
      </trkpt>
      <trkpt lat="40.7933070920414" lon="-3.96064098825499">
        <time>2024-03-12T04:14:34Z</time>
      </trkpt>
      <trkpt lat="40.7933949138035" lon="-3.96047986524384">
        <time>2024-03-12T04:14:34Z</time>
      </trkpt>
      <trkpt lat="40.793474687964" lon="-3.96031151391197">
        <time>2024-03-12T04:14:34Z</time>
      </trkpt>
      <trkpt lat="40.7935001639134" lon="-3.9602487033227">
        <time>2024-03-12T04:14:34Z</time>
      </trkpt>
      <trkpt lat="40.7935464243537" lon="-3.96013474911189">
        <time>2024-03-12T04:14:34Z</time>
      </trkpt>
      <trkpt lat="40.7936136075253" lon="-3.95996384496736">
        <time>2024-03-12T04:14:34Z</time>
      </trkpt>
      <trkpt lat="40.7936614652647" lon="-3.95982028023497">
        <time>2024-03-12T04:14:34Z</time>
      </trkpt>
      <trkpt lat="40.7937478492481" lon="-3.9595611080435">
        <time>2024-03-12T04:14:34Z</time>
      </trkpt>
      <trkpt lat="40.7937642021831" lon="-3.95951203388866">
        <time>2024-03-12T04:14:34Z</time>
      </trkpt>
      <trkpt lat="40.7938137187214" lon="-3.95940725261698">
        <time>2024-03-12T04:14:34Z</time>
      </trkpt>
      <trkpt lat="40.79383992163" lon="-3.95928945257894">
        <time>2024-03-12T04:14:34Z</time>
      </trkpt>
      <trkpt lat="40.793840854877" lon="-3.95928555442809">
        <time>2024-03-12T04:14:34Z</time>
      </trkpt>
      <trkpt lat="40.793890012359" lon="-3.9591155745757">
        <time>2024-03-12T04:14:34Z</time>
      </trkpt>
      <trkpt lat="40.7939484010071" lon="-3.95900546796455">
        <time>2024-03-12T04:14:34Z</time>
      </trkpt>
      <trkpt lat="40.7939980026789" lon="-3.95891206643406">
        <time>2024-03-12T04:14:34Z</time>
      </trkpt>
      <trkpt lat="40.7940308130871" lon="-3.95886631059346">
        <time>2024-03-12T04:14:34Z</time>
      </trkpt>
      <trkpt lat="40.7941743351682" lon="-3.95861471403728">
        <time>2024-03-12T04:14:34Z</time>
      </trkpt>
      <trkpt lat="40.7941758870873" lon="-3.9586122471583">
        <time>2024-03-12T04:14:34Z</time>
      </trkpt>
      <trkpt lat="40.7942939356574" lon="-3.95842322456062">
        <time>2024-03-12T04:14:34Z</time>
      </trkpt>
      <trkpt lat="40.7943800695775" lon="-3.95830225494749">
        <time>2024-03-12T04:14:34Z</time>
      </trkpt>
      <trkpt lat="40.7945145109321" lon="-3.95811346690924">
        <time>2024-03-12T04:14:34Z</time>
      </trkpt>
      <trkpt lat="40.7945518408372" lon="-3.95803328186547">
        <time>2024-03-12T04:14:34Z</time>
      </trkpt>
      <trkpt lat="40.7945622050775" lon="-3.95801102790755">
        <time>2024-03-12T04:14:34Z</time>
      </trkpt>
      <trkpt lat="40.794646823925" lon="-3.95774696459401">
        <time>2024-03-12T04:14:34Z</time>
      </trkpt>
      <trkpt lat="40.794670404443" lon="-3.9576735751248">
        <time>2024-03-12T04:14:34Z</time>
      </trkpt>
      <trkpt lat="40.7946835065131" lon="-3.9576144962253">
        <time>2024-03-12T04:14:34Z</time>
      </trkpt>
      <trkpt lat="40.7947102219923" lon="-3.95743470780455">
        <time>2024-03-12T04:14:34Z</time>
      </trkpt>
      <trkpt lat="40.7947106403098" lon="-3.95742772028373">
        <time>2024-03-12T04:14:34Z</time>
      </trkpt>
      <trkpt lat="40.7947193808234" lon="-3.95730800754314">
        <time>2024-03-12T04:14:34Z</time>
      </trkpt>
      <trkpt lat="40.794721622611" lon="-3.9572332445142">
        <time>2024-03-12T04:14:34Z</time>
      </trkpt>
      <trkpt lat="40.7947230761413" lon="-3.95718834083834">
        <time>2024-03-12T04:14:34Z</time>
      </trkpt>
      <trkpt lat="40.794715982236" lon="-3.95706614847947">
        <time>2024-03-12T04:14:34Z</time>
      </trkpt>
      <trkpt lat="40.7947321101576" lon="-3.95689201590946">
        <time>2024-03-12T04:14:34Z</time>
      </trkpt>
      <trkpt lat="40.7947387338026" lon="-3.95682110886849">
        <time>2024-03-12T04:14:34Z</time>
      </trkpt>
      <trkpt lat="40.7947393789366" lon="-3.95666726038116">
        <time>2024-03-12T04:14:34Z</time>
      </trkpt>
      <trkpt lat="40.7947409302013" lon="-3.95631713179584">
        <time>2024-03-12T04:14:34Z</time>
      </trkpt>
      <trkpt lat="40.7947424178259" lon="-3.95596368331039">
        <time>2024-03-12T04:14:34Z</time>
      </trkpt>
      <trkpt lat="40.7947427836396" lon="-3.95589778338355">
        <time>2024-03-12T04:14:34Z</time>
      </trkpt>
      <trkpt lat="40.7947214263854" lon="-3.95564855468893">
        <time>2024-03-12T04:14:34Z</time>
      </trkpt>
      <trkpt lat="40.7947198484607" lon="-3.95558890923392">
        <time>2024-03-12T04:14:34Z</time>
      </trkpt>
      <trkpt lat="40.794713248008" lon="-3.95533076511894">
        <time>2024-03-12T04:14:34Z</time>
      </trkpt>
      <trkpt lat="40.7947007512798" lon="-3.95517542442135">
        <time>2024-03-12T04:14:34Z</time>
      </trkpt>
      <trkpt lat="40.794693651744" lon="-3.95508630332505">
        <time>2024-03-12T04:14:34Z</time>
      </trkpt>
      <trkpt lat="40.7946659876167" lon="-3.95483698469992">
        <time>2024-03-12T04:14:34Z</time>
      </trkpt>
      <trkpt lat="40.7946690831067" lon="-3.95478949677385">
        <time>2024-03-12T04:14:34Z</time>
      </trkpt>
      <trkpt lat="40.7946783655375" lon="-3.95464750704827">
        <time>2024-03-12T04:14:34Z</time>
      </trkpt>
      <trkpt lat="40.7946730507888" lon="-3.95452771119976">
        <time>2024-03-12T04:14:34Z</time>
      </trkpt>
      <trkpt lat="40.7946827652221" lon="-3.95433345394954">
        <time>2024-03-12T04:14:34Z</time>
      </trkpt>
      <trkpt lat="40.7946816046342" lon="-3.95427772616779">
        <time>2024-03-12T04:14:34Z</time>
      </trkpt>
      <trkpt lat="40.7946788997581" lon="-3.9541472996148">
        <time>2024-03-12T04:14:34Z</time>
      </trkpt>
      <trkpt lat="40.7946841890146" lon="-3.95383444455022">
        <time>2024-03-12T04:14:34Z</time>
      </trkpt>
      <trkpt lat="40.7946659012526" lon="-3.95364926919216">
        <time>2024-03-12T04:14:34Z</time>
      </trkpt>
      <trkpt lat="40.7946475884537" lon="-3.95354339304258">
        <time>2024-03-12T04:14:34Z</time>
      </trkpt>
      <trkpt lat="40.7946315175605" lon="-3.95344963952485">
        <time>2024-03-12T04:14:34Z</time>
      </trkpt>
      <trkpt lat="40.7946266420275" lon="-3.9533855612509">
        <time>2024-03-12T04:14:34Z</time>
      </trkpt>
      <trkpt lat="40.7946285318153" lon="-3.95326586864744">
        <time>2024-03-12T04:14:34Z</time>
      </trkpt>
      <trkpt lat="40.7946033603549" lon="-3.9530414788432">
        <time>2024-03-12T04:14:34Z</time>
      </trkpt>
      <trkpt lat="40.7946015581967" lon="-3.95271429853793">
        <time>2024-03-12T04:14:34Z</time>
      </trkpt>
      <trkpt lat="40.7945923150818" lon="-3.95252451161868">
        <time>2024-03-12T04:14:34Z</time>
      </trkpt>
      <trkpt lat="40.7945682581094" lon="-3.95227406061289">
        <time>2024-03-12T04:14:34Z</time>
      </trkpt>
      <trkpt lat="40.7945521838518" lon="-3.9520277539873">
        <time>2024-03-12T04:14:34Z</time>
      </trkpt>
      <trkpt lat="40.7945442679458" lon="-3.95190626192784">
        <time>2024-03-12T04:14:34Z</time>
      </trkpt>
      <trkpt lat="40.7945427474671" lon="-3.95165376246581">
        <time>2024-03-12T04:14:34Z</time>
      </trkpt>
      <trkpt lat="40.7945378611593" lon="-3.95159086959145">
        <time>2024-03-12T04:14:34Z</time>
      </trkpt>
      <trkpt lat="40.7945239577269" lon="-3.95152903331688">
        <time>2024-03-12T04:14:34Z</time>
      </trkpt>
      <trkpt lat="40.7945128745562" lon="-3.95144198957096">
        <time>2024-03-12T04:14:34Z</time>
      </trkpt>
      <trkpt lat="40.7945011235048" lon="-3.95134853547889">
        <time>2024-03-12T04:14:34Z</time>
      </trkpt>
      <trkpt lat="40.7944574940054" lon="-3.95117722367251">
        <time>2024-03-12T04:14:34Z</time>
      </trkpt>
      <trkpt lat="40.7944579922871" lon="-3.95111677844242">
        <time>2024-03-12T04:14:34Z</time>
      </trkpt>
      <trkpt lat="40.7944583721196" lon="-3.95111441318336">
        <time>2024-03-12T04:14:34Z</time>
      </trkpt>
      <trkpt lat="40.7944816047359" lon="-3.95098435731265">
        <time>2024-03-12T04:14:34Z</time>
      </trkpt>
      <trkpt lat="40.794561814445" lon="-3.95076147230844">
        <time>2024-03-12T04:14:34Z</time>
      </trkpt>
      <trkpt lat="40.7945624683963" lon="-3.95075863681773">
        <time>2024-03-12T04:14:34Z</time>
      </trkpt>
      <trkpt lat="40.7945749032241" lon="-3.95070357728047">
        <time>2024-03-12T04:14:34Z</time>
      </trkpt>
      <trkpt lat="40.794593559958" lon="-3.95051655932717">
        <time>2024-03-12T04:14:34Z</time>
      </trkpt>
      <trkpt lat="40.7945972677587" lon="-3.95039452192943">
        <time>2024-03-12T04:14:34Z</time>
      </trkpt>
      <trkpt lat="40.7946029501156" lon="-3.95034991554985">
        <time>2024-03-12T04:14:34Z</time>
      </trkpt>
      <trkpt lat="40.7946280824839" lon="-3.95015315139783">
        <time>2024-03-12T04:14:34Z</time>
      </trkpt>
      <trkpt lat="40.7946313019456" lon="-3.95009037411203">
        <time>2024-03-12T04:14:34Z</time>
      </trkpt>
      <trkpt lat="40.7946224845401" lon="-3.94997965589878">
        <time>2024-03-12T04:14:34Z</time>
      </trkpt>
      <trkpt lat="40.7946215080745" lon="-3.9499669588088">
        <time>2024-03-12T04:14:34Z</time>
      </trkpt>
      <trkpt lat="40.7946374321531" lon="-3.94978345759616">
        <time>2024-03-12T04:14:34Z</time>
      </trkpt>
      <trkpt lat="40.7946439031499" lon="-3.94963206293337">
        <time>2024-03-12T04:14:34Z</time>
      </trkpt>
      <trkpt lat="40.7946508064141" lon="-3.94947190285672">
        <time>2024-03-12T04:14:34Z</time>
      </trkpt>
      <trkpt lat="40.7947007075356" lon="-3.94930832509023">
        <time>2024-03-12T04:14:34Z</time>
      </trkpt>
      <trkpt lat="40.7947045019514" lon="-3.94929605155947">
        <time>2024-03-12T04:14:34Z</time>
      </trkpt>
      <trkpt lat="40.7947339262008" lon="-3.94911392757137">
        <time>2024-03-12T04:14:34Z</time>
      </trkpt>
      <trkpt lat="40.7948030525191" lon="-3.94886907127096">
        <time>2024-03-12T04:14:34Z</time>
      </trkpt>
      <trkpt lat="40.7948155788797" lon="-3.94882468060057">
        <time>2024-03-12T04:14:34Z</time>
      </trkpt>
      <trkpt lat="40.7948552264809" lon="-3.94871382246451">
        <time>2024-03-12T04:14:34Z</time>
      </trkpt>
      <trkpt lat="40.794882686977" lon="-3.94866087275495">
        <time>2024-03-12T04:14:34Z</time>
      </trkpt>
      <trkpt lat="40.7948967046738" lon="-3.94859943421046">
        <time>2024-03-12T04:14:34Z</time>
      </trkpt>
      <trkpt lat="40.7949091850189" lon="-3.94848392187963">
        <time>2024-03-12T04:14:34Z</time>
      </trkpt>
      <trkpt lat="40.7949103477382" lon="-3.94847398150345">
        <time>2024-03-12T04:14:34Z</time>
      </trkpt>
      <trkpt lat="40.7949167697782" lon="-3.94845984872696">
        <time>2024-03-12T04:14:34Z</time>
      </trkpt>
      <trkpt lat="40.7949360995823" lon="-3.94830010176718">
        <time>2024-03-12T04:14:34Z</time>
      </trkpt>
      <trkpt lat="40.7949695574997" lon="-3.94815312042848">
        <time>2024-03-12T04:14:34Z</time>
      </trkpt>
      <trkpt lat="40.7949893698276" lon="-3.94806616058436">
        <time>2024-03-12T04:14:34Z</time>
      </trkpt>
      <trkpt lat="40.7950379558684" lon="-3.94796372630973">
        <time>2024-03-12T04:14:34Z</time>
      </trkpt>
      <trkpt lat="40.7950561189941" lon="-3.94789108560689">
        <time>2024-03-12T04:14:34Z</time>
      </trkpt>
      <trkpt lat="40.7950882506483" lon="-3.94776293202229">
        <time>2024-03-12T04:14:34Z</time>
      </trkpt>
      <trkpt lat="40.7951341536947" lon="-3.94765808851603">
        <time>2024-03-12T04:14:34Z</time>
      </trkpt>
      <trkpt lat="40.7951437938751" lon="-3.947625035738">
        <time>2024-03-12T04:14:34Z</time>
      </trkpt>
      <trkpt lat="40.7951675242586" lon="-3.94754358384191">
        <time>2024-03-12T04:14:34Z</time>
      </trkpt>
      <trkpt lat="40.7951791311438" lon="-3.94744654992908">
        <time>2024-03-12T04:14:34Z</time>
      </trkpt>
      <trkpt lat="40.7952383502665" lon="-3.94736560244487">
        <time>2024-03-12T04:14:34Z</time>
      </trkpt>
      <trkpt lat="40.7952577424822" lon="-3.94730779576229">
        <time>2024-03-12T04:14:34Z</time>
      </trkpt>
      <trkpt lat="40.7952752784383" lon="-3.9472127425199">
        <time>2024-03-12T04:14:34Z</time>
      </trkpt>
      <trkpt lat="40.7952794226374" lon="-3.9471907538254">
        <time>2024-03-12T04:14:34Z</time>
      </trkpt>
      <trkpt lat="40.7953014877766" lon="-3.94713654111176">
        <time>2024-03-12T04:14:34Z</time>
      </trkpt>
      <trkpt lat="40.7953403925946" lon="-3.94689646680525">
        <time>2024-03-12T04:14:34Z</time>
      </trkpt>
      <trkpt lat="40.7953854335517" lon="-3.94674289189327">
        <time>2024-03-12T04:14:34Z</time>
      </trkpt>
      <trkpt lat="40.7953913625949" lon="-3.94672294359636">
        <time>2024-03-12T04:14:34Z</time>
      </trkpt>
      <trkpt lat="40.7954008658802" lon="-3.94666262539805">
        <time>2024-03-12T04:14:34Z</time>
      </trkpt>
      <trkpt lat="40.7953959476861" lon="-3.94660328768294">
        <time>2024-03-12T04:14:34Z</time>
      </trkpt>
      <trkpt lat="40.7953810144456" lon="-3.94655684664572">
        <time>2024-03-12T04:14:34Z</time>
      </trkpt>
      <trkpt lat="40.7953815200389" lon="-3.9464952152785">
        <time>2024-03-12T04:14:34Z</time>
      </trkpt>
      <trkpt lat="40.7953856285305" lon="-3.94643363507999">
        <time>2024-03-12T04:14:34Z</time>
      </trkpt>
      <trkpt lat="40.795410832985" lon="-3.94629317260444">
        <time>2024-03-12T04:14:34Z</time>
      </trkpt>
      <trkpt lat="40.7954177213306" lon="-3.94625510191398">
        <time>2024-03-12T04:14:34Z</time>
      </trkpt>
      <trkpt lat="40.7954163475407" lon="-3.94620292668345">
        <time>2024-03-12T04:14:34Z</time>
      </trkpt>
      <trkpt lat="40.795432126528" lon="-3.94614625356279">
        <time>2024-03-12T04:14:34Z</time>
      </trkpt>
      <trkpt lat="40.7954531932625" lon="-3.9461038797829">
        <time>2024-03-12T04:14:34Z</time>
      </trkpt>
      <trkpt lat="40.7954655180152" lon="-3.94591913887996">
        <time>2024-03-12T04:14:34Z</time>
      </trkpt>
      <trkpt lat="40.7954813065804" lon="-3.9458612804272">
        <time>2024-03-12T04:14:34Z</time>
      </trkpt>
      <trkpt lat="40.7955307914185" lon="-3.94575885654163">
        <time>2024-03-12T04:14:34Z</time>
      </trkpt>
      <trkpt lat="40.7955476228971" lon="-3.94570563569747">
        <time>2024-03-12T04:14:34Z</time>
      </trkpt>
      <trkpt lat="40.7955483619412" lon="-3.94570339400222">
        <time>2024-03-12T04:14:34Z</time>
      </trkpt>
      <trkpt lat="40.7955530659918" lon="-3.94566801850182">
        <time>2024-03-12T04:14:34Z</time>
      </trkpt>
      <trkpt lat="40.7955617891521" lon="-3.94560389578241">
        <time>2024-03-12T04:14:34Z</time>
      </trkpt>
      <trkpt lat="40.7955656242335" lon="-3.94557562009763">
        <time>2024-03-12T04:14:34Z</time>
      </trkpt>
      <trkpt lat="40.7955769794319" lon="-3.94539916254825">
        <time>2024-03-12T04:14:34Z</time>
      </trkpt>
      <trkpt lat="40.7955959845941" lon="-3.9452785253947">
        <time>2024-03-12T04:14:34Z</time>
      </trkpt>
      <trkpt lat="40.7955939060091" lon="-3.94509239430254">
        <time>2024-03-12T04:14:34Z</time>
      </trkpt>
      <trkpt lat="40.7955907445811" lon="-3.94504943941569">
        <time>2024-03-12T04:14:34Z</time>
      </trkpt>
      <trkpt lat="40.7955866129205" lon="-3.94499295766496">
        <time>2024-03-12T04:14:34Z</time>
      </trkpt>
      <trkpt lat="40.7955801272989" lon="-3.94490491195723">
        <time>2024-03-12T04:14:34Z</time>
      </trkpt>
      <trkpt lat="40.7955752761411" lon="-3.9448372776363">
        <time>2024-03-12T04:14:34Z</time>
      </trkpt>
      <trkpt lat="40.7955576858943" lon="-3.94470817960776">
        <time>2024-03-12T04:14:34Z</time>
      </trkpt>
      <trkpt lat="40.7955344960811" lon="-3.9445368034756">
        <time>2024-03-12T04:14:34Z</time>
      </trkpt>
      <trkpt lat="40.795532308099" lon="-3.94447394840998">
        <time>2024-03-12T04:14:34Z</time>
      </trkpt>
      <trkpt lat="40.7955371797568" lon="-3.94440704463991">
        <time>2024-03-12T04:14:34Z</time>
      </trkpt>
      <trkpt lat="40.7955455018805" lon="-3.94429277536718">
        <time>2024-03-12T04:14:34Z</time>
      </trkpt>
      <trkpt lat="40.7955306247357" lon="-3.94417331738937">
        <time>2024-03-12T04:14:34Z</time>
      </trkpt>
      <trkpt lat="40.7955302877195" lon="-3.94417046775161">
        <time>2024-03-12T04:14:34Z</time>
      </trkpt>
      <trkpt lat="40.7955215531154" lon="-3.94402691551725">
        <time>2024-03-12T04:14:34Z</time>
      </trkpt>
      <trkpt lat="40.7955214911534" lon="-3.94392438105765">
        <time>2024-03-12T04:14:34Z</time>
      </trkpt>
      <trkpt lat="40.7955215444826" lon="-3.94391786233673">
        <time>2024-03-12T04:14:34Z</time>
      </trkpt>
      <trkpt lat="40.7955114055695" lon="-3.94372569053865">
        <time>2024-03-12T04:14:34Z</time>
      </trkpt>
      <trkpt lat="40.7955036103784" lon="-3.94365445860308">
        <time>2024-03-12T04:14:34Z</time>
      </trkpt>
      <trkpt lat="40.795498001965" lon="-3.94360222339093">
        <time>2024-03-12T04:14:34Z</time>
      </trkpt>
      <trkpt lat="40.7954846569098" lon="-3.9433614066099">
        <time>2024-03-12T04:14:34Z</time>
      </trkpt>
      <trkpt lat="40.7954853680333" lon="-3.94330748285518">
        <time>2024-03-12T04:14:34Z</time>
      </trkpt>
      <trkpt lat="40.7954867688561" lon="-3.94321326666428">
        <time>2024-03-12T04:14:34Z</time>
      </trkpt>
      <trkpt lat="40.7954755631272" lon="-3.9431514694124">
        <time>2024-03-12T04:14:34Z</time>
      </trkpt>
      <trkpt lat="40.7954724639679" lon="-3.94308978690746">
        <time>2024-03-12T04:14:34Z</time>
      </trkpt>
      <trkpt lat="40.7954978832294" lon="-3.94297765608309">
        <time>2024-03-12T04:14:34Z</time>
      </trkpt>
      <trkpt lat="40.7954995636377" lon="-3.94297044917206">
        <time>2024-03-12T04:14:34Z</time>
      </trkpt>
      <trkpt lat="40.7954978106501" lon="-3.94285425918835">
        <time>2024-03-12T04:14:34Z</time>
      </trkpt>
      <trkpt lat="40.7955167937899" lon="-3.94273599184575">
        <time>2024-03-12T04:14:34Z</time>
      </trkpt>
      <trkpt lat="40.7955321929543" lon="-3.94250506457819">
        <time>2024-03-12T04:14:34Z</time>
      </trkpt>
      <trkpt lat="40.7955970255467" lon="-3.9422878751627">
        <time>2024-03-12T04:14:34Z</time>
      </trkpt>
      <trkpt lat="40.795601589116" lon="-3.94225854274413">
        <time>2024-03-12T04:14:34Z</time>
      </trkpt>
      <trkpt lat="40.7956255283782" lon="-3.94210691792739">
        <time>2024-03-12T04:14:34Z</time>
      </trkpt>
      <trkpt lat="40.7956256437256" lon="-3.94198245662395">
        <time>2024-03-12T04:14:34Z</time>
      </trkpt>
      <trkpt lat="40.7956171642334" lon="-3.94186249674961">
        <time>2024-03-12T04:14:34Z</time>
      </trkpt>
      <trkpt lat="40.795603849014" lon="-3.94167276934487">
        <time>2024-03-12T04:14:34Z</time>
      </trkpt>
      <trkpt lat="40.7956031786275" lon="-3.94156726275151">
        <time>2024-03-12T04:14:34Z</time>
      </trkpt>
      <trkpt lat="40.7956022965101" lon="-3.94142145089814">
        <time>2024-03-12T04:14:34Z</time>
      </trkpt>
      <trkpt lat="40.7956306313761" lon="-3.9412388313928">
        <time>2024-03-12T04:14:34Z</time>
      </trkpt>
      <trkpt lat="40.7956308173242" lon="-3.94123812280238">
        <time>2024-03-12T04:14:34Z</time>
      </trkpt>
      <trkpt lat="40.7956350083594" lon="-3.94105563632948">
        <time>2024-03-12T04:14:34Z</time>
      </trkpt>
      <trkpt lat="40.7956637920496" lon="-3.94087314144949">
        <time>2024-03-12T04:14:34Z</time>
      </trkpt>
      <trkpt lat="40.7956891530742" lon="-3.9407126458371">
        <time>2024-03-12T04:14:34Z</time>
      </trkpt>
      <trkpt lat="40.7957096593686" lon="-3.94063932428594">
        <time>2024-03-12T04:14:34Z</time>
      </trkpt>
      <trkpt lat="40.7957559576814" lon="-3.94047414543787">
        <time>2024-03-12T04:14:34Z</time>
      </trkpt>
      <trkpt lat="40.7957999244743" lon="-3.94035184365396">
        <time>2024-03-12T04:14:34Z</time>
      </trkpt>
      <trkpt lat="40.7958785468333" lon="-3.94013330482742">
        <time>2024-03-12T04:14:34Z</time>
      </trkpt>
      <trkpt lat="40.7958804844699" lon="-3.94011661850449">
        <time>2024-03-12T04:14:34Z</time>
      </trkpt>
      <trkpt lat="40.795888905098" lon="-3.94004502265476">
        <time>2024-03-12T04:14:34Z</time>
      </trkpt>
      <trkpt lat="40.7958930621511" lon="-3.94001023153295">
        <time>2024-03-12T04:14:34Z</time>
      </trkpt>
      <trkpt lat="40.7959133136376" lon="-3.93991284300606">
        <time>2024-03-12T04:14:34Z</time>
      </trkpt>
      <trkpt lat="40.7959144379668" lon="-3.93990752471516">
        <time>2024-03-12T04:14:34Z</time>
      </trkpt>
      <trkpt lat="40.7959174371424" lon="-3.93989322408211">
        <time>2024-03-12T04:14:34Z</time>
      </trkpt>
      <trkpt lat="40.79595838351" lon="-3.93980987760585">
        <time>2024-03-12T04:14:34Z</time>
      </trkpt>
      <trkpt lat="40.7959678174691" lon="-3.93979080770251">
        <time>2024-03-12T04:14:34Z</time>
      </trkpt>
      <trkpt lat="40.7960006010946" lon="-3.93974741143204">
        <time>2024-03-12T04:14:34Z</time>
      </trkpt>
      <trkpt lat="40.7960395933145" lon="-3.93971595635863">
        <time>2024-03-12T04:14:34Z</time>
      </trkpt>
      <trkpt lat="40.7960732583413" lon="-3.93967494317272">
        <time>2024-03-12T04:14:34Z</time>
      </trkpt>
      <trkpt lat="40.7960824780426" lon="-3.93964899505308">
        <time>2024-03-12T04:14:34Z</time>
      </trkpt>
      <trkpt lat="40.796111986839" lon="-3.93956524988103">
        <time>2024-03-12T04:14:34Z</time>
      </trkpt>
      <trkpt lat="40.7961203096538" lon="-3.93950562457177">
        <time>2024-03-12T04:14:34Z</time>
      </trkpt>
      <trkpt lat="40.7961205953158" lon="-3.93950373200694">
        <time>2024-03-12T04:14:34Z</time>
      </trkpt>
      <trkpt lat="40.7961305966455" lon="-3.93938177986291">
        <time>2024-03-12T04:14:34Z</time>
      </trkpt>
      <trkpt lat="40.7961298117066" lon="-3.93936754435308">
        <time>2024-03-12T04:14:34Z</time>
      </trkpt>
      <trkpt lat="40.7961274761777" lon="-3.93932246735674">
        <time>2024-03-12T04:14:34Z</time>
      </trkpt>
      <trkpt lat="40.7960936133865" lon="-3.93916646951493">
        <time>2024-03-12T04:14:34Z</time>
      </trkpt>
      <trkpt lat="40.7960762527664" lon="-3.93908585679162">
        <time>2024-03-12T04:14:34Z</time>
      </trkpt>
      <trkpt lat="40.7960658979298" lon="-3.93901885604">
        <time>2024-03-12T04:14:34Z</time>
      </trkpt>
      <trkpt lat="40.7960488761198" lon="-3.93890766564293">
        <time>2024-03-12T04:14:34Z</time>
      </trkpt>
      <trkpt lat="40.7960483896898" lon="-3.93890102072307">
        <time>2024-03-12T04:14:34Z</time>
      </trkpt>
      <trkpt lat="40.7960448739609" lon="-3.93884597007074">
        <time>2024-03-12T04:14:34Z</time>
      </trkpt>
      <trkpt lat="40.7960714571859" lon="-3.93873420865553">
        <time>2024-03-12T04:14:34Z</time>
      </trkpt>
      <trkpt lat="40.7961017666577" lon="-3.93860732690195">
        <time>2024-03-12T04:14:34Z</time>
      </trkpt>
      <trkpt lat="40.7961023350596" lon="-3.93860389733525">
        <time>2024-03-12T04:14:34Z</time>
      </trkpt>
      <trkpt lat="40.7961234669524" lon="-3.93848672478563">
        <time>2024-03-12T04:14:34Z</time>
      </trkpt>
      <trkpt lat="40.7961285490353" lon="-3.93841567413477">
        <time>2024-03-12T04:14:34Z</time>
      </trkpt>
      <trkpt lat="40.7961546829658" lon="-3.93833555727924">
        <time>2024-03-12T04:14:34Z</time>
      </trkpt>
      <trkpt lat="40.7961829809264" lon="-3.93825566643465">
        <time>2024-03-12T04:14:34Z</time>
      </trkpt>
      <trkpt lat="40.7962250731806" lon="-3.93817758826308">
        <time>2024-03-12T04:14:34Z</time>
      </trkpt>
      <trkpt lat="40.7962266246683" lon="-3.9381751208248">
        <time>2024-03-12T04:14:34Z</time>
      </trkpt>
      <trkpt lat="40.7962831814302" lon="-3.93808843654155">
        <time>2024-03-12T04:14:34Z</time>
      </trkpt>
      <trkpt lat="40.7963445727268" lon="-3.93799435230632">
        <time>2024-03-12T04:14:34Z</time>
      </trkpt>
      <trkpt lat="40.7964015638642" lon="-3.93785421340552">
        <time>2024-03-12T04:14:34Z</time>
      </trkpt>
      <trkpt lat="40.7964107552216" lon="-3.93783170209486">
        <time>2024-03-12T04:14:34Z</time>
      </trkpt>
      <trkpt lat="40.7964540270593" lon="-3.9376948074525">
        <time>2024-03-12T04:14:34Z</time>
      </trkpt>
      <trkpt lat="40.7964948041499" lon="-3.93756558248189">
        <time>2024-03-12T04:14:34Z</time>
      </trkpt>
      <trkpt lat="40.7965189345144" lon="-3.93748946515081">
        <time>2024-03-12T04:14:34Z</time>
      </trkpt>
      <trkpt lat="40.7965677509425" lon="-3.93740344703534">
        <time>2024-03-12T04:14:34Z</time>
      </trkpt>
      <trkpt lat="40.7966017653965" lon="-3.93732394934164">
        <time>2024-03-12T04:14:34Z</time>
      </trkpt>
      <trkpt lat="40.7966282735572" lon="-3.93728825450483">
        <time>2024-03-12T04:14:34Z</time>
      </trkpt>
      <trkpt lat="40.7966921543439" lon="-3.93719976776189">
        <time>2024-03-12T04:14:34Z</time>
      </trkpt>
      <trkpt lat="40.7967394672825" lon="-3.9370969343788">
        <time>2024-03-12T04:14:34Z</time>
      </trkpt>
      <trkpt lat="40.7967709327871" lon="-3.93703778662162">
        <time>2024-03-12T04:14:34Z</time>
      </trkpt>
      <trkpt lat="40.7968072792598" lon="-3.93696459395174">
        <time>2024-03-12T04:14:34Z</time>
      </trkpt>
      <trkpt lat="40.7968184365716" lon="-3.93691143319951">
        <time>2024-03-12T04:14:34Z</time>
      </trkpt>
      <trkpt lat="40.7968453774796" lon="-3.93682242651077">
        <time>2024-03-12T04:14:34Z</time>
      </trkpt>
      <trkpt lat="40.7968888861467" lon="-3.93674776615903">
        <time>2024-03-12T04:14:34Z</time>
      </trkpt>
      <trkpt lat="40.7969302025018" lon="-3.93664955236759">
        <time>2024-03-12T04:14:34Z</time>
      </trkpt>
      <trkpt lat="40.7969282647993" lon="-3.93659463923838">
        <time>2024-03-12T04:14:34Z</time>
      </trkpt>
      <trkpt lat="40.7969324123429" lon="-3.93652412995392">
        <time>2024-03-12T04:14:34Z</time>
      </trkpt>
      <trkpt lat="40.7969175960535" lon="-3.93644080880953">
        <time>2024-03-12T04:14:34Z</time>
      </trkpt>
      <trkpt lat="40.7969280959699" lon="-3.93632177557151">
        <time>2024-03-12T04:14:34Z</time>
      </trkpt>
      <trkpt lat="40.7969350336865" lon="-3.93620112407927">
        <time>2024-03-12T04:14:34Z</time>
      </trkpt>
      <trkpt lat="40.7969606552341" lon="-3.93612778010241">
        <time>2024-03-12T04:14:34Z</time>
      </trkpt>
      <trkpt lat="40.7969634455205" lon="-3.93607763788704">
        <time>2024-03-12T04:14:34Z</time>
      </trkpt>
      <trkpt lat="40.7969857593077" lon="-3.93597131580361">
        <time>2024-03-12T04:14:34Z</time>
      </trkpt>
      <trkpt lat="40.7969991212977" lon="-3.93594014008736">
        <time>2024-03-12T04:14:34Z</time>
      </trkpt>
      <trkpt lat="40.7970155808043" lon="-3.93590092249365">
        <time>2024-03-12T04:14:34Z</time>
      </trkpt>
      <trkpt lat="40.7971283006239" lon="-3.93577566911264">
        <time>2024-03-12T04:14:34Z</time>
      </trkpt>
      <trkpt lat="40.7971593197414" lon="-3.93572750378001">
        <time>2024-03-12T04:14:34Z</time>
      </trkpt>
      <trkpt lat="40.7972123986207" lon="-3.93562512023157">
        <time>2024-03-12T04:14:34Z</time>
      </trkpt>
      <trkpt lat="40.7972831007106" lon="-3.93546015821481">
        <time>2024-03-12T04:14:34Z</time>
      </trkpt>
      <trkpt lat="40.7973150012154" lon="-3.93541437578029">
        <time>2024-03-12T04:14:34Z</time>
      </trkpt>
      <trkpt lat="40.7974389050074" lon="-3.9352873813701">
        <time>2024-03-12T04:14:34Z</time>
      </trkpt>
      <trkpt lat="40.7974667019392" lon="-3.93525884790919">
        <time>2024-03-12T04:14:34Z</time>
      </trkpt>
      <trkpt lat="40.7975022053071" lon="-3.93521311581976">
        <time>2024-03-12T04:14:34Z</time>
      </trkpt>
      <trkpt lat="40.7975069544595" lon="-3.93520512178775">
        <time>2024-03-12T04:14:34Z</time>
      </trkpt>
      <trkpt lat="40.7975624800141" lon="-3.9351120177166">
        <time>2024-03-12T04:14:34Z</time>
      </trkpt>
      <trkpt lat="40.797604826371" lon="-3.93499999928753">
        <time>2024-03-12T04:14:34Z</time>
      </trkpt>
      <trkpt lat="40.7976303417553" lon="-3.93486391808751">
        <time>2024-03-12T04:14:34Z</time>
      </trkpt>
      <trkpt lat="40.797648319813" lon="-3.9347686272686">
        <time>2024-03-12T04:14:34Z</time>
      </trkpt>
      <trkpt lat="40.7976500112357" lon="-3.93475999759371">
        <time>2024-03-12T04:14:34Z</time>
      </trkpt>
      <trkpt lat="40.7976720513869" lon="-3.93470814926586">
        <time>2024-03-12T04:14:34Z</time>
      </trkpt>
      <trkpt lat="40.7976955665289" lon="-3.93469662514135">
        <time>2024-03-12T04:14:34Z</time>
      </trkpt>
      <trkpt lat="40.7977415520477" lon="-3.93469134320288">
        <time>2024-03-12T04:14:34Z</time>
      </trkpt>
      <trkpt lat="40.797797480405" lon="-3.93467079052499">
        <time>2024-03-12T04:14:34Z</time>
      </trkpt>
      <trkpt lat="40.7978491618597" lon="-3.93465183780479">
        <time>2024-03-12T04:14:34Z</time>
      </trkpt>
      <trkpt lat="40.7978752737667" lon="-3.93464224669752">
        <time>2024-03-12T04:14:34Z</time>
      </trkpt>
      <trkpt lat="40.7979418127282" lon="-3.93461295224632">
        <time>2024-03-12T04:14:34Z</time>
      </trkpt>
      <trkpt lat="40.7979611604749" lon="-3.93460433309904">
        <time>2024-03-12T04:14:34Z</time>
      </trkpt>
      <trkpt lat="40.7980426779007" lon="-3.9345497624577">
        <time>2024-03-12T04:14:34Z</time>
      </trkpt>
      <trkpt lat="40.7980896548927" lon="-3.93449992305384">
        <time>2024-03-12T04:14:34Z</time>
      </trkpt>
      <trkpt lat="40.7981153703421" lon="-3.93447254520466">
        <time>2024-03-12T04:14:34Z</time>
      </trkpt>
      <trkpt lat="40.7981463601271" lon="-3.93442793436592">
        <time>2024-03-12T04:14:34Z</time>
      </trkpt>
      <trkpt lat="40.7982132184619" lon="-3.93430357436701">
        <time>2024-03-12T04:14:34Z</time>
      </trkpt>
      <trkpt lat="40.7982336139115" lon="-3.93426569020727">
        <time>2024-03-12T04:14:34Z</time>
      </trkpt>
      <trkpt lat="40.7982570288021" lon="-3.93422203985732">
        <time>2024-03-12T04:14:34Z</time>
      </trkpt>
      <trkpt lat="40.7982993839047" lon="-3.9341088344122">
        <time>2024-03-12T04:14:34Z</time>
      </trkpt>
      <trkpt lat="40.7983294056469" lon="-3.93407250758024">
        <time>2024-03-12T04:14:34Z</time>
      </trkpt>
      <trkpt lat="40.7983666618031" lon="-3.93405501161157">
        <time>2024-03-12T04:14:34Z</time>
      </trkpt>
      <trkpt lat="40.7984125995607" lon="-3.93403336984063">
        <time>2024-03-12T04:14:34Z</time>
      </trkpt>
      <trkpt lat="40.7984815063072" lon="-3.93398976425342">
        <time>2024-03-12T04:14:34Z</time>
      </trkpt>
      <trkpt lat="40.7984949982678" lon="-3.93398118131846">
        <time>2024-03-12T04:14:34Z</time>
      </trkpt>
      <trkpt lat="40.7985632250334" lon="-3.9338991586818">
        <time>2024-03-12T04:14:34Z</time>
      </trkpt>
      <trkpt lat="40.798609153989" lon="-3.93378955884218">
        <time>2024-03-12T04:14:34Z</time>
      </trkpt>
      <trkpt lat="40.7986727852173" lon="-3.9336742798272">
        <time>2024-03-12T04:14:34Z</time>
      </trkpt>
      <trkpt lat="40.7986909784151" lon="-3.93364134310544">
        <time>2024-03-12T04:14:34Z</time>
      </trkpt>
      <trkpt lat="40.798806628522" lon="-3.93343195914727">
        <time>2024-03-12T04:14:34Z</time>
      </trkpt>
      <trkpt lat="40.7988966648094" lon="-3.93321510320066">
        <time>2024-03-12T04:14:34Z</time>
      </trkpt>
      <trkpt lat="40.7989714265257" lon="-3.93299329110027">
        <time>2024-03-12T04:14:34Z</time>
      </trkpt>
      <trkpt lat="40.7990367492433" lon="-3.93282469037312">
        <time>2024-03-12T04:14:34Z</time>
      </trkpt>
      <trkpt lat="40.7991083002179" lon="-3.93266565988489">
        <time>2024-03-12T04:14:34Z</time>
      </trkpt>
      <trkpt lat="40.7991433636899" lon="-3.9326073536429">
        <time>2024-03-12T04:14:34Z</time>
      </trkpt>
      <trkpt lat="40.799225175152" lon="-3.9324717006027">
        <time>2024-03-12T04:14:34Z</time>
      </trkpt>
      <trkpt lat="40.7992650374283" lon="-3.93244380822988">
        <time>2024-03-12T04:14:34Z</time>
      </trkpt>
      <trkpt lat="40.7993553983761" lon="-3.93240950993278">
        <time>2024-03-12T04:14:34Z</time>
      </trkpt>
      <trkpt lat="40.799426297517" lon="-3.93233107832031">
        <time>2024-03-12T04:14:34Z</time>
      </trkpt>
      <trkpt lat="40.7994564049065" lon="-3.9322840824086">
        <time>2024-03-12T04:14:34Z</time>
      </trkpt>
      <trkpt lat="40.7995317214525" lon="-3.93221638123035">
        <time>2024-03-12T04:14:34Z</time>
      </trkpt>
      <trkpt lat="40.7996026491923" lon="-3.93213439331013">
        <time>2024-03-12T04:14:34Z</time>
      </trkpt>
      <trkpt lat="40.7996512308284" lon="-3.93203075482255">
        <time>2024-03-12T04:14:34Z</time>
      </trkpt>
      <trkpt lat="40.7997161683578" lon="-3.93179813258253">
        <time>2024-03-12T04:14:34Z</time>
      </trkpt>
      <trkpt lat="40.799739855517" lon="-3.93176527166511">
        <time>2024-03-12T04:14:34Z</time>
      </trkpt>
      <trkpt lat="40.7997950673881" lon="-3.93162142058134">
        <time>2024-03-12T04:14:34Z</time>
      </trkpt>
      <trkpt lat="40.7998038152216" lon="-3.9315421186741">
        <time>2024-03-12T04:14:34Z</time>
      </trkpt>
      <trkpt lat="40.7998187054766" lon="-3.9314830550354">
        <time>2024-03-12T04:14:34Z</time>
      </trkpt>
      <trkpt lat="40.7998664145033" lon="-3.93137584722709">
        <time>2024-03-12T04:14:34Z</time>
      </trkpt>
      <trkpt lat="40.7998911553642" lon="-3.93132403381122">
        <time>2024-03-12T04:14:34Z</time>
      </trkpt>
      <trkpt lat="40.7999722282088" lon="-3.93110111903678">
        <time>2024-03-12T04:14:34Z</time>
      </trkpt>
      <trkpt lat="40.8000231499843" lon="-3.93094179623625">
        <time>2024-03-12T04:14:34Z</time>
      </trkpt>
      <trkpt lat="40.8000646449763" lon="-3.93081197752209">
        <time>2024-03-12T04:14:34Z</time>
      </trkpt>
      <trkpt lat="40.8001327796021" lon="-3.93052889746772">
        <time>2024-03-12T04:14:34Z</time>
      </trkpt>
      <trkpt lat="40.8001923381491" lon="-3.93028149747697">
        <time>2024-03-12T04:14:34Z</time>
      </trkpt>
      <trkpt lat="40.8002493715801" lon="-3.9300902518478">
        <time>2024-03-12T04:14:34Z</time>
      </trkpt>
      <trkpt lat="40.8002793675721" lon="-3.92998990777933">
        <time>2024-03-12T04:14:34Z</time>
      </trkpt>
      <trkpt lat="40.8003180965229" lon="-3.92987901649371">
        <time>2024-03-12T04:14:34Z</time>
      </trkpt>
      <trkpt lat="40.8003657754206" lon="-3.92977536265069">
        <time>2024-03-12T04:14:34Z</time>
      </trkpt>
      <trkpt lat="40.8003990252535" lon="-3.92967364113052">
        <time>2024-03-12T04:14:34Z</time>
      </trkpt>
      <trkpt lat="40.800420265556" lon="-3.92960897499647">
        <time>2024-03-12T04:14:34Z</time>
      </trkpt>
      <trkpt lat="40.8004644081119" lon="-3.92949697333038">
        <time>2024-03-12T04:14:34Z</time>
      </trkpt>
      <trkpt lat="40.8004843621405" lon="-3.92945777627307">
        <time>2024-03-12T04:14:34Z</time>
      </trkpt>
      <trkpt lat="40.8005684803229" lon="-3.92929251257491">
        <time>2024-03-12T04:14:34Z</time>
      </trkpt>
      <trkpt lat="40.8005687543625" lon="-3.92929204221718">
        <time>2024-03-12T04:14:34Z</time>
      </trkpt>
      <trkpt lat="40.800611865441" lon="-3.92920740961671">
        <time>2024-03-12T04:14:34Z</time>
      </trkpt>
      <trkpt lat="40.8006483871125" lon="-3.92913560643552">
        <time>2024-03-12T04:14:34Z</time>
      </trkpt>
      <trkpt lat="40.8006704724942" lon="-3.92907782729183">
        <time>2024-03-12T04:14:34Z</time>
      </trkpt>
      <trkpt lat="40.8007329981544" lon="-3.92896501425953">
        <time>2024-03-12T04:14:34Z</time>
      </trkpt>
      <trkpt lat="40.8007545714218" lon="-3.928926076552">
        <time>2024-03-12T04:14:34Z</time>
      </trkpt>
      <trkpt lat="40.8008014878638" lon="-3.92877155474192">
        <time>2024-03-12T04:14:34Z</time>
      </trkpt>
      <trkpt lat="40.8008073161224" lon="-3.92875255017605">
        <time>2024-03-12T04:14:34Z</time>
      </trkpt>
      <trkpt lat="40.8008204130309" lon="-3.9286922745698">
        <time>2024-03-12T04:14:34Z</time>
      </trkpt>
      <trkpt lat="40.800824521623" lon="-3.92862950275246">
        <time>2024-03-12T04:14:34Z</time>
      </trkpt>
      <trkpt lat="40.8008239950022" lon="-3.92856062050887">
        <time>2024-03-12T04:14:34Z</time>
      </trkpt>
      <trkpt lat="40.8008233266076" lon="-3.92844218429457">
        <time>2024-03-12T04:14:34Z</time>
      </trkpt>
      <trkpt lat="40.8008297812137" lon="-3.92839011423912">
        <time>2024-03-12T04:14:34Z</time>
      </trkpt>
      <trkpt lat="40.8008454836861" lon="-3.92826348937326">
        <time>2024-03-12T04:14:34Z</time>
      </trkpt>
      <trkpt lat="40.8008476985913" lon="-3.92820092821393">
        <time>2024-03-12T04:14:34Z</time>
      </trkpt>
      <trkpt lat="40.8008477905721" lon="-3.92820069240437">
        <time>2024-03-12T04:14:34Z</time>
      </trkpt>
      <trkpt lat="40.8008392695137" lon="-3.92814011550172">
        <time>2024-03-12T04:14:34Z</time>
      </trkpt>
      <trkpt lat="40.8008402515688" lon="-3.92801802734133">
        <time>2024-03-12T04:14:34Z</time>
      </trkpt>
      <trkpt lat="40.8008430162459" lon="-3.92799909857258">
        <time>2024-03-12T04:14:34Z</time>
      </trkpt>
      <trkpt lat="40.800866911676" lon="-3.92783939493979">
        <time>2024-03-12T04:14:34Z</time>
      </trkpt>
      <trkpt lat="40.8008657078367" lon="-3.92783226544369">
        <time>2024-03-12T04:14:34Z</time>
      </trkpt>
      <trkpt lat="40.8008471669369" lon="-3.92771820357374">
        <time>2024-03-12T04:14:34Z</time>
      </trkpt>
      <trkpt lat="40.800846437266" lon="-3.92768571194952">
        <time>2024-03-12T04:14:34Z</time>
      </trkpt>
      <trkpt lat="40.8008458419886" lon="-3.92765891238062">
        <time>2024-03-12T04:14:34Z</time>
      </trkpt>
      <trkpt lat="40.8008782496687" lon="-3.92751604203735">
        <time>2024-03-12T04:14:34Z</time>
      </trkpt>
      <trkpt lat="40.8008850642151" lon="-3.92748638196856">
        <time>2024-03-12T04:14:34Z</time>
      </trkpt>
      <trkpt lat="40.8009282849391" lon="-3.92737673619193">
        <time>2024-03-12T04:14:34Z</time>
      </trkpt>
      <trkpt lat="40.800942069853" lon="-3.92733164362317">
        <time>2024-03-12T04:14:34Z</time>
      </trkpt>
      <trkpt lat="40.8009625172439" lon="-3.92726459426277">
        <time>2024-03-12T04:14:34Z</time>
      </trkpt>
      <trkpt lat="40.8009711001692" lon="-3.92720544085841">
        <time>2024-03-12T04:14:34Z</time>
      </trkpt>
      <trkpt lat="40.800969968027" lon="-3.92715575444957">
        <time>2024-03-12T04:14:34Z</time>
      </trkpt>
      <trkpt lat="40.8009697940084" lon="-3.92714377891107">
        <time>2024-03-12T04:14:34Z</time>
      </trkpt>
      <trkpt lat="40.8009585701842" lon="-3.92708316442145">
        <time>2024-03-12T04:14:34Z</time>
      </trkpt>
      <trkpt lat="40.800955462484" lon="-3.92702147742153">
        <time>2024-03-12T04:14:34Z</time>
      </trkpt>
      <trkpt lat="40.8009662704628" lon="-3.92696567422824">
        <time>2024-03-12T04:14:34Z</time>
      </trkpt>
      <trkpt lat="40.8009667379728" lon="-3.92696354690995">
        <time>2024-03-12T04:14:34Z</time>
      </trkpt>
      <trkpt lat="40.8009973764527" lon="-3.92685016924991">
        <time>2024-03-12T04:14:34Z</time>
      </trkpt>
      <trkpt lat="40.8010193458707" lon="-3.92679546962018">
        <time>2024-03-12T04:14:34Z</time>
      </trkpt>
      <trkpt lat="40.8010414973147" lon="-3.92674053539461">
        <time>2024-03-12T04:14:34Z</time>
      </trkpt>
      <trkpt lat="40.8010679995102" lon="-3.92669348567496">
        <time>2024-03-12T04:14:34Z</time>
      </trkpt>
      <trkpt lat="40.8010828777838" lon="-3.92663560511737">
        <time>2024-03-12T04:14:34Z</time>
      </trkpt>
      <trkpt lat="40.801083030098" lon="-3.92661663988922">
        <time>2024-03-12T04:14:34Z</time>
      </trkpt>
      <trkpt lat="40.8010833823126" lon="-3.92657278279857">
        <time>2024-03-12T04:14:34Z</time>
      </trkpt>
      <trkpt lat="40.8010609054791" lon="-3.92645510979222">
        <time>2024-03-12T04:14:34Z</time>
      </trkpt>
      <trkpt lat="40.8010579996716" lon="-3.9264467711749">
        <time>2024-03-12T04:14:34Z</time>
      </trkpt>
      <trkpt lat="40.8010415461073" lon="-3.92639793858882">
        <time>2024-03-12T04:14:34Z</time>
      </trkpt>
      <trkpt lat="40.800991003501" lon="-3.92629765738799">
        <time>2024-03-12T04:14:34Z</time>
      </trkpt>
      <trkpt lat="40.800958296311" lon="-3.92626483968696">
        <time>2024-03-12T04:14:34Z</time>
      </trkpt>
      <trkpt lat="40.8009159410804" lon="-3.92622193005987">
        <time>2024-03-12T04:14:34Z</time>
      </trkpt>
      <trkpt lat="40.8008738062559" lon="-3.92619644974694">
        <time>2024-03-12T04:14:34Z</time>
      </trkpt>
      <trkpt lat="40.8007593396696" lon="-3.92609172406083">
        <time>2024-03-12T04:14:34Z</time>
      </trkpt>
      <trkpt lat="40.8007581734683" lon="-3.92609111512421">
        <time>2024-03-12T04:14:34Z</time>
      </trkpt>
      <trkpt lat="40.8006768999664" lon="-3.92603723283404">
        <time>2024-03-12T04:14:34Z</time>
      </trkpt>
      <trkpt lat="40.8005972670882" lon="-3.92596974079728">
        <time>2024-03-12T04:14:34Z</time>
      </trkpt>
      <trkpt lat="40.8005893719925" lon="-3.92596571908623">
        <time>2024-03-12T04:14:34Z</time>
      </trkpt>
      <trkpt lat="40.8004662921419" lon="-3.92590153543482">
        <time>2024-03-12T04:14:34Z</time>
      </trkpt>
      <trkpt lat="40.8004260062728" lon="-3.92587015395776">
        <time>2024-03-12T04:14:34Z</time>
      </trkpt>
      <trkpt lat="40.8003927093356" lon="-3.92583223113294">
        <time>2024-03-12T04:14:34Z</time>
      </trkpt>
      <trkpt lat="40.8003545940562" lon="-3.92578855125307">
        <time>2024-03-12T04:14:34Z</time>
      </trkpt>
      <trkpt lat="40.8003519213279" lon="-3.92578483923231">
        <time>2024-03-12T04:14:34Z</time>
      </trkpt>
      <trkpt lat="40.8003515648372" lon="-3.92578436010046">
        <time>2024-03-12T04:14:34Z</time>
      </trkpt>
      <trkpt lat="40.8002628547206" lon="-3.92565806307602">
        <time>2024-03-12T04:14:34Z</time>
      </trkpt>
      <trkpt lat="40.8002500881298" lon="-3.92560999375676">
        <time>2024-03-12T04:14:34Z</time>
      </trkpt>
      <trkpt lat="40.8002147689777" lon="-3.92547602212671">
        <time>2024-03-12T04:14:34Z</time>
      </trkpt>
      <trkpt lat="40.8001838064627" lon="-3.92529303379483">
        <time>2024-03-12T04:14:34Z</time>
      </trkpt>
      <trkpt lat="40.8001731076124" lon="-3.92524546749352">
        <time>2024-03-12T04:14:34Z</time>
      </trkpt>
      <trkpt lat="40.8001446704899" lon="-3.92511823024359">
        <time>2024-03-12T04:14:34Z</time>
      </trkpt>
      <trkpt lat="40.8000911319504" lon="-3.92494204151627">
        <time>2024-03-12T04:14:34Z</time>
      </trkpt>
      <trkpt lat="40.8000484399913" lon="-3.92476126185335">
        <time>2024-03-12T04:14:34Z</time>
      </trkpt>
      <trkpt lat="40.8000321750829" lon="-3.9246663194057">
        <time>2024-03-12T04:14:34Z</time>
      </trkpt>
      <trkpt lat="40.800019377985" lon="-3.92446461695122">
        <time>2024-03-12T04:14:34Z</time>
      </trkpt>
      <trkpt lat="40.8000136308452" lon="-3.92427119190678">
        <time>2024-03-12T04:14:34Z</time>
      </trkpt>
      <trkpt lat="40.7999952672425" lon="-3.92408956485795">
        <time>2024-03-12T04:14:34Z</time>
      </trkpt>
      <trkpt lat="40.799979509629" lon="-3.92403244520764">
        <time>2024-03-12T04:14:34Z</time>
      </trkpt>
      <trkpt lat="40.7999732302013" lon="-3.92401789575936">
        <time>2024-03-12T04:14:34Z</time>
      </trkpt>
      <trkpt lat="40.7999344168065" lon="-3.92392631578317">
        <time>2024-03-12T04:14:34Z</time>
      </trkpt>
      <trkpt lat="40.7999034328363" lon="-3.92374569951152">
        <time>2024-03-12T04:14:34Z</time>
      </trkpt>
      <trkpt lat="40.7999181449711" lon="-3.92346080550411">
        <time>2024-03-12T04:14:34Z</time>
      </trkpt>
      <trkpt lat="40.799919410849" lon="-3.92343770699612">
        <time>2024-03-12T04:14:34Z</time>
      </trkpt>
      <trkpt lat="40.799905682651" lon="-3.9231269318767">
        <time>2024-03-12T04:14:34Z</time>
      </trkpt>
      <trkpt lat="40.7998882464228" lon="-3.92294176196134">
        <time>2024-03-12T04:14:34Z</time>
      </trkpt>
      <trkpt lat="40.7998869569331" lon="-3.92287773044419">
        <time>2024-03-12T04:14:34Z</time>
      </trkpt>
      <trkpt lat="40.7998927879904" lon="-3.92282446649319">
        <time>2024-03-12T04:14:34Z</time>
      </trkpt>
      <trkpt lat="40.7998692826961" lon="-3.92249696011807">
        <time>2024-03-12T04:14:34Z</time>
      </trkpt>
      <trkpt lat="40.7998651182755" lon="-3.92211637695891">
        <time>2024-03-12T04:14:34Z</time>
      </trkpt>
      <trkpt lat="40.7998746629862" lon="-3.92195908290352">
        <time>2024-03-12T04:14:34Z</time>
      </trkpt>
      <trkpt lat="40.7998920890241" lon="-3.92167221089973">
        <time>2024-03-12T04:14:34Z</time>
      </trkpt>
      <trkpt lat="40.7999105144003" lon="-3.92116983983229">
        <time>2024-03-12T04:14:34Z</time>
      </trkpt>
      <trkpt lat="40.7998890727726" lon="-3.92092178681125">
        <time>2024-03-12T04:14:34Z</time>
      </trkpt>
      <trkpt lat="40.7998760820187" lon="-3.92085640816883">
        <time>2024-03-12T04:14:34Z</time>
      </trkpt>
      <trkpt lat="40.7998260169195" lon="-3.92069568222823">
        <time>2024-03-12T04:14:34Z</time>
      </trkpt>
      <trkpt lat="40.7998062930012" lon="-3.92057093882047">
        <time>2024-03-12T04:14:34Z</time>
      </trkpt>
      <trkpt lat="40.7998094775185" lon="-3.92051052554246">
        <time>2024-03-12T04:14:34Z</time>
      </trkpt>
      <trkpt lat="40.7998321056375" lon="-3.92040675677503">
        <time>2024-03-12T04:14:34Z</time>
      </trkpt>
      <trkpt lat="40.7998665121925" lon="-3.92024933174818">
        <time>2024-03-12T04:14:34Z</time>
      </trkpt>
      <trkpt lat="40.7999080191281" lon="-3.92012780485385">
        <time>2024-03-12T04:14:34Z</time>
      </trkpt>
      <trkpt lat="40.7999462471613" lon="-3.92007854432738">
        <time>2024-03-12T04:14:34Z</time>
      </trkpt>
      <trkpt lat="40.799929794744" lon="-3.91999533640738">
        <time>2024-03-12T04:14:34Z</time>
      </trkpt>
      <trkpt lat="40.7999172402405" lon="-3.91995426542047">
        <time>2024-03-12T04:14:34Z</time>
      </trkpt>
      <trkpt lat="40.799878002559" lon="-3.91982510363031">
        <time>2024-03-12T04:14:34Z</time>
      </trkpt>
      <trkpt lat="40.7998703967172" lon="-3.91976217042026">
        <time>2024-03-12T04:14:34Z</time>
      </trkpt>
      <trkpt lat="40.7998665667371" lon="-3.91945153283138">
        <time>2024-03-12T04:14:34Z</time>
      </trkpt>
      <trkpt lat="40.7998790506032" lon="-3.91937714104833">
        <time>2024-03-12T04:14:34Z</time>
      </trkpt>
      <trkpt lat="40.7998856712309" lon="-3.91933763876701">
        <time>2024-03-12T04:14:34Z</time>
      </trkpt>
      <trkpt lat="40.7998864267669" lon="-3.91933326307042">
        <time>2024-03-12T04:14:34Z</time>
      </trkpt>
      <trkpt lat="40.7998901111457" lon="-3.9192100283245">
        <time>2024-03-12T04:14:34Z</time>
      </trkpt>
      <trkpt lat="40.7998690933977" lon="-3.91914572471558">
        <time>2024-03-12T04:14:34Z</time>
      </trkpt>
      <trkpt lat="40.7998531771545" lon="-3.91909690220703">
        <time>2024-03-12T04:14:34Z</time>
      </trkpt>
      <trkpt lat="40.7998466982581" lon="-3.9190620795156">
        <time>2024-03-12T04:14:34Z</time>
      </trkpt>
      <trkpt lat="40.7998419490749" lon="-3.91903629001385">
        <time>2024-03-12T04:14:34Z</time>
      </trkpt>
      <trkpt lat="40.7998388181748" lon="-3.91897697495847">
        <time>2024-03-12T04:14:34Z</time>
      </trkpt>
      <trkpt lat="40.7998390228687" lon="-3.91897389564448">
        <time>2024-03-12T04:14:34Z</time>
      </trkpt>
      <trkpt lat="40.7998496703274" lon="-3.91885858087765">
        <time>2024-03-12T04:14:34Z</time>
      </trkpt>
      <trkpt lat="40.799870235519" lon="-3.91877612091688">
        <time>2024-03-12T04:14:34Z</time>
      </trkpt>
      <trkpt lat="40.7998794473207" lon="-3.91873926227338">
        <time>2024-03-12T04:14:34Z</time>
      </trkpt>
      <trkpt lat="40.7999100771131" lon="-3.91865990460328">
        <time>2024-03-12T04:14:34Z</time>
      </trkpt>
      <trkpt lat="40.7999631510508" lon="-3.91852229557102">
        <time>2024-03-12T04:14:34Z</time>
      </trkpt>
      <trkpt lat="40.7999780252371" lon="-3.91846441406769">
        <time>2024-03-12T04:14:34Z</time>
      </trkpt>
      <trkpt lat="40.7999929073469" lon="-3.91813388140817">
        <time>2024-03-12T04:14:34Z</time>
      </trkpt>
      <trkpt lat="40.7999944230467" lon="-3.91810189540881">
        <time>2024-03-12T04:14:34Z</time>
      </trkpt>
      <trkpt lat="40.800007995385" lon="-3.91798116750197">
        <time>2024-03-12T04:14:34Z</time>
      </trkpt>
      <trkpt lat="40.8000246896402" lon="-3.91792094003088">
        <time>2024-03-12T04:14:34Z</time>
      </trkpt>
      <trkpt lat="40.8000275337972" lon="-3.91791445928965">
        <time>2024-03-12T04:14:34Z</time>
      </trkpt>
      <trkpt lat="40.8000935086095" lon="-3.91776303890727">
        <time>2024-03-12T04:14:34Z</time>
      </trkpt>
      <trkpt lat="40.8001259207062" lon="-3.9176520537634">
        <time>2024-03-12T04:14:34Z</time>
      </trkpt>
      <trkpt lat="40.8001401803882" lon="-3.91758076795612">
        <time>2024-03-12T04:14:34Z</time>
      </trkpt>
      <trkpt lat="40.8001615627601" lon="-3.91747472817158">
        <time>2024-03-12T04:14:34Z</time>
      </trkpt>
      <trkpt lat="40.8002071221016" lon="-3.91729635348089">
        <time>2024-03-12T04:14:34Z</time>
      </trkpt>
      <trkpt lat="40.8002756047852" lon="-3.91706731993441">
        <time>2024-03-12T04:14:34Z</time>
      </trkpt>
      <trkpt lat="40.8003140235213" lon="-3.91688054827188">
        <time>2024-03-12T04:14:34Z</time>
      </trkpt>
      <trkpt lat="40.8003753592042" lon="-3.91653050000101">
        <time>2024-03-12T04:14:34Z</time>
      </trkpt>
      <trkpt lat="40.8004071200127" lon="-3.91616107724114">
        <time>2024-03-12T04:14:34Z</time>
      </trkpt>
      <trkpt lat="40.8004346625415" lon="-3.91598245329568">
        <time>2024-03-12T04:14:34Z</time>
      </trkpt>
      <trkpt lat="40.8004643989464" lon="-3.91586787358537">
        <time>2024-03-12T04:14:34Z</time>
      </trkpt>
      <trkpt lat="40.8004685005659" lon="-3.91580510118276">
        <time>2024-03-12T04:14:34Z</time>
      </trkpt>
      <trkpt lat="40.8004686938856" lon="-3.9158034442117">
        <time>2024-03-12T04:14:34Z</time>
      </trkpt>
      <trkpt lat="40.8004960519533" lon="-3.91562529159584">
        <time>2024-03-12T04:14:34Z</time>
      </trkpt>
      <trkpt lat="40.8005439459836" lon="-3.91537937615673">
        <time>2024-03-12T04:14:34Z</time>
      </trkpt>
      <trkpt lat="40.8005990172087" lon="-3.91513711529542">
        <time>2024-03-12T04:14:34Z</time>
      </trkpt>
      <trkpt lat="40.8006396384916" lon="-3.91489939741845">
        <time>2024-03-12T04:14:34Z</time>
      </trkpt>
      <trkpt lat="40.800682866134" lon="-3.91478737300823">
        <time>2024-03-12T04:14:34Z</time>
      </trkpt>
      <trkpt lat="40.800762508532" lon="-3.91462724475184">
        <time>2024-03-12T04:14:34Z</time>
      </trkpt>
      <trkpt lat="40.8007750977148" lon="-3.91450507869079">
        <time>2024-03-12T04:14:34Z</time>
      </trkpt>
      <trkpt lat="40.8007947037683" lon="-3.91431591215027">
        <time>2024-03-12T04:14:34Z</time>
      </trkpt>
      <trkpt lat="40.8008276478991" lon="-3.91413736050366">
        <time>2024-03-12T04:14:34Z</time>
      </trkpt>
      <trkpt lat="40.8008385045007" lon="-3.91401777846183">
        <time>2024-03-12T04:14:34Z</time>
      </trkpt>
      <trkpt lat="40.8008403441872" lon="-3.91389925815323">
        <time>2024-03-12T04:14:34Z</time>
      </trkpt>
      <trkpt lat="40.8008261585693" lon="-3.91364300524498">
        <time>2024-03-12T04:14:34Z</time>
      </trkpt>
      <trkpt lat="40.8008435649388" lon="-3.91326496507226">
        <time>2024-03-12T04:14:34Z</time>
      </trkpt>
      <trkpt lat="40.8008468197588" lon="-3.91319518635112">
        <time>2024-03-12T04:14:34Z</time>
      </trkpt>
      <trkpt lat="40.8008554330128" lon="-3.91313128979442">
        <time>2024-03-12T04:14:34Z</time>
      </trkpt>
      <trkpt lat="40.8008729973543" lon="-3.91307462862579">
        <time>2024-03-12T04:14:34Z</time>
      </trkpt>
      <trkpt lat="40.8009597213983" lon="-3.91293000583974">
        <time>2024-03-12T04:14:34Z</time>
      </trkpt>
      <trkpt lat="40.8010223409475" lon="-3.9127577868922">
        <time>2024-03-12T04:14:34Z</time>
      </trkpt>
      <trkpt lat="40.8010814301895" lon="-3.91254213143609">
        <time>2024-03-12T04:14:34Z</time>
      </trkpt>
      <trkpt lat="40.8011087012915" lon="-3.91244268919682">
        <time>2024-03-12T04:14:34Z</time>
      </trkpt>
      <trkpt lat="40.8011336548462" lon="-3.91235151336582">
        <time>2024-03-12T04:14:34Z</time>
      </trkpt>
      <trkpt lat="40.8011761374993" lon="-3.9121055191126">
        <time>2024-03-12T04:14:34Z</time>
      </trkpt>
      <trkpt lat="40.8012059075591" lon="-3.91198619499647">
        <time>2024-03-12T04:14:34Z</time>
      </trkpt>
      <trkpt lat="40.8012280593649" lon="-3.911918926855">
        <time>2024-03-12T04:14:34Z</time>
      </trkpt>
      <trkpt lat="40.8014353375503" lon="-3.91156612408311">
        <time>2024-03-12T04:14:34Z</time>
      </trkpt>
      <trkpt lat="40.8015324828534" lon="-3.91135643994363">
        <time>2024-03-12T04:14:34Z</time>
      </trkpt>
      <trkpt lat="40.8015717650665" lon="-3.91117322964756">
        <time>2024-03-12T04:14:34Z</time>
      </trkpt>
      <trkpt lat="40.8016002942544" lon="-3.9109827592886">
        <time>2024-03-12T04:14:34Z</time>
      </trkpt>
      <trkpt lat="40.8016325421655" lon="-3.91082328036166">
        <time>2024-03-12T04:14:34Z</time>
      </trkpt>
      <trkpt lat="40.801635916771" lon="-3.91080661137196">
        <time>2024-03-12T04:14:34Z</time>
      </trkpt>
      <trkpt lat="40.8017547758453" lon="-3.91035657147069">
        <time>2024-03-12T04:14:34Z</time>
      </trkpt>
      <trkpt lat="40.8018071811301" lon="-3.91010833823941">
        <time>2024-03-12T04:14:34Z</time>
      </trkpt>
      <trkpt lat="40.8018234446306" lon="-3.91005651813286">
        <time>2024-03-12T04:14:34Z</time>
      </trkpt>
      <trkpt lat="40.8018432169348" lon="-3.90999383957067">
        <time>2024-03-12T04:14:34Z</time>
      </trkpt>
      <trkpt lat="40.8019323462084" lon="-3.90977218763769">
        <time>2024-03-12T04:14:34Z</time>
      </trkpt>
      <trkpt lat="40.8019864245426" lon="-3.90965437848951">
        <time>2024-03-12T04:14:34Z</time>
      </trkpt>
      <trkpt lat="40.8020185339813" lon="-3.90959222373217">
        <time>2024-03-12T04:14:34Z</time>
      </trkpt>
      <trkpt lat="40.8022519953398" lon="-3.90913959375035">
        <time>2024-03-12T04:14:34Z</time>
      </trkpt>
      <trkpt lat="40.802282823854" lon="-3.90907991053067">
        <time>2024-03-12T04:14:34Z</time>
      </trkpt>
      <trkpt lat="40.8023057626562" lon="-3.90902687685304">
        <time>2024-03-12T04:14:34Z</time>
      </trkpt>
      <trkpt lat="40.8023760305482" lon="-3.90879785190272">
        <time>2024-03-12T04:14:34Z</time>
      </trkpt>
      <trkpt lat="40.8023899202415" lon="-3.90876140993715">
        <time>2024-03-12T04:14:34Z</time>
      </trkpt>
      <trkpt lat="40.8024201810743" lon="-3.90868227674131">
        <time>2024-03-12T04:14:34Z</time>
      </trkpt>
      <trkpt lat="40.80246979194" lon="-3.90855966298371">
        <time>2024-03-12T04:14:34Z</time>
      </trkpt>
      <trkpt lat="40.8025952066405" lon="-3.90830566377978">
        <time>2024-03-12T04:14:34Z</time>
      </trkpt>
      <trkpt lat="40.8025988683957" lon="-3.90829824513449">
        <time>2024-03-12T04:14:34Z</time>
      </trkpt>
      <trkpt lat="40.8026146755599" lon="-3.90823562981405">
        <time>2024-03-12T04:14:34Z</time>
      </trkpt>
      <trkpt lat="40.8026388548227" lon="-3.9080249426197">
        <time>2024-03-12T04:14:34Z</time>
      </trkpt>
      <trkpt lat="40.8027234895095" lon="-3.90764128632648">
        <time>2024-03-12T04:14:34Z</time>
      </trkpt>
      <trkpt lat="40.8027621638954" lon="-3.9074658865033">
        <time>2024-03-12T04:14:34Z</time>
      </trkpt>
      <trkpt lat="40.8027707740008" lon="-3.90740198731506">
        <time>2024-03-12T04:14:34Z</time>
      </trkpt>
      <trkpt lat="40.8027795366169" lon="-3.90720412978315">
        <time>2024-03-12T04:14:34Z</time>
      </trkpt>
      <trkpt lat="40.8027804587955" lon="-3.90720141571289">
        <time>2024-03-12T04:14:34Z</time>
      </trkpt>
      <trkpt lat="40.8028007290017" lon="-3.90714395833912">
        <time>2024-03-12T04:14:34Z</time>
      </trkpt>
      <trkpt lat="40.8028308355794" lon="-3.90709576313935">
        <time>2024-03-12T04:14:34Z</time>
      </trkpt>
      <trkpt lat="40.803011965438" lon="-3.90685875946023">
        <time>2024-03-12T04:14:34Z</time>
      </trkpt>
      <trkpt lat="40.8030916435357" lon="-3.90669268913065">
        <time>2024-03-12T04:14:34Z</time>
      </trkpt>
      <trkpt lat="40.8031852609346" lon="-3.90647227519162">
        <time>2024-03-12T04:14:34Z</time>
      </trkpt>
      <trkpt lat="40.8032714022383" lon="-3.90622876025249">
        <time>2024-03-12T04:14:34Z</time>
      </trkpt>
      <trkpt lat="40.8033685958019" lon="-3.90595433486244">
        <time>2024-03-12T04:14:34Z</time>
      </trkpt>
      <trkpt lat="40.803395685253" lon="-3.90583141110544">
        <time>2024-03-12T04:14:34Z</time>
      </trkpt>
      <trkpt lat="40.8034327496679" lon="-3.90558533064944">
        <time>2024-03-12T04:14:34Z</time>
      </trkpt>
      <trkpt lat="40.8035119996105" lon="-3.90535879125419">
        <time>2024-03-12T04:14:34Z</time>
      </trkpt>
      <trkpt lat="40.8035385396892" lon="-3.90530580425407">
        <time>2024-03-12T04:14:34Z</time>
      </trkpt>
      <trkpt lat="40.8036029029633" lon="-3.90513952267866">
        <time>2024-03-12T04:14:34Z</time>
      </trkpt>
      <trkpt lat="40.8036532527767" lon="-3.90503706774338">
        <time>2024-03-12T04:14:34Z</time>
      </trkpt>
      <trkpt lat="40.8037188221419" lon="-3.90494667446056">
        <time>2024-03-12T04:14:34Z</time>
      </trkpt>
      <trkpt lat="40.8037772412795" lon="-3.90484907083418">
        <time>2024-03-12T04:14:34Z</time>
      </trkpt>
      <trkpt lat="40.803902743635" lon="-3.90458285009751">
        <time>2024-03-12T04:14:34Z</time>
      </trkpt>
      <trkpt lat="40.8039904326448" lon="-3.90434824243968">
        <time>2024-03-12T04:14:34Z</time>
      </trkpt>
      <trkpt lat="40.8040297221454" lon="-3.90424314660975">
        <time>2024-03-12T04:14:34Z</time>
      </trkpt>
      <trkpt lat="40.8041112353489" lon="-3.90395735859203">
        <time>2024-03-12T04:14:34Z</time>
      </trkpt>
      <trkpt lat="40.8041297516925" lon="-3.90389359205923">
        <time>2024-03-12T04:14:34Z</time>
      </trkpt>
      <trkpt lat="40.804176388693" lon="-3.90366696154791">
        <time>2024-03-12T04:14:34Z</time>
      </trkpt>
      <trkpt lat="40.8041775095064" lon="-3.90366187903542">
        <time>2024-03-12T04:14:34Z</time>
      </trkpt>
      <trkpt lat="40.8041808403791" lon="-3.90365066182117">
        <time>2024-03-12T04:14:34Z</time>
      </trkpt>
      <trkpt lat="40.8042311450724" lon="-3.90348477913812">
        <time>2024-03-12T04:14:34Z</time>
      </trkpt>
      <trkpt lat="40.8042367629836" lon="-3.90344608894153">
        <time>2024-03-12T04:14:34Z</time>
      </trkpt>
      <trkpt lat="40.8042758930049" lon="-3.9031771515598">
        <time>2024-03-12T04:14:34Z</time>
      </trkpt>
      <trkpt lat="40.8043092939975" lon="-3.9030531250308">
        <time>2024-03-12T04:14:34Z</time>
      </trkpt>
      <trkpt lat="40.8043696490487" lon="-3.90289211986347">
        <time>2024-03-12T04:14:34Z</time>
      </trkpt>
      <trkpt lat="40.8043902570216" lon="-3.90283727252588">
        <time>2024-03-12T04:14:34Z</time>
      </trkpt>
      <trkpt lat="40.8044042504884" lon="-3.90277581516041">
        <time>2024-03-12T04:14:34Z</time>
      </trkpt>
      <trkpt lat="40.8044101557892" lon="-3.90271187713068">
        <time>2024-03-12T04:14:34Z</time>
      </trkpt>
      <trkpt lat="40.8044669846861" lon="-3.90189582351637">
        <time>2024-03-12T04:14:34Z</time>
      </trkpt>
      <trkpt lat="40.804475939443" lon="-3.90164911932611">
        <time>2024-03-12T04:14:34Z</time>
      </trkpt>
      <trkpt lat="40.8044818719401" lon="-3.90148939140594">
        <time>2024-03-12T04:14:34Z</time>
      </trkpt>
      <trkpt lat="40.8044806905015" lon="-3.90138694641601">
        <time>2024-03-12T04:14:34Z</time>
      </trkpt>
      <trkpt lat="40.8044797322204" lon="-3.90130205015701">
        <time>2024-03-12T04:14:34Z</time>
      </trkpt>
      <trkpt lat="40.8044870955836" lon="-3.90128199592216">
        <time>2024-03-12T04:14:34Z</time>
      </trkpt>
      <trkpt lat="40.8044843537318" lon="-3.9011717053802">
        <time>2024-03-12T04:14:34Z</time>
      </trkpt>
      <trkpt lat="40.8044849174521" lon="-3.90113413199176">
        <time>2024-03-12T04:14:34Z</time>
      </trkpt>
      <trkpt lat="40.8044912520597" lon="-3.90074975319497">
        <time>2024-03-12T04:14:34Z</time>
      </trkpt>
      <trkpt lat="40.8045264696252" lon="-3.90027720620914">
        <time>2024-03-12T04:14:34Z</time>
      </trkpt>
      <trkpt lat="40.8045716289655" lon="-3.89981178758112">
        <time>2024-03-12T04:14:34Z</time>
      </trkpt>
      <trkpt lat="40.8045731949587" lon="-3.89979580417816">
        <time>2024-03-12T04:14:34Z</time>
      </trkpt>
      <trkpt lat="40.8046087516574" lon="-3.89942948354964">
        <time>2024-03-12T04:14:34Z</time>
      </trkpt>
      <trkpt lat="40.8046090320454" lon="-3.8994281832597">
        <time>2024-03-12T04:14:34Z</time>
      </trkpt>
      <trkpt lat="40.8047170256421" lon="-3.89894488007547">
        <time>2024-03-12T04:14:34Z</time>
      </trkpt>
      <trkpt lat="40.804768296019" lon="-3.89867728736686">
        <time>2024-03-12T04:14:34Z</time>
      </trkpt>
      <trkpt lat="40.8048710159939" lon="-3.89814198457066">
        <time>2024-03-12T04:14:34Z</time>
      </trkpt>
      <trkpt lat="40.8049231518918" lon="-3.89794814218244">
        <time>2024-03-12T04:14:34Z</time>
      </trkpt>
      <trkpt lat="40.8049949560051" lon="-3.89768094312113">
        <time>2024-03-12T04:14:34Z</time>
      </trkpt>
      <trkpt lat="40.8050148083348" lon="-3.89760711497743">
        <time>2024-03-12T04:14:34Z</time>
      </trkpt>
      <trkpt lat="40.8050454200024" lon="-3.89749347935289">
        <time>2024-03-12T04:14:34Z</time>
      </trkpt>
      <trkpt lat="40.8051397666854" lon="-3.89717702765247">
        <time>2024-03-12T04:14:34Z</time>
      </trkpt>
      <trkpt lat="40.8052358658493" lon="-3.89687838166557">
        <time>2024-03-12T04:14:34Z</time>
      </trkpt>
      <trkpt lat="40.8052690041965" lon="-3.8967756862638">
        <time>2024-03-12T04:14:34Z</time>
      </trkpt>
      <trkpt lat="40.8054325210784" lon="-3.89611291921807">
        <time>2024-03-12T04:14:34Z</time>
      </trkpt>
      <trkpt lat="40.8054596799215" lon="-3.89600291091889">
        <time>2024-03-12T04:14:34Z</time>
      </trkpt>
      <trkpt lat="40.8055281586423" lon="-3.89565291220639">
        <time>2024-03-12T04:14:34Z</time>
      </trkpt>
      <trkpt lat="40.8055481508523" lon="-3.8955144728066">
        <time>2024-03-12T04:14:34Z</time>
      </trkpt>
      <trkpt lat="40.8055472601898" lon="-3.89539709236015">
        <time>2024-03-12T04:14:34Z</time>
      </trkpt>
      <trkpt lat="40.8055601381223" lon="-3.89524670182879">
        <time>2024-03-12T04:14:34Z</time>
      </trkpt>
      <trkpt lat="40.8055488061234" lon="-3.89508175945371">
        <time>2024-03-12T04:14:34Z</time>
      </trkpt>
      <trkpt lat="40.805556058823" lon="-3.89484356330158">
        <time>2024-03-12T04:14:34Z</time>
      </trkpt>
      <trkpt lat="40.8055733387078" lon="-3.89459008972582">
        <time>2024-03-12T04:14:34Z</time>
      </trkpt>
      <trkpt lat="40.8056347813504" lon="-3.89410128610867">
        <time>2024-03-12T04:14:34Z</time>
      </trkpt>
      <trkpt lat="40.8056889999954" lon="-3.89396330532464">
        <time>2024-03-12T04:14:34Z</time>
      </trkpt>
      <trkpt lat="40.8057049004638" lon="-3.89388764395285">
        <time>2024-03-12T04:14:34Z</time>
      </trkpt>
      <trkpt lat="40.8057109581238" lon="-3.89383828809028">
        <time>2024-03-12T04:14:34Z</time>
      </trkpt>
      <trkpt lat="40.8057427781924" lon="-3.8935797923063">
        <time>2024-03-12T04:14:34Z</time>
      </trkpt>
      <trkpt lat="40.8057472016329" lon="-3.89354369255721">
        <time>2024-03-12T04:14:34Z</time>
      </trkpt>
      <trkpt lat="40.805797183097" lon="-3.89313843248561">
        <time>2024-03-12T04:14:34Z</time>
      </trkpt>
      <trkpt lat="40.8058158034597" lon="-3.8930488178244">
        <time>2024-03-12T04:14:34Z</time>
      </trkpt>
      <trkpt lat="40.8058328337692" lon="-3.89296676928869">
        <time>2024-03-12T04:14:34Z</time>
      </trkpt>
      <trkpt lat="40.8058402230542" lon="-3.89293153908635">
        <time>2024-03-12T04:14:34Z</time>
      </trkpt>
      <trkpt lat="40.8059013417434" lon="-3.89271658887086">
        <time>2024-03-12T04:14:34Z</time>
      </trkpt>
      <trkpt lat="40.8059629481186" lon="-3.89255499443935">
        <time>2024-03-12T04:14:34Z</time>
      </trkpt>
      <trkpt lat="40.8059890370066" lon="-3.89252463830201">
        <time>2024-03-12T04:14:34Z</time>
      </trkpt>
      <trkpt lat="40.8060093079344" lon="-3.89250108037398">
        <time>2024-03-12T04:14:34Z</time>
      </trkpt>
      <trkpt lat="40.8060424866455" lon="-3.89240430987675">
        <time>2024-03-12T04:14:34Z</time>
      </trkpt>
      <trkpt lat="40.8060876316586" lon="-3.89227450417577">
        <time>2024-03-12T04:14:34Z</time>
      </trkpt>
      <trkpt lat="40.8061328415347" lon="-3.89208968961411">
        <time>2024-03-12T04:14:34Z</time>
      </trkpt>
      <trkpt lat="40.8061471676138" lon="-3.89203107813883">
        <time>2024-03-12T04:14:34Z</time>
      </trkpt>
      <trkpt lat="40.8062013219675" lon="-3.89184282634065">
        <time>2024-03-12T04:14:34Z</time>
      </trkpt>
      <trkpt lat="40.8062378872892" lon="-3.89171575042474">
        <time>2024-03-12T04:14:34Z</time>
      </trkpt>
      <trkpt lat="40.8062917745655" lon="-3.89149204648638">
        <time>2024-03-12T04:14:34Z</time>
      </trkpt>
      <trkpt lat="40.8063119701224" lon="-3.89140826098893">
        <time>2024-03-12T04:14:34Z</time>
      </trkpt>
      <trkpt lat="40.80632536947" lon="-3.89135295635978">
        <time>2024-03-12T04:14:34Z</time>
      </trkpt>
      <trkpt lat="40.8063323340478" lon="-3.89126768964203">
        <time>2024-03-12T04:14:34Z</time>
      </trkpt>
      <trkpt lat="40.806331307182" lon="-3.89126068113264">
        <time>2024-03-12T04:14:34Z</time>
      </trkpt>
      <trkpt lat="40.8063255126865" lon="-3.89121780509888">
        <time>2024-03-12T04:14:34Z</time>
      </trkpt>
      <trkpt lat="40.8063113937789" lon="-3.89117967847785">
        <time>2024-03-12T04:14:34Z</time>
      </trkpt>
      <trkpt lat="40.8063109233745" lon="-3.89112395114977">
        <time>2024-03-12T04:14:34Z</time>
      </trkpt>
      <trkpt lat="40.8063447051378" lon="-3.89094894099226">
        <time>2024-03-12T04:14:34Z</time>
      </trkpt>
      <trkpt lat="40.8063922186889" lon="-3.89051210653664">
        <time>2024-03-12T04:14:34Z</time>
      </trkpt>
      <trkpt lat="40.8063888444449" lon="-3.89048242254491">
        <time>2024-03-12T04:14:34Z</time>
      </trkpt>
      <trkpt lat="40.8064028405202" lon="-3.89041977519561">
        <time>2024-03-12T04:14:34Z</time>
      </trkpt>
      <trkpt lat="40.8064600723333" lon="-3.89035770570908">
        <time>2024-03-12T04:14:34Z</time>
      </trkpt>
      <trkpt lat="40.8064792349764" lon="-3.89032595179937">
        <time>2024-03-12T04:14:34Z</time>
      </trkpt>
      <trkpt lat="40.8064959423506" lon="-3.89026215501032">
        <time>2024-03-12T04:14:34Z</time>
      </trkpt>
      <trkpt lat="40.8065019368139" lon="-3.89016241119272">
        <time>2024-03-12T04:14:34Z</time>
      </trkpt>
      <trkpt lat="40.8065083427012" lon="-3.89005603373205">
        <time>2024-03-12T04:14:34Z</time>
      </trkpt>
      <trkpt lat="40.8065041951604" lon="-3.89004483407484">
        <time>2024-03-12T04:14:34Z</time>
      </trkpt>
      <trkpt lat="40.8064947583691" lon="-3.89001862572696">
        <time>2024-03-12T04:14:34Z</time>
      </trkpt>
      <trkpt lat="40.8064695329037" lon="-3.88994881506187">
        <time>2024-03-12T04:14:34Z</time>
      </trkpt>
      <trkpt lat="40.8064596382837" lon="-3.88983012720683">
        <time>2024-03-12T04:14:34Z</time>
      </trkpt>
      <trkpt lat="40.8064946528297" lon="-3.88972863700993">
        <time>2024-03-12T04:14:34Z</time>
      </trkpt>
      <trkpt lat="40.8064910266397" lon="-3.88961477508424">
        <time>2024-03-12T04:14:34Z</time>
      </trkpt>
      <trkpt lat="40.806505959551" lon="-3.88954739773524">
        <time>2024-03-12T04:14:34Z</time>
      </trkpt>
      <trkpt lat="40.8065151628924" lon="-3.88948705719559">
        <time>2024-03-12T04:14:34Z</time>
      </trkpt>
      <trkpt lat="40.8065239784887" lon="-3.88943026813535">
        <time>2024-03-12T04:14:34Z</time>
      </trkpt>
      <trkpt lat="40.8065334611308" lon="-3.88936874573397">
        <time>2024-03-12T04:14:34Z</time>
      </trkpt>
      <trkpt lat="40.8065698891531" lon="-3.88909548660384">
        <time>2024-03-12T04:14:34Z</time>
      </trkpt>
      <trkpt lat="40.8065707464129" lon="-3.88908945169662">
        <time>2024-03-12T04:14:34Z</time>
      </trkpt>
      <trkpt lat="40.8065759801312" lon="-3.88895970286782">
        <time>2024-03-12T04:14:34Z</time>
      </trkpt>
      <trkpt lat="40.8065818546065" lon="-3.88881692142017">
        <time>2024-03-12T04:14:34Z</time>
      </trkpt>
      <trkpt lat="40.8066021015185" lon="-3.88871452214441">
        <time>2024-03-12T04:14:34Z</time>
      </trkpt>
      <trkpt lat="40.8066051007828" lon="-3.88869938699998">
        <time>2024-03-12T04:14:34Z</time>
      </trkpt>
      <trkpt lat="40.8066530869175" lon="-3.88845746158702">
        <time>2024-03-12T04:14:34Z</time>
      </trkpt>
      <trkpt lat="40.8066735323373" lon="-3.88814201951218">
        <time>2024-03-12T04:14:34Z</time>
      </trkpt>
      <trkpt lat="40.8066796640618" lon="-3.88804761208237">
        <time>2024-03-12T04:14:34Z</time>
      </trkpt>
      <trkpt lat="40.8066917251217" lon="-3.88795529912651">
        <time>2024-03-12T04:14:34Z</time>
      </trkpt>
      <trkpt lat="40.8067026322329" lon="-3.8878724552448">
        <time>2024-03-12T04:14:34Z</time>
      </trkpt>
      <trkpt lat="40.8067161409504" lon="-3.88781442424014">
        <time>2024-03-12T04:14:34Z</time>
      </trkpt>
      <trkpt lat="40.8067482829573" lon="-3.88767626044393">
        <time>2024-03-12T04:14:34Z</time>
      </trkpt>
      <trkpt lat="40.8067874399661" lon="-3.8875747053083">
        <time>2024-03-12T04:14:34Z</time>
      </trkpt>
      <trkpt lat="40.806796079334" lon="-3.88755241328685">
        <time>2024-03-12T04:14:34Z</time>
      </trkpt>
      <trkpt lat="40.8068320805602" lon="-3.8874160789552">
        <time>2024-03-12T04:14:34Z</time>
      </trkpt>
      <trkpt lat="40.8068327302299" lon="-3.88741359792697">
        <time>2024-03-12T04:14:34Z</time>
      </trkpt>
      <trkpt lat="40.8068436790614" lon="-3.88737213050509">
        <time>2024-03-12T04:14:34Z</time>
      </trkpt>
      <trkpt lat="40.8068545314216" lon="-3.88733149167911">
        <time>2024-03-12T04:14:34Z</time>
      </trkpt>
      <trkpt lat="40.80683997762" lon="-3.88726775160589">
        <time>2024-03-12T04:14:34Z</time>
      </trkpt>
      <trkpt lat="40.8068153196952" lon="-3.88715906270003">
        <time>2024-03-12T04:14:34Z</time>
      </trkpt>
      <trkpt lat="40.8068568011853" lon="-3.8870363165182">
        <time>2024-03-12T04:14:34Z</time>
      </trkpt>
      <trkpt lat="40.8069920176813" lon="-3.88689561204917">
        <time>2024-03-12T04:14:34Z</time>
      </trkpt>
      <trkpt lat="40.8070220765868" lon="-3.88686423907237">
        <time>2024-03-12T04:14:34Z</time>
      </trkpt>
      <trkpt lat="40.8070375289528" lon="-3.88682283139846">
        <time>2024-03-12T04:14:34Z</time>
      </trkpt>
      <trkpt lat="40.807063466657" lon="-3.88675334678514">
        <time>2024-03-12T04:14:34Z</time>
      </trkpt>
      <trkpt lat="40.8070980601456" lon="-3.8866359618258">
        <time>2024-03-12T04:14:34Z</time>
      </trkpt>
      <trkpt lat="40.8071074009115" lon="-3.88660443148121">
        <time>2024-03-12T04:14:34Z</time>
      </trkpt>
      <trkpt lat="40.8071494861212" lon="-3.88646165633306">
        <time>2024-03-12T04:14:34Z</time>
      </trkpt>
      <trkpt lat="40.8071544577194" lon="-3.88643599564331">
        <time>2024-03-12T04:14:34Z</time>
      </trkpt>
      <trkpt lat="40.8071691759381" lon="-3.88636114496023">
        <time>2024-03-12T04:14:34Z</time>
      </trkpt>
      <trkpt lat="40.8071705229186" lon="-3.88630306997989">
        <time>2024-03-12T04:14:34Z</time>
      </trkpt>
      <trkpt lat="40.8072194371049" lon="-3.88615078223352">
        <time>2024-03-12T04:14:34Z</time>
      </trkpt>
      <trkpt lat="40.8072222850213" lon="-3.88613185099364">
        <time>2024-03-12T04:14:34Z</time>
      </trkpt>
      <trkpt lat="40.8072308105435" lon="-3.8860774281629">
        <time>2024-03-12T04:14:34Z</time>
      </trkpt>
      <trkpt lat="40.8072657489904" lon="-3.88598541836715">
        <time>2024-03-12T04:14:34Z</time>
      </trkpt>
      <trkpt lat="40.8072715357945" lon="-3.88593570134226">
        <time>2024-03-12T04:14:34Z</time>
      </trkpt>
      <trkpt lat="40.8072738186093" lon="-3.88593170076123">
        <time>2024-03-12T04:14:34Z</time>
      </trkpt>
      <trkpt lat="40.8073692263129" lon="-3.88576627811488">
        <time>2024-03-12T04:14:34Z</time>
      </trkpt>
      <trkpt lat="40.8074067666512" lon="-3.88568734387066">
        <time>2024-03-12T04:14:34Z</time>
      </trkpt>
      <trkpt lat="40.8074086682456" lon="-3.88567432784384">
        <time>2024-03-12T04:14:34Z</time>
      </trkpt>
      <trkpt lat="40.8074210058254" lon="-3.88559268728324">
        <time>2024-03-12T04:14:34Z</time>
      </trkpt>
      <trkpt lat="40.8074203962496" lon="-3.88555474081264">
        <time>2024-03-12T04:14:34Z</time>
      </trkpt>
      <trkpt lat="40.8074125351986" lon="-3.88552262581215">
        <time>2024-03-12T04:14:34Z</time>
      </trkpt>
      <trkpt lat="40.8073779246909" lon="-3.88545458803264">
        <time>2024-03-12T04:14:34Z</time>
      </trkpt>
      <trkpt lat="40.8073666516715" lon="-3.88539753067835">
        <time>2024-03-12T04:14:34Z</time>
      </trkpt>
      <trkpt lat="40.8073999609161" lon="-3.8852829727856">
        <time>2024-03-12T04:14:34Z</time>
      </trkpt>
      <trkpt lat="40.8074013346425" lon="-3.88522134121434">
        <time>2024-03-12T04:14:34Z</time>
      </trkpt>
      <trkpt lat="40.8073986842164" lon="-3.88520281104409">
        <time>2024-03-12T04:14:34Z</time>
      </trkpt>
      <trkpt lat="40.8073902252132" lon="-3.88514294573098">
        <time>2024-03-12T04:14:34Z</time>
      </trkpt>
      <trkpt lat="40.8073362800201" lon="-3.88501181592729">
        <time>2024-03-12T04:14:34Z</time>
      </trkpt>
      <trkpt lat="40.8073309755671" lon="-3.88499870415523">
        <time>2024-03-12T04:14:34Z</time>
      </trkpt>
      <trkpt lat="40.8072261967798" lon="-3.88480050736434">
        <time>2024-03-12T04:14:34Z</time>
      </trkpt>
      <trkpt lat="40.8071692035313" lon="-3.88471438932222">
        <time>2024-03-12T04:14:34Z</time>
      </trkpt>
      <trkpt lat="40.8071177237665" lon="-3.88461411782555">
        <time>2024-03-12T04:14:34Z</time>
      </trkpt>
      <trkpt lat="40.8071147566638" lon="-3.88460162995233">
        <time>2024-03-12T04:14:34Z</time>
      </trkpt>
      <trkpt lat="40.8070985344655" lon="-3.88453205877961">
        <time>2024-03-12T04:14:34Z</time>
      </trkpt>
      <trkpt lat="40.8070875778849" lon="-3.88431613989865">
        <time>2024-03-12T04:14:34Z</time>
      </trkpt>
      <trkpt lat="40.8070161178096" lon="-3.8842369438149">
        <time>2024-03-12T04:14:34Z</time>
      </trkpt>
      <trkpt lat="40.8069477232854" lon="-3.88411036596772">
        <time>2024-03-12T04:14:34Z</time>
      </trkpt>
      <trkpt lat="40.8068972527263" lon="-3.88399588188866">
        <time>2024-03-12T04:14:34Z</time>
      </trkpt>
      <trkpt lat="40.8068806440021" lon="-3.88396495536086">
        <time>2024-03-12T04:14:34Z</time>
      </trkpt>
      <trkpt lat="40.8068466276626" lon="-3.883901550518">
        <time>2024-03-12T04:14:34Z</time>
      </trkpt>
      <trkpt lat="40.8067905072304" lon="-3.88381900200767">
        <time>2024-03-12T04:14:34Z</time>
      </trkpt>
      <trkpt lat="40.8067245961993" lon="-3.88375624118346">
        <time>2024-03-12T04:14:34Z</time>
      </trkpt>
      <trkpt lat="40.8067046530123" lon="-3.88373724472831">
        <time>2024-03-12T04:14:34Z</time>
      </trkpt>
      <trkpt lat="40.8064879796742" lon="-3.88356364992491">
        <time>2024-03-12T04:14:34Z</time>
      </trkpt>
      <trkpt lat="40.8063913889192" lon="-3.88347226651042">
        <time>2024-03-12T04:14:34Z</time>
      </trkpt>
      <trkpt lat="40.8063513440773" lon="-3.88343142654126">
        <time>2024-03-12T04:14:34Z</time>
      </trkpt>
      <trkpt lat="40.8063207745261" lon="-3.88340019671252">
        <time>2024-03-12T04:14:34Z</time>
      </trkpt>
      <trkpt lat="40.8062565379205" lon="-3.88331872721382">
        <time>2024-03-12T04:14:34Z</time>
      </trkpt>
      <trkpt lat="40.8060442963159" lon="-3.88280138434048">
        <time>2024-03-12T04:14:34Z</time>
      </trkpt>
      <trkpt lat="40.8060083724147" lon="-3.88266931233094">
        <time>2024-03-12T04:14:34Z</time>
      </trkpt>
      <trkpt lat="40.8059921741226" lon="-3.88254935728252">
        <time>2024-03-12T04:14:34Z</time>
      </trkpt>
      <trkpt lat="40.8059876854193" lon="-3.88242955740606">
        <time>2024-03-12T04:14:34Z</time>
      </trkpt>
      <trkpt lat="40.8059860438762" lon="-3.88229082647863">
        <time>2024-03-12T04:14:34Z</time>
      </trkpt>
      <trkpt lat="40.8059545199361" lon="-3.88205448489959">
        <time>2024-03-12T04:14:34Z</time>
      </trkpt>
      <trkpt lat="40.8059139736387" lon="-3.88193776438634">
        <time>2024-03-12T04:14:34Z</time>
      </trkpt>
      <trkpt lat="40.8058687966398" lon="-3.88183758036696">
        <time>2024-03-12T04:14:34Z</time>
      </trkpt>
      <trkpt lat="40.8057368177647" lon="-3.88166155826871">
        <time>2024-03-12T04:14:34Z</time>
      </trkpt>
      <trkpt lat="40.8056909752643" lon="-3.88153054177008">
        <time>2024-03-12T04:14:34Z</time>
      </trkpt>
      <trkpt lat="40.8056367456036" lon="-3.88120024335699">
        <time>2024-03-12T04:14:34Z</time>
      </trkpt>
      <trkpt lat="40.8055976002272" lon="-3.88102971885552">
        <time>2024-03-12T04:14:34Z</time>
      </trkpt>
      <trkpt lat="40.8055879241739" lon="-3.88098738560532">
        <time>2024-03-12T04:14:34Z</time>
      </trkpt>
      <trkpt lat="40.8055875566091" lon="-3.88096473690092">
        <time>2024-03-12T04:14:34Z</time>
      </trkpt>
      <trkpt lat="40.8055850349836" lon="-3.88075225451677">
        <time>2024-03-12T04:14:34Z</time>
      </trkpt>
      <trkpt lat="40.8055835145627" lon="-3.88062099497282">
        <time>2024-03-12T04:14:34Z</time>
      </trkpt>
      <trkpt lat="40.8055886645599" lon="-3.88041833544262">
        <time>2024-03-12T04:14:34Z</time>
      </trkpt>
      <trkpt lat="40.8055835314409" lon="-3.88038270135656">
        <time>2024-03-12T04:14:34Z</time>
      </trkpt>
      <trkpt lat="40.8055092614702" lon="-3.88019914663081">
        <time>2024-03-12T04:14:34Z</time>
      </trkpt>
      <trkpt lat="40.8054286289901" lon="-3.87992848971937">
        <time>2024-03-12T04:14:34Z</time>
      </trkpt>
      <trkpt lat="40.8054091296065" lon="-3.87986302754035">
        <time>2024-03-12T04:14:34Z</time>
      </trkpt>
      <trkpt lat="40.8054047397703" lon="-3.87984803177654">
        <time>2024-03-12T04:14:34Z</time>
      </trkpt>
      <trkpt lat="40.8053701710485" lon="-3.87977407186362">
        <time>2024-03-12T04:14:34Z</time>
      </trkpt>
      <trkpt lat="40.805339898133" lon="-3.87972743611112">
        <time>2024-03-12T04:14:34Z</time>
      </trkpt>
      <trkpt lat="40.8053261278771" lon="-3.8796430811395">
        <time>2024-03-12T04:14:34Z</time>
      </trkpt>
      <trkpt lat="40.8052734927363" lon="-3.87945744249507">
        <time>2024-03-12T04:14:34Z</time>
      </trkpt>
      <trkpt lat="40.8052562728818" lon="-3.87935288801898">
        <time>2024-03-12T04:14:34Z</time>
      </trkpt>
      <trkpt lat="40.8052556251026" lon="-3.87931968446834">
        <time>2024-03-12T04:14:34Z</time>
      </trkpt>
      <trkpt lat="40.8052670303261" lon="-3.879241589644">
        <time>2024-03-12T04:14:34Z</time>
      </trkpt>
      <trkpt lat="40.8052747881207" lon="-3.87921655867141">
        <time>2024-03-12T04:14:34Z</time>
      </trkpt>
      <trkpt lat="40.805298249751" lon="-3.87914040122011">
        <time>2024-03-12T04:14:34Z</time>
      </trkpt>
      <trkpt lat="40.8053046202722" lon="-3.87912009406294">
        <time>2024-03-12T04:14:34Z</time>
      </trkpt>
      <trkpt lat="40.8053213401942" lon="-3.87906566146119">
        <time>2024-03-12T04:14:34Z</time>
      </trkpt>
      <trkpt lat="40.8053556969653" lon="-3.87895467430635">
        <time>2024-03-12T04:14:34Z</time>
      </trkpt>
      <trkpt lat="40.8053580705322" lon="-3.87890325329421">
        <time>2024-03-12T04:14:34Z</time>
      </trkpt>
      <trkpt lat="40.8053653929139" lon="-3.87874614760519">
        <time>2024-03-12T04:14:34Z</time>
      </trkpt>
      <trkpt lat="40.8053672153859" lon="-3.87873158953176">
        <time>2024-03-12T04:14:34Z</time>
      </trkpt>
      <trkpt lat="40.8054065443076" lon="-3.87842896614183">
        <time>2024-03-12T04:14:34Z</time>
      </trkpt>
      <trkpt lat="40.8054099007194" lon="-3.87841407261585">
        <time>2024-03-12T04:14:34Z</time>
      </trkpt>
      <trkpt lat="40.8054894847182" lon="-3.87806562486002">
        <time>2024-03-12T04:14:34Z</time>
      </trkpt>
      <trkpt lat="40.8055220988277" lon="-3.87792307856138">
        <time>2024-03-12T04:14:34Z</time>
      </trkpt>
      <trkpt lat="40.8055494691404" lon="-3.87781851889275">
        <time>2024-03-12T04:14:34Z</time>
      </trkpt>
      <trkpt lat="40.8055517886541" lon="-3.87780965789986">
        <time>2024-03-12T04:14:34Z</time>
      </trkpt>
      <trkpt lat="40.8055977369309" lon="-3.87769052364105">
        <time>2024-03-12T04:14:34Z</time>
      </trkpt>
      <trkpt lat="40.8056272060756" lon="-3.87754686850811">
        <time>2024-03-12T04:14:34Z</time>
      </trkpt>
      <trkpt lat="40.8056286067877" lon="-3.87754036647673">
        <time>2024-03-12T04:14:34Z</time>
      </trkpt>
      <trkpt lat="40.8056529810938" lon="-3.87753357430712">
        <time>2024-03-12T04:14:34Z</time>
      </trkpt>
      <trkpt lat="40.8056920558839" lon="-3.87748903838838">
        <time>2024-03-12T04:14:34Z</time>
      </trkpt>
      <trkpt lat="40.8057536583845" lon="-3.87744361360367">
        <time>2024-03-12T04:14:34Z</time>
      </trkpt>
      <trkpt lat="40.8057880130393" lon="-3.87742746848272">
        <time>2024-03-12T04:14:34Z</time>
      </trkpt>
      <trkpt lat="40.8058373295558" lon="-3.87733920209793">
        <time>2024-03-12T04:14:34Z</time>
      </trkpt>
      <trkpt lat="40.8058631003572" lon="-3.87726722316291">
        <time>2024-03-12T04:14:34Z</time>
      </trkpt>
      <trkpt lat="40.8058906904184" lon="-3.87724031891863">
        <time>2024-03-12T04:14:34Z</time>
      </trkpt>
      <trkpt lat="40.8059420603404" lon="-3.877190016835">
        <time>2024-03-12T04:14:34Z</time>
      </trkpt>
      <trkpt lat="40.8059845937968" lon="-3.87716449484614">
        <time>2024-03-12T04:14:34Z</time>
      </trkpt>
      <trkpt lat="40.8060290368898" lon="-3.87712477137504">
        <time>2024-03-12T04:14:34Z</time>
      </trkpt>
      <trkpt lat="40.8060595275696" lon="-3.87702440108982">
        <time>2024-03-12T04:14:34Z</time>
      </trkpt>
      <trkpt lat="40.8060600698209" lon="-3.87702417111888">
        <time>2024-03-12T04:14:34Z</time>
      </trkpt>
      <trkpt lat="40.806176291801" lon="-3.8769512485817">
        <time>2024-03-12T04:14:34Z</time>
      </trkpt>
      <trkpt lat="40.8062666729972" lon="-3.87691212958694">
        <time>2024-03-12T04:14:34Z</time>
      </trkpt>
      <trkpt lat="40.8062954897882" lon="-3.87688974628987">
        <time>2024-03-12T04:14:34Z</time>
      </trkpt>
      <trkpt lat="40.8063763212602" lon="-3.87682702743534">
        <time>2024-03-12T04:14:34Z</time>
      </trkpt>
      <trkpt lat="40.8064326451314" lon="-3.87676493430861">
        <time>2024-03-12T04:14:34Z</time>
      </trkpt>
      <trkpt lat="40.8065856913515" lon="-3.87665906278378">
        <time>2024-03-12T04:14:34Z</time>
      </trkpt>
      <trkpt lat="40.8066212303817" lon="-3.87664115430999">
        <time>2024-03-12T04:14:34Z</time>
      </trkpt>
      <trkpt lat="40.8067159125415" lon="-3.87659319952867">
        <time>2024-03-12T04:14:34Z</time>
      </trkpt>
      <trkpt lat="40.8067495554643" lon="-3.87655214756723">
        <time>2024-03-12T04:14:34Z</time>
      </trkpt>
      <trkpt lat="40.8067721912584" lon="-3.87653703311214">
        <time>2024-03-12T04:14:34Z</time>
      </trkpt>
      <trkpt lat="40.8068232725816" lon="-3.87645353024876">
        <time>2024-03-12T04:14:34Z</time>
      </trkpt>
      <trkpt lat="40.8068569920231" lon="-3.87641425750459">
        <time>2024-03-12T04:14:34Z</time>
      </trkpt>
      <trkpt lat="40.8068887117955" lon="-3.87637732954254">
        <time>2024-03-12T04:14:34Z</time>
      </trkpt>
      <trkpt lat="40.8069830919617" lon="-3.87628609704602">
        <time>2024-03-12T04:14:34Z</time>
      </trkpt>
      <trkpt lat="40.8070586933666" lon="-3.87622401936877">
        <time>2024-03-12T04:14:34Z</time>
      </trkpt>
      <trkpt lat="40.8070782737755" lon="-3.87620791608887">
        <time>2024-03-12T04:14:34Z</time>
      </trkpt>
      <trkpt lat="40.8071237883358" lon="-3.87614567961887">
        <time>2024-03-12T04:14:34Z</time>
      </trkpt>
      <trkpt lat="40.8071866572949" lon="-3.87602830517995">
        <time>2024-03-12T04:14:34Z</time>
      </trkpt>
      <trkpt lat="40.807231615865" lon="-3.87594436522532">
        <time>2024-03-12T04:14:34Z</time>
      </trkpt>
      <trkpt lat="40.8072868945268" lon="-3.87590122597435">
        <time>2024-03-12T04:14:34Z</time>
      </trkpt>
      <trkpt lat="40.8073070259778" lon="-3.87585999565651">
        <time>2024-03-12T04:14:34Z</time>
      </trkpt>
      <trkpt lat="40.8073091424417" lon="-3.87581852845045">
        <time>2024-03-12T04:14:34Z</time>
      </trkpt>
      <trkpt lat="40.8073212571092" lon="-3.87576533696665">
        <time>2024-03-12T04:14:34Z</time>
      </trkpt>
      <trkpt lat="40.8073333512494" lon="-3.87573858346838">
        <time>2024-03-12T04:14:34Z</time>
      </trkpt>
      <trkpt lat="40.8073340835458" lon="-3.8757370518511">
        <time>2024-03-12T04:14:34Z</time>
      </trkpt>
      <trkpt lat="40.8073894880963" lon="-3.87567731598372">
        <time>2024-03-12T04:14:34Z</time>
      </trkpt>
      <trkpt lat="40.8074492164213" lon="-3.87564134835296">
        <time>2024-03-12T04:14:34Z</time>
      </trkpt>
      <trkpt lat="40.807510025415" lon="-3.87558168334376">
        <time>2024-03-12T04:14:34Z</time>
      </trkpt>
      <trkpt lat="40.8075335184252" lon="-3.87554855889612">
        <time>2024-03-12T04:14:34Z</time>
      </trkpt>
      <trkpt lat="40.8076897734577" lon="-3.87532831664335">
        <time>2024-03-12T04:14:34Z</time>
      </trkpt>
      <trkpt lat="40.8077950358379" lon="-3.87517996100009">
        <time>2024-03-12T04:14:34Z</time>
      </trkpt>
      <trkpt lat="40.8078368119799" lon="-3.87513545777698">
        <time>2024-03-12T04:14:34Z</time>
      </trkpt>
      <trkpt lat="40.8079276241489" lon="-3.87503943303535">
        <time>2024-03-12T04:14:34Z</time>
      </trkpt>
      <trkpt lat="40.8080355504651" lon="-3.87494363283343">
        <time>2024-03-12T04:14:34Z</time>
      </trkpt>
      <trkpt lat="40.808037724848" lon="-3.87494200157505">
        <time>2024-03-12T04:14:34Z</time>
      </trkpt>
      <trkpt lat="40.8081678688306" lon="-3.87483866798546">
        <time>2024-03-12T04:14:34Z</time>
      </trkpt>
      <trkpt lat="40.8081933414804" lon="-3.87480580606856">
        <time>2024-03-12T04:14:34Z</time>
      </trkpt>
      <trkpt lat="40.8084286303238" lon="-3.8745813810288">
        <time>2024-03-12T04:14:34Z</time>
      </trkpt>
      <trkpt lat="40.8085073012404" lon="-3.87450641742153">
        <time>2024-03-12T04:14:34Z</time>
      </trkpt>
      <trkpt lat="40.8086142396294" lon="-3.87435072998333">
        <time>2024-03-12T04:14:34Z</time>
      </trkpt>
      <trkpt lat="40.8086412027504" lon="-3.87431136644702">
        <time>2024-03-12T04:14:34Z</time>
      </trkpt>
      <trkpt lat="40.8087661682998" lon="-3.87410671263515">
        <time>2024-03-12T04:14:34Z</time>
      </trkpt>
      <trkpt lat="40.8087866423548" lon="-3.87406773799763">
        <time>2024-03-12T04:14:34Z</time>
      </trkpt>
      <trkpt lat="40.808853915441" lon="-3.8739395089502">
        <time>2024-03-12T04:14:34Z</time>
      </trkpt>
      <trkpt lat="40.8089010912018" lon="-3.87382429472262">
        <time>2024-03-12T04:14:34Z</time>
      </trkpt>
      <trkpt lat="40.8089640523883" lon="-3.87367063676789">
        <time>2024-03-12T04:14:34Z</time>
      </trkpt>
      <trkpt lat="40.8089953582776" lon="-3.87358117872315">
        <time>2024-03-12T04:14:34Z</time>
      </trkpt>
      <trkpt lat="40.809089366506" lon="-3.87331268671089">
        <time>2024-03-12T04:14:34Z</time>
      </trkpt>
      <trkpt lat="40.8091058461471" lon="-3.87326583428101">
        <time>2024-03-12T04:14:34Z</time>
      </trkpt>
      <trkpt lat="40.8091313811635" lon="-3.87322467288674">
        <time>2024-03-12T04:14:34Z</time>
      </trkpt>
      <trkpt lat="40.8092140311972" lon="-3.87313565034153">
        <time>2024-03-12T04:14:34Z</time>
      </trkpt>
      <trkpt lat="40.8092771965931" lon="-3.87300250470263">
        <time>2024-03-12T04:14:34Z</time>
      </trkpt>
      <trkpt lat="40.8093330392484" lon="-3.87288467576034">
        <time>2024-03-12T04:14:34Z</time>
      </trkpt>
      <trkpt lat="40.8094184715651" lon="-3.87266598323771">
        <time>2024-03-12T04:14:34Z</time>
      </trkpt>
      <trkpt lat="40.8094506218443" lon="-3.87258388595874">
        <time>2024-03-12T04:14:34Z</time>
      </trkpt>
      <trkpt lat="40.8095805371922" lon="-3.87231989204843">
        <time>2024-03-12T04:14:34Z</time>
      </trkpt>
      <trkpt lat="40.8097067933909" lon="-3.87206320001635">
        <time>2024-03-12T04:14:34Z</time>
      </trkpt>
      <trkpt lat="40.8097370861385" lon="-3.87196459771332">
        <time>2024-03-12T04:14:34Z</time>
      </trkpt>
      <trkpt lat="40.8097474298752" lon="-3.87193094307067">
        <time>2024-03-12T04:14:34Z</time>
      </trkpt>
      <trkpt lat="40.8097858655891" lon="-3.87173226262199">
        <time>2024-03-12T04:14:34Z</time>
      </trkpt>
      <trkpt lat="40.8098024821414" lon="-3.87167912733279">
        <time>2024-03-12T04:14:34Z</time>
      </trkpt>
      <trkpt lat="40.8098003978805" lon="-3.87159729248467">
        <time>2024-03-12T04:14:34Z</time>
      </trkpt>
      <trkpt lat="40.809816444962" lon="-3.8715002818596">
        <time>2024-03-12T04:14:34Z</time>
      </trkpt>
      <trkpt lat="40.8098416618704" lon="-3.87142959330788">
        <time>2024-03-12T04:14:34Z</time>
      </trkpt>
      <trkpt lat="40.8098569375473" lon="-3.87138699235623">
        <time>2024-03-12T04:14:34Z</time>
      </trkpt>
      <trkpt lat="40.8098859888537" lon="-3.87123798449534">
        <time>2024-03-12T04:14:34Z</time>
      </trkpt>
      <trkpt lat="40.8099289798599" lon="-3.87106817335022">
        <time>2024-03-12T04:14:34Z</time>
      </trkpt>
      <trkpt lat="40.8099500560608" lon="-3.87098509992259">
        <time>2024-03-12T04:14:34Z</time>
      </trkpt>
      <trkpt lat="40.8099856327543" lon="-3.87092628413613">
        <time>2024-03-12T04:14:34Z</time>
      </trkpt>
      <trkpt lat="40.8100405904589" lon="-3.87080606938771">
        <time>2024-03-12T04:14:34Z</time>
      </trkpt>
      <trkpt lat="40.810050462611" lon="-3.87078710995189">
        <time>2024-03-12T04:14:34Z</time>
      </trkpt>
      <trkpt lat="40.8101347454725" lon="-3.87062471444781">
        <time>2024-03-12T04:14:34Z</time>
      </trkpt>
      <trkpt lat="40.8101994539499" lon="-3.8705135188024">
        <time>2024-03-12T04:14:34Z</time>
      </trkpt>
      <trkpt lat="40.8102661708015" lon="-3.87039879231134">
        <time>2024-03-12T04:14:34Z</time>
      </trkpt>
      <trkpt lat="40.8102664446037" lon="-3.87039832163927">
        <time>2024-03-12T04:14:34Z</time>
      </trkpt>
      <trkpt lat="40.8103918514158" lon="-3.87021784807996">
        <time>2024-03-12T04:14:34Z</time>
      </trkpt>
      <trkpt lat="40.8104753283879" lon="-3.87013831597087">
        <time>2024-03-12T04:14:34Z</time>
      </trkpt>
      <trkpt lat="40.8105489507026" lon="-3.87005154114899">
        <time>2024-03-12T04:14:34Z</time>
      </trkpt>
      <trkpt lat="40.8106228679428" lon="-3.86992564414269">
        <time>2024-03-12T04:14:34Z</time>
      </trkpt>
      <trkpt lat="40.8107994277024" lon="-3.86968726635693">
        <time>2024-03-12T04:14:34Z</time>
      </trkpt>
      <trkpt lat="40.8109370207733" lon="-3.86959895457375">
        <time>2024-03-12T04:14:34Z</time>
      </trkpt>
      <trkpt lat="40.8110328844459" lon="-3.86954922373486">
        <time>2024-03-12T04:14:34Z</time>
      </trkpt>
      <trkpt lat="40.8110828188041" lon="-3.86949770750841">
        <time>2024-03-12T04:14:34Z</time>
      </trkpt>
      <trkpt lat="40.8110849173318" lon="-3.86949417798476">
        <time>2024-03-12T04:14:34Z</time>
      </trkpt>
      <trkpt lat="40.8111448559705" lon="-3.86939418099325">
        <time>2024-03-12T04:14:34Z</time>
      </trkpt>
      <trkpt lat="40.8111910889985" lon="-3.86935565831304">
        <time>2024-03-12T04:14:34Z</time>
      </trkpt>
      <trkpt lat="40.8112784438406" lon="-3.86935916983429">
        <time>2024-03-12T04:14:34Z</time>
      </trkpt>
      <trkpt lat="40.8113758319903" lon="-3.86934621330039">
        <time>2024-03-12T04:14:34Z</time>
      </trkpt>
      <trkpt lat="40.8114459400416" lon="-3.86924753411385">
        <time>2024-03-12T04:14:34Z</time>
      </trkpt>
      <trkpt lat="40.8114879282867" lon="-3.86917457199639">
        <time>2024-03-12T04:14:34Z</time>
      </trkpt>
      <trkpt lat="40.8115246548764" lon="-3.86908257076205">
        <time>2024-03-12T04:14:34Z</time>
      </trkpt>
      <trkpt lat="40.8115493233912" lon="-3.86903665237892">
        <time>2024-03-12T04:14:34Z</time>
      </trkpt>
      <trkpt lat="40.8116810482307" lon="-3.86889016484073">
        <time>2024-03-12T04:14:34Z</time>
      </trkpt>
      <trkpt lat="40.8117447613754" lon="-3.86880325782351">
        <time>2024-03-12T04:14:34Z</time>
      </trkpt>
      <trkpt lat="40.8117995383722" lon="-3.86870674886">
        <time>2024-03-12T04:14:34Z</time>
      </trkpt>
      <trkpt lat="40.8118623327797" lon="-3.86862220083938">
        <time>2024-03-12T04:14:34Z</time>
      </trkpt>
      <trkpt lat="40.8119138718725" lon="-3.86859678861759">
        <time>2024-03-12T04:14:34Z</time>
      </trkpt>
      <trkpt lat="40.8120279643076" lon="-3.86851883759012">
        <time>2024-03-12T04:14:34Z</time>
      </trkpt>
      <trkpt lat="40.8120955298422" lon="-3.86849339236149">
        <time>2024-03-12T04:14:34Z</time>
      </trkpt>
      <trkpt lat="40.8120969221654" lon="-3.86846674550994">
        <time>2024-03-12T04:14:34Z</time>
      </trkpt>
      <trkpt lat="40.8120950347577" lon="-3.86840084264512">
        <time>2024-03-12T04:14:34Z</time>
      </trkpt>
      <trkpt lat="40.8121039427093" lon="-3.86832566935308">
        <time>2024-03-12T04:14:34Z</time>
      </trkpt>
      <trkpt lat="40.8121270320109" lon="-3.86826636622492">
        <time>2024-03-12T04:14:34Z</time>
      </trkpt>
      <trkpt lat="40.8121593827743" lon="-3.86824326001011">
        <time>2024-03-12T04:14:34Z</time>
      </trkpt>
      <trkpt lat="40.8121868962405" lon="-3.86822950190482">
        <time>2024-03-12T04:14:34Z</time>
      </trkpt>
      <trkpt lat="40.8122075314431" lon="-3.86817957787419">
        <time>2024-03-12T04:14:34Z</time>
      </trkpt>
      <trkpt lat="40.8122630068082" lon="-3.8680924631411">
        <time>2024-03-12T04:14:34Z</time>
      </trkpt>
      <trkpt lat="40.812267148084" lon="-3.8680172274923">
        <time>2024-03-12T04:14:34Z</time>
      </trkpt>
      <trkpt lat="40.8122724927289" lon="-3.86794043898235">
        <time>2024-03-12T04:14:34Z</time>
      </trkpt>
      <trkpt lat="40.8122870989222" lon="-3.86789984743793">
        <time>2024-03-12T04:14:34Z</time>
      </trkpt>
      <trkpt lat="40.8122889158203" lon="-3.86781673878961">
        <time>2024-03-12T04:14:34Z</time>
      </trkpt>
      <trkpt lat="40.8123011151385" lon="-3.8677792529166">
        <time>2024-03-12T04:14:34Z</time>
      </trkpt>
      <trkpt lat="40.8123325690889" lon="-3.86771692133398">
        <time>2024-03-12T04:14:34Z</time>
      </trkpt>
      <trkpt lat="40.812372293571" lon="-3.86766410865856">
        <time>2024-03-12T04:14:34Z</time>
      </trkpt>
      <trkpt lat="40.8124083724046" lon="-3.86762065965127">
        <time>2024-03-12T04:14:34Z</time>
      </trkpt>
      <trkpt lat="40.8124385638887" lon="-3.8675677226763">
        <time>2024-03-12T04:14:34Z</time>
      </trkpt>
      <trkpt lat="40.8124614759077" lon="-3.86753194475622">
        <time>2024-03-12T04:14:34Z</time>
      </trkpt>
      <trkpt lat="40.8124913371504" lon="-3.86752292249596">
        <time>2024-03-12T04:14:34Z</time>
      </trkpt>
      <trkpt lat="40.812527168282" lon="-3.86751240945055">
        <time>2024-03-12T04:14:34Z</time>
      </trkpt>
      <trkpt lat="40.8125510596334" lon="-3.86750487795183">
        <time>2024-03-12T04:14:34Z</time>
      </trkpt>
      <trkpt lat="40.8125726502953" lon="-3.86748633669196">
        <time>2024-03-12T04:14:34Z</time>
      </trkpt>
      <trkpt lat="40.8125894155143" lon="-3.86747557527566">
        <time>2024-03-12T04:14:34Z</time>
      </trkpt>
      <trkpt lat="40.8126214241373" lon="-3.86749795178965">
        <time>2024-03-12T04:14:34Z</time>
      </trkpt>
      <trkpt lat="40.8126463655918" lon="-3.8675092564684">
        <time>2024-03-12T04:14:34Z</time>
      </trkpt>
      <trkpt lat="40.8126665995336" lon="-3.86751265711895">
        <time>2024-03-12T04:14:34Z</time>
      </trkpt>
      <trkpt lat="40.8126834473051" lon="-3.86749091696353">
        <time>2024-03-12T04:14:34Z</time>
      </trkpt>
      <trkpt lat="40.812700471958" lon="-3.86744565093873">
        <time>2024-03-12T04:14:34Z</time>
      </trkpt>
      <trkpt lat="40.812722369194" lon="-3.86738633145027">
        <time>2024-03-12T04:14:34Z</time>
      </trkpt>
      <trkpt lat="40.8127310288894" lon="-3.8673440935224">
        <time>2024-03-12T04:14:34Z</time>
      </trkpt>
      <trkpt lat="40.8127528907035" lon="-3.86728947914818">
        <time>2024-03-12T04:14:34Z</time>
      </trkpt>
      <trkpt lat="40.8127724399892" lon="-3.86722542334974">
        <time>2024-03-12T04:14:34Z</time>
      </trkpt>
      <trkpt lat="40.8128300621172" lon="-3.86716970598389">
        <time>2024-03-12T04:14:34Z</time>
      </trkpt>
      <trkpt lat="40.8128721695914" lon="-3.86711692361817">
        <time>2024-03-12T04:14:34Z</time>
      </trkpt>
      <trkpt lat="40.8129320334607" lon="-3.86708005785764">
        <time>2024-03-12T04:14:34Z</time>
      </trkpt>
      <trkpt lat="40.8129644900727" lon="-3.86704283521741">
        <time>2024-03-12T04:14:34Z</time>
      </trkpt>
      <trkpt lat="40.8130055100674" lon="-3.86703960473244">
        <time>2024-03-12T04:14:34Z</time>
      </trkpt>
      <trkpt lat="40.8130417164372" lon="-3.86704258578474">
        <time>2024-03-12T04:14:34Z</time>
      </trkpt>
      <trkpt lat="40.8130722690398" lon="-3.86703670933742">
        <time>2024-03-12T04:14:34Z</time>
      </trkpt>
      <trkpt lat="40.8130990461773" lon="-3.86702576436134">
        <time>2024-03-12T04:14:34Z</time>
      </trkpt>
      <trkpt lat="40.8131354694175" lon="-3.86699988683304">
        <time>2024-03-12T04:14:34Z</time>
      </trkpt>
      <trkpt lat="40.8131574423584" lon="-3.86699389866583">
        <time>2024-03-12T04:14:34Z</time>
      </trkpt>
      <trkpt lat="40.8131774427055" lon="-3.86699666872547">
        <time>2024-03-12T04:14:34Z</time>
      </trkpt>
      <trkpt lat="40.8131899486935" lon="-3.86698177339819">
        <time>2024-03-12T04:14:34Z</time>
      </trkpt>
      <trkpt lat="40.813209014603" lon="-3.86698202160117">
        <time>2024-03-12T04:14:34Z</time>
      </trkpt>
      <trkpt lat="40.8132395483445" lon="-3.86697865455814">
        <time>2024-03-12T04:14:34Z</time>
      </trkpt>
      <trkpt lat="40.8133099971956" lon="-3.8669499259152">
        <time>2024-03-12T04:14:34Z</time>
      </trkpt>
      <trkpt lat="40.8133608767254" lon="-3.86691921705691">
        <time>2024-03-12T04:14:34Z</time>
      </trkpt>
      <trkpt lat="40.8133888076594" lon="-3.86677056740318">
        <time>2024-03-12T04:14:34Z</time>
      </trkpt>
      <trkpt lat="40.8134020198753" lon="-3.86659819768065">
        <time>2024-03-12T04:14:34Z</time>
      </trkpt>
      <trkpt lat="40.8134238156155" lon="-3.86647299639725">
        <time>2024-03-12T04:14:34Z</time>
      </trkpt>
      <trkpt lat="40.8134580573796" lon="-3.86627737164526">
        <time>2024-03-12T04:14:34Z</time>
      </trkpt>
      <trkpt lat="40.8135065170265" lon="-3.86617212397685">
        <time>2024-03-12T04:14:34Z</time>
      </trkpt>
      <trkpt lat="40.8135850025368" lon="-3.86603589532778">
        <time>2024-03-12T04:14:34Z</time>
      </trkpt>
      <trkpt lat="40.8136365587323" lon="-3.86591500188365">
        <time>2024-03-12T04:14:34Z</time>
      </trkpt>
      <trkpt lat="40.8138319624273" lon="-3.86568225696322">
        <time>2024-03-12T04:14:34Z</time>
      </trkpt>
      <trkpt lat="40.8138976486112" lon="-3.8656635036588">
        <time>2024-03-12T04:14:34Z</time>
      </trkpt>
      <trkpt lat="40.8139478774939" lon="-3.86550832001818">
        <time>2024-03-12T04:14:34Z</time>
      </trkpt>
      <trkpt lat="40.8139530197207" lon="-3.86549122819508">
        <time>2024-03-12T04:14:34Z</time>
      </trkpt>
      <trkpt lat="40.8139994186" lon="-3.86543887726539">
        <time>2024-03-12T04:14:34Z</time>
      </trkpt>
      <trkpt lat="40.8140594114168" lon="-3.86539168631495">
        <time>2024-03-12T04:14:34Z</time>
      </trkpt>
      <trkpt lat="40.8141141894947" lon="-3.86537713476026">
        <time>2024-03-12T04:14:34Z</time>
      </trkpt>
      <trkpt lat="40.8141440714188" lon="-3.86536880112589">
        <time>2024-03-12T04:14:34Z</time>
      </trkpt>
      <trkpt lat="40.8141709183992" lon="-3.86532335981035">
        <time>2024-03-12T04:14:34Z</time>
      </trkpt>
      <trkpt lat="40.8141927305359" lon="-3.86528657498148">
        <time>2024-03-12T04:14:34Z</time>
      </trkpt>
      <trkpt lat="40.8142061621882" lon="-3.8652627641584">
        <time>2024-03-12T04:14:34Z</time>
      </trkpt>
      <trkpt lat="40.8142196265378" lon="-3.86523459277828">
        <time>2024-03-12T04:14:34Z</time>
      </trkpt>
      <trkpt lat="40.8142431114697" lon="-3.86519564913935">
        <time>2024-03-12T04:14:34Z</time>
      </trkpt>
      <trkpt lat="40.8142617250672" lon="-3.86514355926321">
        <time>2024-03-12T04:14:34Z</time>
      </trkpt>
      <trkpt lat="40.8142750912943" lon="-3.86512846948865">
        <time>2024-03-12T04:14:34Z</time>
      </trkpt>
      <trkpt lat="40.8142837496767" lon="-3.86507843073838">
        <time>2024-03-12T04:14:34Z</time>
      </trkpt>
      <trkpt lat="40.8143205353814" lon="-3.86503311830899">
        <time>2024-03-12T04:14:34Z</time>
      </trkpt>
      <trkpt lat="40.8143555828628" lon="-3.86499868570555">
        <time>2024-03-12T04:14:34Z</time>
      </trkpt>
      <trkpt lat="40.8143892844284" lon="-3.86492280624216">
        <time>2024-03-12T04:14:34Z</time>
      </trkpt>
      <trkpt lat="40.8143964660344" lon="-3.86484876278867">
        <time>2024-03-12T04:14:34Z</time>
      </trkpt>
      <trkpt lat="40.8144218524528" lon="-3.8647771362116">
        <time>2024-03-12T04:14:34Z</time>
      </trkpt>
      <trkpt lat="40.8144322652057" lon="-3.86471403712639">
        <time>2024-03-12T04:14:34Z</time>
      </trkpt>
      <trkpt lat="40.8144544039548" lon="-3.86463364631735">
        <time>2024-03-12T04:14:34Z</time>
      </trkpt>
      <trkpt lat="40.8144578312784" lon="-3.86461842735797">
        <time>2024-03-12T04:14:34Z</time>
      </trkpt>
      <trkpt lat="40.8144747227904" lon="-3.86457503677368">
        <time>2024-03-12T04:14:34Z</time>
      </trkpt>
      <trkpt lat="40.8144948618804" lon="-3.86454041030812">
        <time>2024-03-12T04:14:34Z</time>
      </trkpt>
      <trkpt lat="40.8145231199491" lon="-3.8645276941802">
        <time>2024-03-12T04:14:34Z</time>
      </trkpt>
      <trkpt lat="40.8145702036823" lon="-3.86443454401716">
        <time>2024-03-12T04:14:34Z</time>
      </trkpt>
      <trkpt lat="40.814592195226" lon="-3.86437377552371">
        <time>2024-03-12T04:14:34Z</time>
      </trkpt>
      <trkpt lat="40.814621106632" lon="-3.86427384781249">
        <time>2024-03-12T04:14:34Z</time>
      </trkpt>
      <trkpt lat="40.8146567744927" lon="-3.86415656368614">
        <time>2024-03-12T04:14:34Z</time>
      </trkpt>
      <trkpt lat="40.814682258462" lon="-3.8640718548224">
        <time>2024-03-12T04:14:34Z</time>
      </trkpt>
      <trkpt lat="40.8147075137783" lon="-3.86401766995827">
        <time>2024-03-12T04:14:34Z</time>
      </trkpt>
      <trkpt lat="40.8147685835411" lon="-3.86382657792679">
        <time>2024-03-12T04:14:34Z</time>
      </trkpt>
      <trkpt lat="40.8148227156286" lon="-3.86355160355674">
        <time>2024-03-12T04:14:34Z</time>
      </trkpt>
      <trkpt lat="40.8148536694771" lon="-3.8635081337764">
        <time>2024-03-12T04:14:34Z</time>
      </trkpt>
      <trkpt lat="40.8148571969295" lon="-3.86339790872838">
        <time>2024-03-12T04:14:34Z</time>
      </trkpt>
      <trkpt lat="40.8148374957623" lon="-3.86338223910944">
        <time>2024-03-12T04:14:34Z</time>
      </trkpt>
      <trkpt lat="40.8148198977428" lon="-3.86332628273738">
        <time>2024-03-12T04:14:34Z</time>
      </trkpt>
      <trkpt lat="40.8148072646572" lon="-3.86318466417504">
        <time>2024-03-12T04:14:34Z</time>
      </trkpt>
      <trkpt lat="40.81480494391" lon="-3.86315771855681">
        <time>2024-03-12T04:14:34Z</time>
      </trkpt>
      <trkpt lat="40.8148102586122" lon="-3.86292894607383">
        <time>2024-03-12T04:14:34Z</time>
      </trkpt>
      <trkpt lat="40.8148061272937" lon="-3.8628790928667">
        <time>2024-03-12T04:14:34Z</time>
      </trkpt>
      <trkpt lat="40.814818626186" lon="-3.86277372691887">
        <time>2024-03-12T04:14:34Z</time>
      </trkpt>
      <trkpt lat="40.8148072976612" lon="-3.86272259476882">
        <time>2024-03-12T04:14:34Z</time>
      </trkpt>
      <trkpt lat="40.8148025757739" lon="-3.86263123419994">
        <time>2024-03-12T04:14:34Z</time>
      </trkpt>
      <trkpt lat="40.814894977136" lon="-3.86229711287461">
        <time>2024-03-12T04:14:34Z</time>
      </trkpt>
      <trkpt lat="40.814915214823" lon="-3.86226512365332">
        <time>2024-03-12T04:14:34Z</time>
      </trkpt>
      <trkpt lat="40.8149796140949" lon="-3.86208572963916">
        <time>2024-03-12T04:14:34Z</time>
      </trkpt>
      <trkpt lat="40.8149918819537" lon="-3.86201118873106">
        <time>2024-03-12T04:14:34Z</time>
      </trkpt>
      <trkpt lat="40.8150909015344" lon="-3.86165912841041">
        <time>2024-03-12T04:14:34Z</time>
      </trkpt>
      <trkpt lat="40.8150954695883" lon="-3.86157820340628">
        <time>2024-03-12T04:14:34Z</time>
      </trkpt>
      <trkpt lat="40.8150960870674" lon="-3.86156789570305">
        <time>2024-03-12T04:14:34Z</time>
      </trkpt>
      <trkpt lat="40.8150885380752" lon="-3.86149309820543">
        <time>2024-03-12T04:14:34Z</time>
      </trkpt>
      <trkpt lat="40.8150736148324" lon="-3.86144073385068">
        <time>2024-03-12T04:14:34Z</time>
      </trkpt>
      <trkpt lat="40.8150660126468" lon="-3.86137304997159">
        <time>2024-03-12T04:14:34Z</time>
      </trkpt>
      <trkpt lat="40.8150919437467" lon="-3.86115758585998">
        <time>2024-03-12T04:14:34Z</time>
      </trkpt>
      <trkpt lat="40.8150921161224" lon="-3.86114656097042">
        <time>2024-03-12T04:14:34Z</time>
      </trkpt>
      <trkpt lat="40.8150936143655" lon="-3.86105445054475">
        <time>2024-03-12T04:14:34Z</time>
      </trkpt>
      <trkpt lat="40.815084157364" lon="-3.86099385697678">
        <time>2024-03-12T04:14:34Z</time>
      </trkpt>
      <trkpt lat="40.8150744719374" lon="-3.86084314640783">
        <time>2024-03-12T04:14:34Z</time>
      </trkpt>
      <trkpt lat="40.8150878343475" lon="-3.8607425336534">
        <time>2024-03-12T04:14:34Z</time>
      </trkpt>
      <trkpt lat="40.8150926123017" lon="-3.86070583834695">
        <time>2024-03-12T04:14:34Z</time>
      </trkpt>
      <trkpt lat="40.8150921714713" lon="-3.8606441756406">
        <time>2024-03-12T04:14:34Z</time>
      </trkpt>
      <trkpt lat="40.8150792969439" lon="-3.8604740967969">
        <time>2024-03-12T04:14:34Z</time>
      </trkpt>
      <trkpt lat="40.8150602076593" lon="-3.86021927795468">
        <time>2024-03-12T04:14:34Z</time>
      </trkpt>
      <trkpt lat="40.8150597515416" lon="-3.8601596307919">
        <time>2024-03-12T04:14:34Z</time>
      </trkpt>
      <trkpt lat="40.8150593873151" lon="-3.86008765342071">
        <time>2024-03-12T04:14:34Z</time>
      </trkpt>
      <trkpt lat="40.8150719152581" lon="-3.85984510010597">
        <time>2024-03-12T04:14:34Z</time>
      </trkpt>
      <trkpt lat="40.8150751608626" lon="-3.85978431501568">
        <time>2024-03-12T04:14:34Z</time>
      </trkpt>
      <trkpt lat="40.8150738764891" lon="-3.85961818026259">
        <time>2024-03-12T04:14:34Z</time>
      </trkpt>
      <trkpt lat="40.8150733335412" lon="-3.85954596342849">
        <time>2024-03-12T04:14:34Z</time>
      </trkpt>
      <trkpt lat="40.8150776784774" lon="-3.8594464197439">
        <time>2024-03-12T04:14:34Z</time>
      </trkpt>
      <trkpt lat="40.8150750954632" lon="-3.85941828504632">
        <time>2024-03-12T04:14:34Z</time>
      </trkpt>
      <trkpt lat="40.8150627013134" lon="-3.85928022687717">
        <time>2024-03-12T04:14:34Z</time>
      </trkpt>
      <trkpt lat="40.8150599371305" lon="-3.85916754864611">
        <time>2024-03-12T04:14:34Z</time>
      </trkpt>
      <trkpt lat="40.8150655093901" lon="-3.85914509202276">
        <time>2024-03-12T04:14:34Z</time>
      </trkpt>
      <trkpt lat="40.8150728652032" lon="-3.8590040872616">
        <time>2024-03-12T04:14:34Z</time>
      </trkpt>
      <trkpt lat="40.8150836652023" lon="-3.85894494099138">
        <time>2024-03-12T04:14:34Z</time>
      </trkpt>
      <trkpt lat="40.8150916481747" lon="-3.85890117262259">
        <time>2024-03-12T04:14:34Z</time>
      </trkpt>
      <trkpt lat="40.8150936697807" lon="-3.85875061329576">
        <time>2024-03-12T04:14:34Z</time>
      </trkpt>
      <trkpt lat="40.815077958368" lon="-3.85868294370403">
        <time>2024-03-12T04:14:34Z</time>
      </trkpt>
      <trkpt lat="40.81506224868" lon="-3.85861503702412">
        <time>2024-03-12T04:14:34Z</time>
      </trkpt>
      <trkpt lat="40.8150435790918" lon="-3.85846065388859">
        <time>2024-03-12T04:14:34Z</time>
      </trkpt>
      <trkpt lat="40.8150157030494" lon="-3.85840551471538">
        <time>2024-03-12T04:14:34Z</time>
      </trkpt>
      <trkpt lat="40.8150062944575" lon="-3.85838665921446">
        <time>2024-03-12T04:14:34Z</time>
      </trkpt>
      <trkpt lat="40.8149826180717" lon="-3.85829979720851">
        <time>2024-03-12T04:14:34Z</time>
      </trkpt>
      <trkpt lat="40.8149784494724" lon="-3.85825468650913">
        <time>2024-03-12T04:14:34Z</time>
      </trkpt>
      <trkpt lat="40.8149372693985" lon="-3.85820936185427">
        <time>2024-03-12T04:14:34Z</time>
      </trkpt>
      <trkpt lat="40.8148882952643" lon="-3.85812841858666">
        <time>2024-03-12T04:14:34Z</time>
      </trkpt>
      <trkpt lat="40.8148554136525" lon="-3.85793474391038">
        <time>2024-03-12T04:14:34Z</time>
      </trkpt>
      <trkpt lat="40.8148165507214" lon="-3.85777612890313">
        <time>2024-03-12T04:14:34Z</time>
      </trkpt>
      <trkpt lat="40.8148097195754" lon="-3.85768574409323">
        <time>2024-03-12T04:14:34Z</time>
      </trkpt>
      <trkpt lat="40.814802395459" lon="-3.85764094862193">
        <time>2024-03-12T04:14:34Z</time>
      </trkpt>
      <trkpt lat="40.8147985209854" lon="-3.85761682887978">
        <time>2024-03-12T04:14:34Z</time>
      </trkpt>
      <trkpt lat="40.8148265393486" lon="-3.85748320480289">
        <time>2024-03-12T04:14:34Z</time>
      </trkpt>
      <trkpt lat="40.8148250550612" lon="-3.85744050023539">
        <time>2024-03-12T04:14:34Z</time>
      </trkpt>
      <trkpt lat="40.8147959382035" lon="-3.85735831158438">
        <time>2024-03-12T04:14:34Z</time>
      </trkpt>
      <trkpt lat="40.8147615581629" lon="-3.85728127235801">
        <time>2024-03-12T04:14:34Z</time>
      </trkpt>
      <trkpt lat="40.8147427740783" lon="-3.85723905656744">
        <time>2024-03-12T04:14:34Z</time>
      </trkpt>
      <trkpt lat="40.8147361670644" lon="-3.85715834354266">
        <time>2024-03-12T04:14:34Z</time>
      </trkpt>
      <trkpt lat="40.814712251937" lon="-3.85710349328867">
        <time>2024-03-12T04:14:34Z</time>
      </trkpt>
      <trkpt lat="40.8147037218619" lon="-3.85708761362655">
        <time>2024-03-12T04:14:34Z</time>
      </trkpt>
      <trkpt lat="40.8147034551594" lon="-3.85708713591208">
        <time>2024-03-12T04:14:34Z</time>
      </trkpt>
      <trkpt lat="40.8146598297749" lon="-3.85700559084834">
        <time>2024-03-12T04:14:34Z</time>
      </trkpt>
      <trkpt lat="40.8146459785881" lon="-3.85696628436781">
        <time>2024-03-12T04:14:34Z</time>
      </trkpt>
      <trkpt lat="40.8146218988116" lon="-3.85689720369659">
        <time>2024-03-12T04:14:34Z</time>
      </trkpt>
      <trkpt lat="40.8145780674796" lon="-3.85673419843028">
        <time>2024-03-12T04:14:34Z</time>
      </trkpt>
      <trkpt lat="40.8145336256339" lon="-3.85653205736108">
        <time>2024-03-12T04:14:34Z</time>
      </trkpt>
      <trkpt lat="40.8145309802934" lon="-3.8565122221154">
        <time>2024-03-12T04:14:34Z</time>
      </trkpt>
      <trkpt lat="40.8145250934007" lon="-3.85646791972387">
        <time>2024-03-12T04:14:34Z</time>
      </trkpt>
      <trkpt lat="40.8145066388446" lon="-3.8561749326875">
        <time>2024-03-12T04:14:34Z</time>
      </trkpt>
      <trkpt lat="40.8144977058777" lon="-3.85603122941033">
        <time>2024-03-12T04:14:34Z</time>
      </trkpt>
      <trkpt lat="40.8144825478659" lon="-3.85588875043701">
        <time>2024-03-12T04:14:34Z</time>
      </trkpt>
      <trkpt lat="40.8144764968227" lon="-3.85576939115117">
        <time>2024-03-12T04:14:34Z</time>
      </trkpt>
      <trkpt lat="40.8144676320255" lon="-3.85559213353403">
        <time>2024-03-12T04:14:34Z</time>
      </trkpt>
      <trkpt lat="40.8144759890038" lon="-3.85536411203509">
        <time>2024-03-12T04:14:34Z</time>
      </trkpt>
      <trkpt lat="40.8144777694905" lon="-3.85531836684518">
        <time>2024-03-12T04:14:34Z</time>
      </trkpt>
      <trkpt lat="40.8144989789306" lon="-3.85500917118645">
        <time>2024-03-12T04:14:34Z</time>
      </trkpt>
      <trkpt lat="40.814493008267" lon="-3.85489099868018">
        <time>2024-03-12T04:14:34Z</time>
      </trkpt>
      <trkpt lat="40.8144871983081" lon="-3.85477543679991">
        <time>2024-03-12T04:14:34Z</time>
      </trkpt>
      <trkpt lat="40.8144500029434" lon="-3.8545674617866">
        <time>2024-03-12T04:14:34Z</time>
      </trkpt>
      <trkpt lat="40.8143971730814" lon="-3.85428103025229">
        <time>2024-03-12T04:14:34Z</time>
      </trkpt>
      <trkpt lat="40.8143548674373" lon="-3.85415480347735">
        <time>2024-03-12T04:14:34Z</time>
      </trkpt>
      <trkpt lat="40.8142615026682" lon="-3.85386785294974">
        <time>2024-03-12T04:14:34Z</time>
      </trkpt>
      <trkpt lat="40.8142010829496" lon="-3.85373036750144">
        <time>2024-03-12T04:14:34Z</time>
      </trkpt>
      <trkpt lat="40.8141808852955" lon="-3.85368422214838">
        <time>2024-03-12T04:14:34Z</time>
      </trkpt>
      <trkpt lat="40.8141603784763" lon="-3.85361898316391">
        <time>2024-03-12T04:14:34Z</time>
      </trkpt>
      <trkpt lat="40.8141395235984" lon="-3.85355207978539">
        <time>2024-03-12T04:14:34Z</time>
      </trkpt>
      <trkpt lat="40.8139782787649" lon="-3.85318600562884">
        <time>2024-03-12T04:14:34Z</time>
      </trkpt>
      <trkpt lat="40.8139719309914" lon="-3.8531673089395">
        <time>2024-03-12T04:14:34Z</time>
      </trkpt>
      <trkpt lat="40.8138865991168" lon="-3.85291449364017">
        <time>2024-03-12T04:14:34Z</time>
      </trkpt>
      <trkpt lat="40.813802289559" lon="-3.85274267464291">
        <time>2024-03-12T04:14:34Z</time>
      </trkpt>
      <trkpt lat="40.81373564255" lon="-3.85255780249233">
        <time>2024-03-12T04:14:34Z</time>
      </trkpt>
      <trkpt lat="40.8136764108211" lon="-3.85235804088193">
        <time>2024-03-12T04:14:34Z</time>
      </trkpt>
      <trkpt lat="40.8136009181816" lon="-3.85223523128229">
        <time>2024-03-12T04:14:34Z</time>
      </trkpt>
      <trkpt lat="40.8135532408847" lon="-3.85209198329438">
        <time>2024-03-12T04:14:34Z</time>
      </trkpt>
      <trkpt lat="40.8135266265211" lon="-3.85201196479207">
        <time>2024-03-12T04:14:34Z</time>
      </trkpt>
      <trkpt lat="40.813505478585" lon="-3.85194802301368">
        <time>2024-03-12T04:14:34Z</time>
      </trkpt>
      <trkpt lat="40.8134912766402" lon="-3.85191938492878">
        <time>2024-03-12T04:14:34Z</time>
      </trkpt>
      <trkpt lat="40.8134403196651" lon="-3.85187865700879">
        <time>2024-03-12T04:14:34Z</time>
      </trkpt>
      <trkpt lat="40.8133936635315" lon="-3.85184106693591">
        <time>2024-03-12T04:14:34Z</time>
      </trkpt>
      <trkpt lat="40.813296330447" lon="-3.851724810992">
        <time>2024-03-12T04:14:34Z</time>
      </trkpt>
      <trkpt lat="40.813288477479" lon="-3.85169032583994">
        <time>2024-03-12T04:14:34Z</time>
      </trkpt>
      <trkpt lat="40.8132814471001" lon="-3.85154439730697">
        <time>2024-03-12T04:14:34Z</time>
      </trkpt>
      <trkpt lat="40.8132692565608" lon="-3.85148732881065">
        <time>2024-03-12T04:14:34Z</time>
      </trkpt>
      <trkpt lat="40.8132254696257" lon="-3.85143934181826">
        <time>2024-03-12T04:14:34Z</time>
      </trkpt>
      <trkpt lat="40.8132042277542" lon="-3.85138808607043">
        <time>2024-03-12T04:14:34Z</time>
      </trkpt>
      <trkpt lat="40.8131894748467" lon="-3.85131201406174">
        <time>2024-03-12T04:14:34Z</time>
      </trkpt>
      <trkpt lat="40.8131880582434" lon="-3.85125982611157">
        <time>2024-03-12T04:14:34Z</time>
      </trkpt>
      <trkpt lat="40.8132078312695" lon="-3.85114388235017">
        <time>2024-03-12T04:14:34Z</time>
      </trkpt>
      <trkpt lat="40.8132079397122" lon="-3.85114139381106">
        <time>2024-03-12T04:14:34Z</time>
      </trkpt>
      <trkpt lat="40.8132132183576" lon="-3.85102419765172">
        <time>2024-03-12T04:14:34Z</time>
      </trkpt>
      <trkpt lat="40.8131964184954" lon="-3.85073704880311">
        <time>2024-03-12T04:14:34Z</time>
      </trkpt>
      <trkpt lat="40.8131229490835" lon="-3.8504385053404">
        <time>2024-03-12T04:14:34Z</time>
      </trkpt>
      <trkpt lat="40.812990292132" lon="-3.85022576125438">
        <time>2024-03-12T04:14:34Z</time>
      </trkpt>
      <trkpt lat="40.812969889314" lon="-3.85018281650543">
        <time>2024-03-12T04:14:34Z</time>
      </trkpt>
      <trkpt lat="40.8129549434184" lon="-3.85013282739633">
        <time>2024-03-12T04:14:34Z</time>
      </trkpt>
      <trkpt lat="40.8129716199748" lon="-3.85007019952821">
        <time>2024-03-12T04:14:34Z</time>
      </trkpt>
      <trkpt lat="40.8130178641495" lon="-3.85002929115928">
        <time>2024-03-12T04:14:34Z</time>
      </trkpt>
      <trkpt lat="40.8130327653453" lon="-3.84996308352138">
        <time>2024-03-12T04:14:34Z</time>
      </trkpt>
      <trkpt lat="40.8130925015982" lon="-3.84983934986445">
        <time>2024-03-12T04:14:34Z</time>
      </trkpt>
      <trkpt lat="40.8130931408589" lon="-3.84983817234523">
        <time>2024-03-12T04:14:34Z</time>
      </trkpt>
      <trkpt lat="40.8131090824142" lon="-3.84975300703392">
        <time>2024-03-12T04:14:34Z</time>
      </trkpt>
      <trkpt lat="40.8131216478978" lon="-3.84963697100424">
        <time>2024-03-12T04:14:34Z</time>
      </trkpt>
      <trkpt lat="40.8131254326927" lon="-3.84948999531774">
        <time>2024-03-12T04:14:34Z</time>
      </trkpt>
      <trkpt lat="40.813125441422" lon="-3.84948880975188">
        <time>2024-03-12T04:14:34Z</time>
      </trkpt>
      <trkpt lat="40.8131372368074" lon="-3.84935497866002">
        <time>2024-03-12T04:14:34Z</time>
      </trkpt>
      <trkpt lat="40.8131596927326" lon="-3.84924143997987">
        <time>2024-03-12T04:14:34Z</time>
      </trkpt>
      <trkpt lat="40.8131894284751" lon="-3.84915467180344">
        <time>2024-03-12T04:14:34Z</time>
      </trkpt>
      <trkpt lat="40.8131965169829" lon="-3.84913401281165">
        <time>2024-03-12T04:14:34Z</time>
      </trkpt>
      <trkpt lat="40.8132105954389" lon="-3.8490571231964">
        <time>2024-03-12T04:14:34Z</time>
      </trkpt>
      <trkpt lat="40.8132109705991" lon="-3.84900614379361">
        <time>2024-03-12T04:14:34Z</time>
      </trkpt>
      <trkpt lat="40.8131871716665" lon="-3.84877561325683">
        <time>2024-03-12T04:14:34Z</time>
      </trkpt>
      <trkpt lat="40.8132283564256" lon="-3.84850494826399">
        <time>2024-03-12T04:14:34Z</time>
      </trkpt>
      <trkpt lat="40.813174565754" lon="-3.84841669460288">
        <time>2024-03-12T04:14:34Z</time>
      </trkpt>
      <trkpt lat="40.8131703075119" lon="-3.8484108893139">
        <time>2024-03-12T04:14:34Z</time>
      </trkpt>
      <trkpt lat="40.8131611408016" lon="-3.84840134493969">
        <time>2024-03-12T04:14:34Z</time>
      </trkpt>
      <trkpt lat="40.8131605596295" lon="-3.84838894866048">
        <time>2024-03-12T04:14:34Z</time>
      </trkpt>
      <trkpt lat="40.8131590632451" lon="-3.84834743087365">
        <time>2024-03-12T04:14:34Z</time>
      </trkpt>
      <trkpt lat="40.8131850253176" lon="-3.84824697893006">
        <time>2024-03-12T04:14:34Z</time>
      </trkpt>
      <trkpt lat="40.8132154300653" lon="-3.84815488323869">
        <time>2024-03-12T04:14:34Z</time>
      </trkpt>
      <trkpt lat="40.8132300251596" lon="-3.84813016985203">
        <time>2024-03-12T04:14:34Z</time>
      </trkpt>
      <trkpt lat="40.8132374839352" lon="-3.84809588014171">
        <time>2024-03-12T04:14:34Z</time>
      </trkpt>
      <trkpt lat="40.8132076513074" lon="-3.84798760347317">
        <time>2024-03-12T04:14:34Z</time>
      </trkpt>
      <trkpt lat="40.8132107979649" lon="-3.84792717392134">
        <time>2024-03-12T04:14:34Z</time>
      </trkpt>
      <trkpt lat="40.8132029317599" lon="-3.84777174986597">
        <time>2024-03-12T04:14:34Z</time>
      </trkpt>
      <trkpt lat="40.8132271702207" lon="-3.84766060457962">
        <time>2024-03-12T04:14:34Z</time>
      </trkpt>
      <trkpt lat="40.8132423400646" lon="-3.8475576435572">
        <time>2024-03-12T04:14:34Z</time>
      </trkpt>
      <trkpt lat="40.8132625485776" lon="-3.84750454515273">
        <time>2024-03-12T04:14:34Z</time>
      </trkpt>
      <trkpt lat="40.8132871476279" lon="-3.84746691642731">
        <time>2024-03-12T04:14:34Z</time>
      </trkpt>
      <trkpt lat="40.813289384551" lon="-3.84740766088215">
        <time>2024-03-12T04:14:34Z</time>
      </trkpt>
      <trkpt lat="40.8132892997004" lon="-3.84740694839436">
        <time>2024-03-12T04:14:34Z</time>
      </trkpt>
      <trkpt lat="40.8132763046582" lon="-3.84722608541384">
        <time>2024-03-12T04:14:34Z</time>
      </trkpt>
      <trkpt lat="40.8132848380335" lon="-3.84716809564458">
        <time>2024-03-12T04:14:34Z</time>
      </trkpt>
      <trkpt lat="40.8133468772291" lon="-3.84693886266195">
        <time>2024-03-12T04:14:34Z</time>
      </trkpt>
      <trkpt lat="40.8133823457617" lon="-3.84664763597852">
        <time>2024-03-12T04:14:34Z</time>
      </trkpt>
      <trkpt lat="40.8133823475017" lon="-3.84664739886426">
        <time>2024-03-12T04:14:34Z</time>
      </trkpt>
      <trkpt lat="40.8134254767806" lon="-3.84641697617722">
        <time>2024-03-12T04:14:34Z</time>
      </trkpt>
      <trkpt lat="40.8134682543762" lon="-3.84611161352766">
        <time>2024-03-12T04:14:34Z</time>
      </trkpt>
      <trkpt lat="40.8134776941887" lon="-3.84601593022255">
        <time>2024-03-12T04:14:34Z</time>
      </trkpt>
      <trkpt lat="40.8134799241482" lon="-3.84599437910797">
        <time>2024-03-12T04:14:34Z</time>
      </trkpt>
      <trkpt lat="40.8134813126622" lon="-3.84598929830655">
        <time>2024-03-12T04:14:34Z</time>
      </trkpt>
      <trkpt lat="40.8134833464831" lon="-3.84598221003986">
        <time>2024-03-12T04:14:34Z</time>
      </trkpt>
      <trkpt lat="40.8135505967279" lon="-3.84574225170658">
        <time>2024-03-12T04:14:34Z</time>
      </trkpt>
      <trkpt lat="40.8135511510862" lon="-3.84574036165065">
        <time>2024-03-12T04:14:34Z</time>
      </trkpt>
      <trkpt lat="40.8135957544729" lon="-3.84543146410431">
        <time>2024-03-12T04:14:34Z</time>
      </trkpt>
      <trkpt lat="40.8135818896979" lon="-3.84535658990834">
        <time>2024-03-12T04:14:34Z</time>
      </trkpt>
      <trkpt lat="40.8135663074393" lon="-3.84531939873477">
        <time>2024-03-12T04:14:34Z</time>
      </trkpt>
      <trkpt lat="40.8135455928631" lon="-3.84526957417746">
        <time>2024-03-12T04:14:34Z</time>
      </trkpt>
      <trkpt lat="40.8135342391675" lon="-3.8452208170024">
        <time>2024-03-12T04:14:34Z</time>
      </trkpt>
      <trkpt lat="40.8135391685196" lon="-3.84516278101029">
        <time>2024-03-12T04:14:34Z</time>
      </trkpt>
      <trkpt lat="40.8135571002997" lon="-3.84503910448537">
        <time>2024-03-12T04:14:34Z</time>
      </trkpt>
      <trkpt lat="40.813557194717" lon="-3.84503851284087">
        <time>2024-03-12T04:14:34Z</time>
      </trkpt>
      <trkpt lat="40.8135764983071" lon="-3.84496121395292">
        <time>2024-03-12T04:14:34Z</time>
      </trkpt>
      <trkpt lat="40.8135776104714" lon="-3.84495695959603">
        <time>2024-03-12T04:14:34Z</time>
      </trkpt>
      <trkpt lat="40.8136001923124" lon="-3.84482563497474">
        <time>2024-03-12T04:14:34Z</time>
      </trkpt>
      <trkpt lat="40.8136037539867" lon="-3.84470829725022">
        <time>2024-03-12T04:14:34Z</time>
      </trkpt>
      <trkpt lat="40.8136047137675" lon="-3.84470024675948">
        <time>2024-03-12T04:14:34Z</time>
      </trkpt>
      <trkpt lat="40.8136209570525" lon="-3.84457334722026">
        <time>2024-03-12T04:14:34Z</time>
      </trkpt>
      <trkpt lat="40.8136284234549" lon="-3.84453787131666">
        <time>2024-03-12T04:14:34Z</time>
      </trkpt>
      <trkpt lat="40.8136595698183" lon="-3.84446712507725">
        <time>2024-03-12T04:14:34Z</time>
      </trkpt>
      <trkpt lat="40.8136709842292" lon="-3.84440917114508">
        <time>2024-03-12T04:14:34Z</time>
      </trkpt>
      <trkpt lat="40.8136820209559" lon="-3.84435358377919">
        <time>2024-03-12T04:14:34Z</time>
      </trkpt>
      <trkpt lat="40.8136894367556" lon="-3.84420190980432">
        <time>2024-03-12T04:14:34Z</time>
      </trkpt>
      <trkpt lat="40.8136931352015" lon="-3.84418891412388">
        <time>2024-03-12T04:14:34Z</time>
      </trkpt>
      <trkpt lat="40.8137276328146" lon="-3.84415259508586">
        <time>2024-03-12T04:14:34Z</time>
      </trkpt>
      <trkpt lat="40.8137482127465" lon="-3.84404851535757">
        <time>2024-03-12T04:14:34Z</time>
      </trkpt>
      <trkpt lat="40.8137959907399" lon="-3.84367444304967">
        <time>2024-03-12T04:14:34Z</time>
      </trkpt>
      <trkpt lat="40.8138005904664" lon="-3.84357514054232">
        <time>2024-03-12T04:14:34Z</time>
      </trkpt>
      <trkpt lat="40.8138087935145" lon="-3.84340189662529">
        <time>2024-03-12T04:14:34Z</time>
      </trkpt>
      <trkpt lat="40.8138278832242" lon="-3.84325511282588">
        <time>2024-03-12T04:14:34Z</time>
      </trkpt>
      <trkpt lat="40.8138266914897" lon="-3.8432456122163">
        <time>2024-03-12T04:14:34Z</time>
      </trkpt>
      <trkpt lat="40.8138202443405" lon="-3.84319098884962">
        <time>2024-03-12T04:14:34Z</time>
      </trkpt>
      <trkpt lat="40.8138569590313" lon="-3.84309778415022">
        <time>2024-03-12T04:14:34Z</time>
      </trkpt>
      <trkpt lat="40.8138753380071" lon="-3.84304821780872">
        <time>2024-03-12T04:14:34Z</time>
      </trkpt>
      <trkpt lat="40.8139285017282" lon="-3.84298462631596">
        <time>2024-03-12T04:14:34Z</time>
      </trkpt>
      <trkpt lat="40.813937135135" lon="-3.8429743015094">
        <time>2024-03-12T04:14:34Z</time>
      </trkpt>
      <trkpt lat="40.8139828831913" lon="-3.84287765378035">
        <time>2024-03-12T04:14:34Z</time>
      </trkpt>
      <trkpt lat="40.8139922025532" lon="-3.84283508678566">
        <time>2024-03-12T04:14:34Z</time>
      </trkpt>
      <trkpt lat="40.8140008201974" lon="-3.84264192787649">
        <time>2024-03-12T04:14:34Z</time>
      </trkpt>
      <trkpt lat="40.8140174234441" lon="-3.84258878175476">
        <time>2024-03-12T04:14:34Z</time>
      </trkpt>
      <trkpt lat="40.8140544313587" lon="-3.84252937243703">
        <time>2024-03-12T04:14:34Z</time>
      </trkpt>
      <trkpt lat="40.8140547959898" lon="-3.84252878420305">
        <time>2024-03-12T04:14:34Z</time>
      </trkpt>
      <trkpt lat="40.814075920277" lon="-3.84247332381469">
        <time>2024-03-12T04:14:34Z</time>
      </trkpt>
      <trkpt lat="40.8140850139428" lon="-3.84233826966953">
        <time>2024-03-12T04:14:34Z</time>
      </trkpt>
      <trkpt lat="40.8141444112833" lon="-3.84222282278058">
        <time>2024-03-12T04:14:34Z</time>
      </trkpt>
      <trkpt lat="40.8142004391323" lon="-3.8420753192686">
        <time>2024-03-12T04:14:34Z</time>
      </trkpt>
      <trkpt lat="40.8142551420843" lon="-3.84198589794336">
        <time>2024-03-12T04:14:34Z</time>
      </trkpt>
      <trkpt lat="40.8143474247767" lon="-3.84180802410511">
        <time>2024-03-12T04:14:34Z</time>
      </trkpt>
      <trkpt lat="40.8143601478118" lon="-3.8417927708383">
        <time>2024-03-12T04:14:34Z</time>
      </trkpt>
      <trkpt lat="40.814408104115" lon="-3.84176373451597">
        <time>2024-03-12T04:14:34Z</time>
      </trkpt>
      <trkpt lat="40.8144466364745" lon="-3.84166817977784">
        <time>2024-03-12T04:14:34Z</time>
      </trkpt>
      <trkpt lat="40.8144912145923" lon="-3.84160827238639">
        <time>2024-03-12T04:14:34Z</time>
      </trkpt>
      <trkpt lat="40.8145596533571" lon="-3.8414881955798">
        <time>2024-03-12T04:14:34Z</time>
      </trkpt>
      <trkpt lat="40.8145615197232" lon="-3.84147932638957">
        <time>2024-03-12T04:14:34Z</time>
      </trkpt>
      <trkpt lat="40.8145671188178" lon="-3.84145271881584">
        <time>2024-03-12T04:14:34Z</time>
      </trkpt>
      <trkpt lat="40.8145780575891" lon="-3.84143507148004">
        <time>2024-03-12T04:14:34Z</time>
      </trkpt>
      <trkpt lat="40.8146279536584" lon="-3.84138708804669">
        <time>2024-03-12T04:14:34Z</time>
      </trkpt>
      <trkpt lat="40.8146734150964" lon="-3.84132956287507">
        <time>2024-03-12T04:14:34Z</time>
      </trkpt>
      <trkpt lat="40.814731279597" lon="-3.84130065125773">
        <time>2024-03-12T04:14:34Z</time>
      </trkpt>
      <trkpt lat="40.8147829166071" lon="-3.84126098955689">
        <time>2024-03-12T04:14:34Z</time>
      </trkpt>
      <trkpt lat="40.8148035551494" lon="-3.8412597088557">
        <time>2024-03-12T04:14:34Z</time>
      </trkpt>
      <trkpt lat="40.8148135595884" lon="-3.84125900524232">
        <time>2024-03-12T04:14:34Z</time>
      </trkpt>
      <trkpt lat="40.8148506548229" lon="-3.84123694539378">
        <time>2024-03-12T04:14:34Z</time>
      </trkpt>
      <trkpt lat="40.8148813496724" lon="-3.84122784746885">
        <time>2024-03-12T04:14:34Z</time>
      </trkpt>
      <trkpt lat="40.8148931372978" lon="-3.84121732499043">
        <time>2024-03-12T04:14:34Z</time>
      </trkpt>
      <trkpt lat="40.8149178294085" lon="-3.8411666513932">
        <time>2024-03-12T04:14:34Z</time>
      </trkpt>
      <trkpt lat="40.8149861726478" lon="-3.84105961498018">
        <time>2024-03-12T04:14:34Z</time>
      </trkpt>
      <trkpt lat="40.8150240690177" lon="-3.84103886936517">
        <time>2024-03-12T04:14:34Z</time>
      </trkpt>
      <trkpt lat="40.8150983244121" lon="-3.84099818864952">
        <time>2024-03-12T04:14:34Z</time>
      </trkpt>
      <trkpt lat="40.8151346139054" lon="-3.84096307554162">
        <time>2024-03-12T04:14:34Z</time>
      </trkpt>
      <trkpt lat="40.8151555559752" lon="-3.84093251144708">
        <time>2024-03-12T04:14:34Z</time>
      </trkpt>
      <trkpt lat="40.8151999090423" lon="-3.84090342866756">
        <time>2024-03-12T04:14:34Z</time>
      </trkpt>
      <trkpt lat="40.815236245169" lon="-3.84086191318218">
        <time>2024-03-12T04:14:34Z</time>
      </trkpt>
      <trkpt lat="40.815309825046" lon="-3.84077794496242">
        <time>2024-03-12T04:14:34Z</time>
      </trkpt>
      <trkpt lat="40.8153624231127" lon="-3.84072999462985">
        <time>2024-03-12T04:14:34Z</time>
      </trkpt>
      <trkpt lat="40.8153721890648" lon="-3.84071256930337">
        <time>2024-03-12T04:14:34Z</time>
      </trkpt>
      <trkpt lat="40.8154235685463" lon="-3.84062168048136">
        <time>2024-03-12T04:14:34Z</time>
      </trkpt>
      <trkpt lat="40.8155174408276" lon="-3.84034896409509">
        <time>2024-03-12T04:14:34Z</time>
      </trkpt>
      <trkpt lat="40.8155293320019" lon="-3.84032421402385">
        <time>2024-03-12T04:14:34Z</time>
      </trkpt>
      <trkpt lat="40.8155851608347" lon="-3.84025318237573">
        <time>2024-03-12T04:14:34Z</time>
      </trkpt>
      <trkpt lat="40.8155938901204" lon="-3.84024202816539">
        <time>2024-03-12T04:14:34Z</time>
      </trkpt>
      <trkpt lat="40.8156067511034" lon="-3.84020780450873">
        <time>2024-03-12T04:14:34Z</time>
      </trkpt>
      <trkpt lat="40.8156106476891" lon="-3.840167539129">
        <time>2024-03-12T04:14:34Z</time>
      </trkpt>
      <trkpt lat="40.8156616684617" lon="-3.84008873940934">
        <time>2024-03-12T04:14:34Z</time>
      </trkpt>
      <trkpt lat="40.8157391995439" lon="-3.83995691638893">
        <time>2024-03-12T04:14:34Z</time>
      </trkpt>
      <trkpt lat="40.8157538878493" lon="-3.83991915847723">
        <time>2024-03-12T04:14:34Z</time>
      </trkpt>
      <trkpt lat="40.8158412580126" lon="-3.83979694496571">
        <time>2024-03-12T04:14:34Z</time>
      </trkpt>
      <trkpt lat="40.8158973724033" lon="-3.83976089509299">
        <time>2024-03-12T04:14:34Z</time>
      </trkpt>
      <trkpt lat="40.8159476289518" lon="-3.83971279544089">
        <time>2024-03-12T04:14:34Z</time>
      </trkpt>
      <trkpt lat="40.8159781092144" lon="-3.83968365515512">
        <time>2024-03-12T04:14:34Z</time>
      </trkpt>
      <trkpt lat="40.8160169884066" lon="-3.83966398800522">
        <time>2024-03-12T04:14:34Z</time>
      </trkpt>
      <trkpt lat="40.8160746799219" lon="-3.83965878679713">
        <time>2024-03-12T04:14:34Z</time>
      </trkpt>
      <trkpt lat="40.8161163304057" lon="-3.83962966870069">
        <time>2024-03-12T04:14:34Z</time>
      </trkpt>
      <trkpt lat="40.8162026528453" lon="-3.83952759839377">
        <time>2024-03-12T04:14:34Z</time>
      </trkpt>
      <trkpt lat="40.8162038419457" lon="-3.83952512334682">
        <time>2024-03-12T04:14:34Z</time>
      </trkpt>
      <trkpt lat="40.8162187408115" lon="-3.83949554928778">
        <time>2024-03-12T04:14:34Z</time>
      </trkpt>
      <trkpt lat="40.8162428727442" lon="-3.83944747559959">
        <time>2024-03-12T04:14:34Z</time>
      </trkpt>
      <trkpt lat="40.8162628791567" lon="-3.83942164166335">
        <time>2024-03-12T04:14:34Z</time>
      </trkpt>
      <trkpt lat="40.8162764681314" lon="-3.83941114135715">
        <time>2024-03-12T04:14:34Z</time>
      </trkpt>
      <trkpt lat="40.8163377885371" lon="-3.83940242845266">
        <time>2024-03-12T04:14:34Z</time>
      </trkpt>
      <trkpt lat="40.8164137366851" lon="-3.83936425651461">
        <time>2024-03-12T04:14:34Z</time>
      </trkpt>
      <trkpt lat="40.8165663956953" lon="-3.8393068938175">
        <time>2024-03-12T04:14:34Z</time>
      </trkpt>
      <trkpt lat="40.8165935477475" lon="-3.83928944995217">
        <time>2024-03-12T04:14:34Z</time>
      </trkpt>
      <trkpt lat="40.8166471667042" lon="-3.839224910035">
        <time>2024-03-12T04:14:34Z</time>
      </trkpt>
      <trkpt lat="40.8166869983195" lon="-3.83919813998242">
        <time>2024-03-12T04:14:34Z</time>
      </trkpt>
      <trkpt lat="40.8166996433975" lon="-3.83919355637638">
        <time>2024-03-12T04:14:34Z</time>
      </trkpt>
      <trkpt lat="40.8167302259736" lon="-3.83919987049979">
        <time>2024-03-12T04:14:34Z</time>
      </trkpt>
      <trkpt lat="40.8168044626015" lon="-3.8392731364028">
        <time>2024-03-12T04:14:34Z</time>
      </trkpt>
      <trkpt lat="40.8168941759154" lon="-3.8393240684001">
        <time>2024-03-12T04:14:34Z</time>
      </trkpt>
      <trkpt lat="40.8170164803033" lon="-3.83935288216377">
        <time>2024-03-12T04:14:34Z</time>
      </trkpt>
      <trkpt lat="40.8170318233409" lon="-3.83934892544659">
        <time>2024-03-12T04:14:34Z</time>
      </trkpt>
      <trkpt lat="40.8170950013139" lon="-3.8393325284478">
        <time>2024-03-12T04:14:34Z</time>
      </trkpt>
      <trkpt lat="40.8171418406106" lon="-3.83933311884209">
        <time>2024-03-12T04:14:34Z</time>
      </trkpt>
      <trkpt lat="40.8172263477551" lon="-3.83935671329397">
        <time>2024-03-12T04:14:34Z</time>
      </trkpt>
      <trkpt lat="40.8173841783916" lon="-3.8393314304403">
        <time>2024-03-12T04:14:34Z</time>
      </trkpt>
      <trkpt lat="40.8174174545966" lon="-3.8393389644043">
        <time>2024-03-12T04:14:34Z</time>
      </trkpt>
      <trkpt lat="40.8174868300332" lon="-3.83933746736594">
        <time>2024-03-12T04:14:34Z</time>
      </trkpt>
      <trkpt lat="40.8175679756725" lon="-3.83932781839086">
        <time>2024-03-12T04:14:34Z</time>
      </trkpt>
      <trkpt lat="40.8177592981349" lon="-3.83928042805732">
        <time>2024-03-12T04:14:34Z</time>
      </trkpt>
      <trkpt lat="40.8178512700842" lon="-3.83926854391086">
        <time>2024-03-12T04:14:34Z</time>
      </trkpt>
      <trkpt lat="40.8179170079926" lon="-3.83927174400147">
        <time>2024-03-12T04:14:34Z</time>
      </trkpt>
      <trkpt lat="40.8180410103728" lon="-3.83931480872869">
        <time>2024-03-12T04:14:34Z</time>
      </trkpt>
      <trkpt lat="40.8181806964886" lon="-3.83930708331181">
        <time>2024-03-12T04:14:34Z</time>
      </trkpt>
      <trkpt lat="40.818272504548" lon="-3.83931772668812">
        <time>2024-03-12T04:14:34Z</time>
      </trkpt>
      <trkpt lat="40.8183491291471" lon="-3.83931039214578">
        <time>2024-03-12T04:14:34Z</time>
      </trkpt>
      <trkpt lat="40.8183905121465" lon="-3.83931802840305">
        <time>2024-03-12T04:14:34Z</time>
      </trkpt>
      <trkpt lat="40.818428581693" lon="-3.8393353462348">
        <time>2024-03-12T04:14:34Z</time>
      </trkpt>
      <trkpt lat="40.8184389976782" lon="-3.83933998346612">
        <time>2024-03-12T04:14:34Z</time>
      </trkpt>
      <trkpt lat="40.8184840095747" lon="-3.83934410817787">
        <time>2024-03-12T04:14:34Z</time>
      </trkpt>
      <trkpt lat="40.8185815068141" lon="-3.83931569280778">
        <time>2024-03-12T04:14:34Z</time>
      </trkpt>
      <trkpt lat="40.8187504569872" lon="-3.83924786155438">
        <time>2024-03-12T04:14:34Z</time>
      </trkpt>
      <trkpt lat="40.8188342876205" lon="-3.83924061771363">
        <time>2024-03-12T04:14:34Z</time>
      </trkpt>
      <trkpt lat="40.8189137007241" lon="-3.83922146037056">
        <time>2024-03-12T04:14:34Z</time>
      </trkpt>
      <trkpt lat="40.8189765821845" lon="-3.83919628429485">
        <time>2024-03-12T04:14:34Z</time>
      </trkpt>
      <trkpt lat="40.8191088503625" lon="-3.83914328668425">
        <time>2024-03-12T04:14:34Z</time>
      </trkpt>
      <trkpt lat="40.8191658135531" lon="-3.83911435994556">
        <time>2024-03-12T04:14:34Z</time>
      </trkpt>
      <trkpt lat="40.8192181436053" lon="-3.83910316156432">
        <time>2024-03-12T04:14:34Z</time>
      </trkpt>
      <trkpt lat="40.8192809918776" lon="-3.83907015865223">
        <time>2024-03-12T04:14:34Z</time>
      </trkpt>
      <trkpt lat="40.8193239459133" lon="-3.83904757707956">
        <time>2024-03-12T04:14:34Z</time>
      </trkpt>
      <trkpt lat="40.81942237832" lon="-3.83901442956216">
        <time>2024-03-12T04:14:34Z</time>
      </trkpt>
      <trkpt lat="40.8195400904379" lon="-3.83893148446418">
        <time>2024-03-12T04:14:34Z</time>
      </trkpt>
      <trkpt lat="40.8195744984781" lon="-3.8389072535121">
        <time>2024-03-12T04:14:34Z</time>
      </trkpt>
      <trkpt lat="40.819615993579" lon="-3.83889947577246">
        <time>2024-03-12T04:14:34Z</time>
      </trkpt>
      <trkpt lat="40.8196395856505" lon="-3.83887605714215">
        <time>2024-03-12T04:14:34Z</time>
      </trkpt>
      <trkpt lat="40.8196860586816" lon="-3.83880312339402">
        <time>2024-03-12T04:14:34Z</time>
      </trkpt>
      <trkpt lat="40.8196986994595" lon="-3.83874956613907">
        <time>2024-03-12T04:14:34Z</time>
      </trkpt>
      <trkpt lat="40.8197027894979" lon="-3.83873218647779">
        <time>2024-03-12T04:14:34Z</time>
      </trkpt>
      <trkpt lat="40.8197393282716" lon="-3.83866268481748">
        <time>2024-03-12T04:14:34Z</time>
      </trkpt>
      <trkpt lat="40.8197711305219" lon="-3.83862513991877">
        <time>2024-03-12T04:14:34Z</time>
      </trkpt>
      <trkpt lat="40.8198127031729" lon="-3.83860669078804">
        <time>2024-03-12T04:14:34Z</time>
      </trkpt>
      <trkpt lat="40.8198227062876" lon="-3.83859377301048">
        <time>2024-03-12T04:14:34Z</time>
      </trkpt>
      <trkpt lat="40.8198400619557" lon="-3.83856078927793">
        <time>2024-03-12T04:14:34Z</time>
      </trkpt>
      <trkpt lat="40.8198722691978" lon="-3.838467516876">
        <time>2024-03-12T04:14:34Z</time>
      </trkpt>
      <trkpt lat="40.8199223277629" lon="-3.83839699933533">
        <time>2024-03-12T04:14:34Z</time>
      </trkpt>
      <trkpt lat="40.8199509318521" lon="-3.83830368137353">
        <time>2024-03-12T04:14:34Z</time>
      </trkpt>
      <trkpt lat="40.8199579770864" lon="-3.83828871042431">
        <time>2024-03-12T04:14:34Z</time>
      </trkpt>
      <trkpt lat="40.8199975940497" lon="-3.83820466166632">
        <time>2024-03-12T04:14:34Z</time>
      </trkpt>
      <trkpt lat="40.8200280339502" lon="-3.83810662342223">
        <time>2024-03-12T04:14:34Z</time>
      </trkpt>
      <trkpt lat="40.8200527281675" lon="-3.83805547049546">
        <time>2024-03-12T04:14:34Z</time>
      </trkpt>
      <trkpt lat="40.8200701060765" lon="-3.83801940370527">
        <time>2024-03-12T04:14:34Z</time>
      </trkpt>
      <trkpt lat="40.8200958611952" lon="-3.83794620815141">
        <time>2024-03-12T04:14:34Z</time>
      </trkpt>
      <trkpt lat="40.8201181682451" lon="-3.83785162470952">
        <time>2024-03-12T04:14:34Z</time>
      </trkpt>
      <trkpt lat="40.8201258580083" lon="-3.83776029611111">
        <time>2024-03-12T04:14:34Z</time>
      </trkpt>
      <trkpt lat="40.8201299933219" lon="-3.83771184882221">
        <time>2024-03-12T04:14:34Z</time>
      </trkpt>
      <trkpt lat="40.8201429138359" lon="-3.83766932248662">
        <time>2024-03-12T04:14:34Z</time>
      </trkpt>
      <trkpt lat="40.8201684965648" lon="-3.8376198406114">
        <time>2024-03-12T04:14:34Z</time>
      </trkpt>
      <trkpt lat="40.8202065545693" lon="-3.83748988097056">
        <time>2024-03-12T04:14:34Z</time>
      </trkpt>
      <trkpt lat="40.8202072923883" lon="-3.83748751864341">
        <time>2024-03-12T04:14:34Z</time>
      </trkpt>
      <trkpt lat="40.8202061449923" lon="-3.83739738311915">
        <time>2024-03-12T04:14:34Z</time>
      </trkpt>
      <trkpt lat="40.8202202664915" lon="-3.83738795571191">
        <time>2024-03-12T04:14:34Z</time>
      </trkpt>
      <trkpt lat="40.8202287757651" lon="-3.83738225229098">
        <time>2024-03-12T04:14:34Z</time>
      </trkpt>
      <trkpt lat="40.8203461493927" lon="-3.83734578267323">
        <time>2024-03-12T04:14:34Z</time>
      </trkpt>
      <trkpt lat="40.820374541268" lon="-3.83734364954303">
        <time>2024-03-12T04:14:34Z</time>
      </trkpt>
      <trkpt lat="40.8204651265902" lon="-3.83733660669109">
        <time>2024-03-12T04:14:34Z</time>
      </trkpt>
      <trkpt lat="40.8204966100087" lon="-3.83734293167781">
        <time>2024-03-12T04:14:34Z</time>
      </trkpt>
      <trkpt lat="40.8205249731977" lon="-3.83735716235336">
        <time>2024-03-12T04:14:34Z</time>
      </trkpt>
      <trkpt lat="40.8205675201291" lon="-3.8373782119642">
        <time>2024-03-12T04:14:34Z</time>
      </trkpt>
      <trkpt lat="40.8206315082021" lon="-3.83737427348864">
        <time>2024-03-12T04:14:34Z</time>
      </trkpt>
      <trkpt lat="40.8206973752401" lon="-3.83735968632456">
        <time>2024-03-12T04:14:34Z</time>
      </trkpt>
      <trkpt lat="40.8207474939691" lon="-3.83736766869399">
        <time>2024-03-12T04:14:34Z</time>
      </trkpt>
      <trkpt lat="40.8208188481525" lon="-3.83737900127123">
        <time>2024-03-12T04:14:34Z</time>
      </trkpt>
      <trkpt lat="40.8209444060229" lon="-3.83733196191831">
        <time>2024-03-12T04:14:34Z</time>
      </trkpt>
      <trkpt lat="40.8209689329583" lon="-3.8373038107589">
        <time>2024-03-12T04:14:34Z</time>
      </trkpt>
      <trkpt lat="40.820987214834" lon="-3.83726728031977">
        <time>2024-03-12T04:14:34Z</time>
      </trkpt>
      <trkpt lat="40.8210265144198" lon="-3.83722686379041">
        <time>2024-03-12T04:14:34Z</time>
      </trkpt>
      <trkpt lat="40.821080698238" lon="-3.83717121871841">
        <time>2024-03-12T04:14:34Z</time>
      </trkpt>
      <trkpt lat="40.8211359282589" lon="-3.83713278110656">
        <time>2024-03-12T04:14:34Z</time>
      </trkpt>
      <trkpt lat="40.8212344719648" lon="-3.83708421561003">
        <time>2024-03-12T04:14:34Z</time>
      </trkpt>
      <trkpt lat="40.8214139398961" lon="-3.83693231472461">
        <time>2024-03-12T04:14:34Z</time>
      </trkpt>
      <trkpt lat="40.8215149300894" lon="-3.83679484244848">
        <time>2024-03-12T04:14:34Z</time>
      </trkpt>
      <trkpt lat="40.821566634363" lon="-3.83674568751485">
        <time>2024-03-12T04:14:34Z</time>
      </trkpt>
      <trkpt lat="40.8216203207109" lon="-3.83667165500393">
        <time>2024-03-12T04:14:34Z</time>
      </trkpt>
      <trkpt lat="40.8216923230594" lon="-3.8365563484638">
        <time>2024-03-12T04:14:34Z</time>
      </trkpt>
      <trkpt lat="40.8217731112009" lon="-3.8363474713415">
        <time>2024-03-12T04:14:34Z</time>
      </trkpt>
      <trkpt lat="40.8218241465998" lon="-3.83626628998713">
        <time>2024-03-12T04:14:34Z</time>
      </trkpt>
      <trkpt lat="40.8218616104477" lon="-3.83619323889035">
        <time>2024-03-12T04:14:34Z</time>
      </trkpt>
      <trkpt lat="40.8218809216389" lon="-3.83613893308026">
        <time>2024-03-12T04:14:34Z</time>
      </trkpt>
      <trkpt lat="40.8219015975709" lon="-3.83602060933542">
        <time>2024-03-12T04:14:34Z</time>
      </trkpt>
      <trkpt lat="40.8219269023629" lon="-3.8359845219684">
        <time>2024-03-12T04:14:34Z</time>
      </trkpt>
      <trkpt lat="40.8220019079605" lon="-3.83597680717785">
        <time>2024-03-12T04:14:34Z</time>
      </trkpt>
      <trkpt lat="40.8220630562432" lon="-3.83599180502778">
        <time>2024-03-12T04:14:34Z</time>
      </trkpt>
      <trkpt lat="40.8221099385003" lon="-3.83598646452559">
        <time>2024-03-12T04:14:34Z</time>
      </trkpt>
      <trkpt lat="40.8223390152954" lon="-3.83582569479344">
        <time>2024-03-12T04:14:34Z</time>
      </trkpt>
      <trkpt lat="40.8223968698292" lon="-3.83579796088845">
        <time>2024-03-12T04:14:34Z</time>
      </trkpt>
      <trkpt lat="40.8224537377001" lon="-3.83578207298952">
        <time>2024-03-12T04:14:34Z</time>
      </trkpt>
      <trkpt lat="40.8226059997695" lon="-3.83577924106535">
        <time>2024-03-12T04:14:34Z</time>
      </trkpt>
      <trkpt lat="40.8226957664527" lon="-3.83578570429301">
        <time>2024-03-12T04:14:34Z</time>
      </trkpt>
      <trkpt lat="40.8228067823766" lon="-3.8357936201539">
        <time>2024-03-12T04:14:34Z</time>
      </trkpt>
      <trkpt lat="40.8229734651169" lon="-3.83578978343991">
        <time>2024-03-12T04:14:34Z</time>
      </trkpt>
      <trkpt lat="40.8231348206308" lon="-3.8357752071306">
        <time>2024-03-12T04:14:34Z</time>
      </trkpt>
      <trkpt lat="40.8234712061809" lon="-3.83572369460521">
        <time>2024-03-12T04:14:34Z</time>
      </trkpt>
      <trkpt lat="40.8235606472537" lon="-3.83568805561381">
        <time>2024-03-12T04:14:34Z</time>
      </trkpt>
      <trkpt lat="40.8235929571145" lon="-3.83566735280959">
        <time>2024-03-12T04:14:34Z</time>
      </trkpt>
      <trkpt lat="40.8236167603604" lon="-3.83565199818628">
        <time>2024-03-12T04:14:34Z</time>
      </trkpt>
      <trkpt lat="40.8237634728924" lon="-3.83554473997892">
        <time>2024-03-12T04:14:34Z</time>
      </trkpt>
      <trkpt lat="40.8238450561429" lon="-3.83547461178562">
        <time>2024-03-12T04:14:34Z</time>
      </trkpt>
      <trkpt lat="40.8239337595302" lon="-3.8354164314738">
        <time>2024-03-12T04:14:34Z</time>
      </trkpt>
      <trkpt lat="40.8239952684996" lon="-3.83538162720087">
        <time>2024-03-12T04:14:34Z</time>
      </trkpt>
      <trkpt lat="40.8240188195118" lon="-3.83536377888891">
        <time>2024-03-12T04:14:34Z</time>
      </trkpt>
      <trkpt lat="40.8241084982923" lon="-3.83529529342069">
        <time>2024-03-12T04:14:34Z</time>
      </trkpt>
      <trkpt lat="40.8242171212284" lon="-3.83522313205737">
        <time>2024-03-12T04:14:34Z</time>
      </trkpt>
      <trkpt lat="40.8244674121259" lon="-3.83499383980081">
        <time>2024-03-12T04:14:34Z</time>
      </trkpt>
      <trkpt lat="40.8244999440665" lon="-3.83496732835575">
        <time>2024-03-12T04:14:34Z</time>
      </trkpt>
      <trkpt lat="40.824664961089" lon="-3.83483266571726">
        <time>2024-03-12T04:14:34Z</time>
      </trkpt>
      <trkpt lat="40.8247649536911" lon="-3.8347082158429">
        <time>2024-03-12T04:14:34Z</time>
      </trkpt>
      <trkpt lat="40.8248021420481" lon="-3.8346731055585">
        <time>2024-03-12T04:14:34Z</time>
      </trkpt>
      <trkpt lat="40.8248700418712" lon="-3.83462652141271">
        <time>2024-03-12T04:14:34Z</time>
      </trkpt>
      <trkpt lat="40.8250920651126" lon="-3.83444430603141">
        <time>2024-03-12T04:14:34Z</time>
      </trkpt>
      <trkpt lat="40.8252830936447" lon="-3.83431269447608">
        <time>2024-03-12T04:14:34Z</time>
      </trkpt>
      <trkpt lat="40.8252900774852" lon="-3.8343061409944">
        <time>2024-03-12T04:14:34Z</time>
      </trkpt>
      <trkpt lat="40.8254617858167" lon="-3.83414297886322">
        <time>2024-03-12T04:14:34Z</time>
      </trkpt>
      <trkpt lat="40.8255976193112" lon="-3.83404506531765">
        <time>2024-03-12T04:14:34Z</time>
      </trkpt>
      <trkpt lat="40.8256484045266" lon="-3.83399826556942">
        <time>2024-03-12T04:14:34Z</time>
      </trkpt>
      <trkpt lat="40.8257289660889" lon="-3.83394472336418">
        <time>2024-03-12T04:14:34Z</time>
      </trkpt>
      <trkpt lat="40.8258175658565" lon="-3.83390076895564">
        <time>2024-03-12T04:14:34Z</time>
      </trkpt>
      <trkpt lat="40.8259289416187" lon="-3.83382152255307">
        <time>2024-03-12T04:14:34Z</time>
      </trkpt>
      <trkpt lat="40.8260503128579" lon="-3.83370540074482">
        <time>2024-03-12T04:14:34Z</time>
      </trkpt>
      <trkpt lat="40.8260867785953" lon="-3.8336705173649">
        <time>2024-03-12T04:14:34Z</time>
      </trkpt>
      <trkpt lat="40.8262488449885" lon="-3.83355751359764">
        <time>2024-03-12T04:14:34Z</time>
      </trkpt>
      <trkpt lat="40.8267173452747" lon="-3.83317439845122">
        <time>2024-03-12T04:14:34Z</time>
      </trkpt>
      <trkpt lat="40.8268649734079" lon="-3.83306476950526">
        <time>2024-03-12T04:14:34Z</time>
      </trkpt>
      <trkpt lat="40.826988839309" lon="-3.83300227973016">
        <time>2024-03-12T04:14:34Z</time>
      </trkpt>
      <trkpt lat="40.827165698664" lon="-3.83287404086876">
        <time>2024-03-12T04:14:34Z</time>
      </trkpt>
      <trkpt lat="40.8273039802514" lon="-3.83277378104738">
        <time>2024-03-12T04:14:34Z</time>
      </trkpt>
      <trkpt lat="40.8274536063701" lon="-3.83263689879685">
        <time>2024-03-12T04:14:34Z</time>
      </trkpt>
      <trkpt lat="40.8275079341362" lon="-3.83259844253986">
        <time>2024-03-12T04:14:34Z</time>
      </trkpt>
      <trkpt lat="40.8276404114648" lon="-3.83246608876347">
        <time>2024-03-12T04:14:34Z</time>
      </trkpt>
      <trkpt lat="40.8276685145821" lon="-3.83244153554964">
        <time>2024-03-12T04:14:34Z</time>
      </trkpt>
      <trkpt lat="40.8276945121412" lon="-3.83239466772415">
        <time>2024-03-12T04:14:34Z</time>
      </trkpt>
      <trkpt lat="40.8277199084767" lon="-3.83234943940719">
        <time>2024-03-12T04:14:34Z</time>
      </trkpt>
      <trkpt lat="40.8277438374352" lon="-3.83222960301503">
        <time>2024-03-12T04:14:34Z</time>
      </trkpt>
      <trkpt lat="40.8278115079241" lon="-3.83209315109771">
        <time>2024-03-12T04:14:34Z</time>
      </trkpt>
      <trkpt lat="40.8278666221313" lon="-3.83202915153718">
        <time>2024-03-12T04:14:34Z</time>
      </trkpt>
      <trkpt lat="40.8279848594237" lon="-3.83197254171696">
        <time>2024-03-12T04:14:34Z</time>
      </trkpt>
      <trkpt lat="40.8279779730576" lon="-3.83153679748988">
        <time>2024-03-12T04:14:34Z</time>
      </trkpt>
      <trkpt lat="40.8279858757215" lon="-3.83120553193603">
        <time>2024-03-12T04:14:34Z</time>
      </trkpt>
      <trkpt lat="40.8279774504998" lon="-3.83112225562337">
        <time>2024-03-12T04:14:34Z</time>
      </trkpt>
      <trkpt lat="40.8279872287418" lon="-3.83094811442522">
        <time>2024-03-12T04:14:34Z</time>
      </trkpt>
      <trkpt lat="40.8279685102844" lon="-3.83076239601291">
        <time>2024-03-12T04:14:34Z</time>
      </trkpt>
      <trkpt lat="40.827966854237" lon="-3.83064421958702">
        <time>2024-03-12T04:14:34Z</time>
      </trkpt>
      <trkpt lat="40.8279586376871" lon="-3.8305319021014">
        <time>2024-03-12T04:14:34Z</time>
      </trkpt>
      <trkpt lat="40.8279197623486" lon="-3.83042976355805">
        <time>2024-03-12T04:14:34Z</time>
      </trkpt>
      <trkpt lat="40.8279041465684" lon="-3.83037016087261">
        <time>2024-03-12T04:14:34Z</time>
      </trkpt>
      <trkpt lat="40.8279550637242" lon="-3.8303318508687">
        <time>2024-03-12T04:14:34Z</time>
      </trkpt>
    </trkseg>
  </trk>
</gpx>
